[[{"header":{"parameterUnit":"m.s-1","parameterCategory":1,"la1":30.6,"la2":29.2853,"lo1":-89.7004,"lo2":-87.6739,"dy":0.0162,"dx":0.0183,"nx":112,"ny":82,"refTime":"2024-05-20T00:00:00:Z","depth":0,"parameterNumber":2,"parameterNumberName":"U-component_of_WINDS"},"data":[0.0,0.0,0.0,0.0,0.0,0.0,0.0,0.0,0.0,0.0,0.0,0.0,0.0,0.0,0.0,0.0,0.0,0.0,0.0,0.0,0.0,0.0,0.0,0.0,0.0,0.0,0.0,0.0,0.0,0.0,0.0,0.0,0.0,0.0,0.0,0.0,0.0,0.0,0.0,0.0,0.0,0.0,0.0,0.0,0.0,0.0,0.0,0.0,0.0,0.0,0.0,0.0,0.0,0.0,0.0,0.0,0.0,0.0,0.0,0.0,0.0,0.0,0.0,0.0,0.0,0.0,0.0,0.0,0.0,0.0,0.0,0.0,0.0,0.0,0.0,0.0,0.0,0.0,0.0,0.0,0.0,0.0,0.0,0.0,0.0,0.0,0.0,0.0,0.0,0.0,-2.0919,-2.1259,-2.1829,-2.1956,-2.1325,-2.1779,-2.1402,-1.9777,0.0,0.0,0.0,0.0,0.0,0.0,0.0,0.0,0.0,0.0,0.0,0.0,0.0,0.0,0.0,0.0,0.0,0.0,0.0,0.0,0.0,0.0,0.0,0.0,0.0,0.0,0.0,0.0,0.0,0.0,0.0,0.0,0.0,0.0,0.0,0.0,0.0,0.0,0.0,0.0,0.0,0.0,0.0,0.0,0.0,0.0,0.0,0.0,0.0,0.0,0.0,0.0,0.0,0.0,0.0,0.0,0.0,0.0,0.0,0.0,0.0,0.0,0.0,0.0,0.0,0.0,0.0,0.0,0.0,0.0,0.0,0.0,0.0,0.0,0.0,0.0,0.0,0.0,0.0,0.0,0.0,0.0,0.0,0.0,0.0,0.0,0.0,0.0,0.0,0.0,0.0,0.0,0.0,0.0,0.0,0.0,0.0,0.0,0.0,0.0,0.0,0.0,0.0,0.0,-2.0742,-2.192,-2.2137,-2.2154,-2.203,-2.1716,-2.12,-2.0473,0.0,0.0,0.0,0.0,0.0,0.0,0.0,0.0,0.0,0.0,0.0,0.0,0.0,0.0,0.0,0.0,0.0,0.0,0.0,0.0,0.0,0.0,0.0,0.0,0.0,0.0,0.0,0.0,0.0,0.0,0.0,0.0,0.0,0.0,0.0,0.0,0.0,0.0,0.0,0.0,0.0,0.0,0.0,0.0,0.0,0.0,0.0,0.0,0.0,0.0,0.0,0.0,0.0,0.0,0.0,0.0,0.0,0.0,0.0,0.0,0.0,0.0,0.0,0.0,0.0,0.0,0.0,0.0,0.0,0.0,0.0,0.0,0.0,0.0,0.0,0.0,0.0,0.0,0.0,0.0,0.0,0.0,0.0,0.0,0.0,0.0,0.0,0.0,0.0,0.0,0.0,0.0,0.0,0.0,0.0,0.0,0.0,0.0,0.0,0.0,0.0,0.0,0.0,-2.0435,-2.0991,-2.2082,-2.2197,-2.203,-2.1632,-2.1742,-2.1326,-2.0082,-2.0297,0.0,0.0,0.0,0.0,0.0,0.0,0.0,0.0,0.0,0.0,0.0,0.0,0.0,0.0,0.0,0.0,0.0,0.0,0.0,0.0,0.0,0.0,0.0,0.0,0.0,0.0,0.0,0.0,0.0,0.0,0.0,0.0,0.0,0.0,0.0,0.0,0.0,0.0,0.0,0.0,0.0,0.0,0.0,0.0,0.0,0.0,0.0,0.0,0.0,0.0,0.0,0.0,0.0,0.0,0.0,0.0,0.0,0.0,0.0,0.0,0.0,0.0,0.0,0.0,0.0,0.0,0.0,0.0,0.0,0.0,0.0,0.0,0.0,0.0,0.0,0.0,0.0,0.0,0.0,0.0,0.0,0.0,0.0,0.0,0.0,0.0,0.0,0.0,0.0,0.0,0.0,0.0,0.0,0.0,0.0,0.0,0.0,0.0,0.0,0.0,0.0,0.0,-2.0953,-2.1381,-2.2056,-2.2154,-2.1956,-2.142,-2.1744,-2.1385,-1.9854,-2.0052,0.0,0.0,0.0,0.0,0.0,0.0,0.0,0.0,0.0,0.0,0.0,0.0,0.0,0.0,0.0,0.0,0.0,0.0,0.0,0.0,0.0,0.0,0.0,0.0,0.0,0.0,0.0,0.0,0.0,0.0,0.0,0.0,0.0,0.0,0.0,0.0,0.0,0.0,0.0,0.0,0.0,0.0,0.0,0.0,0.0,0.0,0.0,0.0,0.0,0.0,0.0,0.0,0.0,0.0,0.0,0.0,0.0,0.0,0.0,0.0,0.0,0.0,0.0,0.0,0.0,0.0,0.0,0.0,0.0,0.0,0.0,0.0,0.0,0.0,0.0,0.0,0.0,0.0,0.0,0.0,0.0,0.0,0.0,0.0,0.0,0.0,0.0,0.0,0.0,0.0,0.0,0.0,0.0,0.0,0.0,0.0,0.0,0.0,0.0,0.0,0.0,0.0,-2.1059,-2.1858,-2.1925,-2.2092,-2.2185,-2.2123,-2.171,-2.1199,-2.0569,-1.9976,0.0,0.0,0.0,0.0,0.0,0.0,0.0,0.0,0.0,0.0,0.0,0.0,0.0,0.0,0.0,0.0,0.0,0.0,0.0,0.0,0.0,0.0,0.0,0.0,0.0,0.0,0.0,0.0,0.0,0.0,0.0,0.0,0.0,0.0,0.0,0.0,0.0,0.0,0.0,0.0,0.0,0.0,0.0,0.0,0.0,0.0,0.0,0.0,0.0,0.0,0.0,0.0,0.0,0.0,0.0,0.0,0.0,0.0,0.0,0.0,0.0,0.0,0.0,0.0,0.0,0.0,0.0,0.0,0.0,0.0,0.0,0.0,0.0,0.0,0.0,0.0,0.0,0.0,0.0,0.0,0.0,0.0,0.0,0.0,0.0,0.0,0.0,0.0,0.0,0.0,0.0,0.0,0.0,0.0,0.0,0.0,0.0,0.0,0.0,0.0,0.0,0.0,-2.0637,-2.1322,-2.1714,-2.1906,-2.203,-2.203,-2.1944,-2.1512,-2.0651,0.0,0.0,0.0,0.0,0.0,0.0,0.0,0.0,0.0,0.0,0.0,0.0,0.0,0.0,0.0,0.0,0.0,0.0,0.0,0.0,0.0,0.0,0.0,0.0,0.0,0.0,0.0,0.0,0.0,0.0,0.0,0.0,0.0,0.0,0.0,0.0,0.0,0.0,0.0,0.0,0.0,0.0,0.0,0.0,0.0,0.0,0.0,0.0,0.0,0.0,0.0,0.0,0.0,0.0,0.0,0.0,0.0,0.0,0.0,0.0,0.0,0.0,0.0,0.0,0.0,0.0,0.0,0.0,0.0,0.0,0.0,0.0,0.0,0.0,0.0,0.0,0.0,0.0,0.0,0.0,0.0,0.0,0.0,0.0,0.0,0.0,0.0,0.0,0.0,0.0,0.0,0.0,0.0,0.0,0.0,0.0,0.0,0.0,0.0,0.0,0.0,0.0,-1.9778,-2.0602,-2.1288,-2.1569,-2.1891,-2.2009,-2.1855,-2.1658,-2.1206,-2.0507,0.0,0.0,0.0,0.0,0.0,0.0,0.0,0.0,0.0,0.0,0.0,0.0,0.0,0.0,0.0,0.0,0.0,0.0,0.0,0.0,0.0,0.0,0.0,0.0,0.0,0.0,0.0,0.0,0.0,0.0,0.0,0.0,0.0,0.0,0.0,0.0,0.0,0.0,0.0,0.0,0.0,0.0,0.0,0.0,0.0,0.0,0.0,0.0,0.0,0.0,0.0,0.0,0.0,0.0,0.0,0.0,0.0,0.0,0.0,0.0,0.0,0.0,0.0,0.0,0.0,0.0,0.0,0.0,0.0,0.0,0.0,0.0,0.0,0.0,0.0,0.0,0.0,0.0,0.0,0.0,0.0,0.0,0.0,0.0,0.0,0.0,0.0,0.0,0.0,0.0,0.0,0.0,0.0,0.0,0.0,0.0,0.0,0.0,0.0,0.0,0.0,0.0,-1.97,-2.1166,-2.2004,-2.1458,-2.1993,-2.2207,-2.1757,-2.0734,-2.0123,0.0,0.0,0.0,0.0,0.0,0.0,0.0,0.0,0.0,0.0,0.0,0.0,0.0,0.0,0.0,0.0,0.0,0.0,0.0,0.0,0.0,0.0,0.0,0.0,0.0,0.0,0.0,0.0,0.0,0.0,0.0,0.0,0.0,0.0,0.0,0.0,0.0,0.0,0.0,0.0,0.0,0.0,0.0,0.0,0.0,0.0,0.0,0.0,0.0,0.0,0.0,0.0,0.0,0.0,0.0,0.0,0.0,0.0,0.0,0.0,0.0,0.0,0.0,0.0,0.0,0.0,0.0,0.0,0.0,0.0,0.0,0.0,0.0,0.0,0.0,0.0,0.0,0.0,0.0,0.0,0.0,0.0,0.0,0.0,0.0,0.0,0.0,0.0,0.0,0.0,0.0,0.0,0.0,0.0,0.0,0.0,0.0,0.0,0.0,0.0,0.0,0.0,0.0,-2.0148,-2.1236,-2.2073,-2.2303,-2.2273,-2.2197,-2.2057,-2.1202,-2.0499,-2.0135,0.0,0.0,0.0,0.0,0.0,0.0,0.0,0.0,0.0,0.0,0.0,0.0,0.0,0.0,0.0,0.0,0.0,0.0,0.0,0.0,0.0,0.0,0.0,0.0,0.0,0.0,0.0,0.0,0.0,0.0,0.0,0.0,0.0,0.0,0.0,0.0,0.0,0.0,0.0,0.0,0.0,0.0,0.0,0.0,0.0,0.0,0.0,0.0,0.0,0.0,0.0,0.0,0.0,0.0,0.0,0.0,0.0,0.0,0.0,0.0,0.0,0.0,0.0,0.0,0.0,0.0,0.0,0.0,0.0,0.0,0.0,0.0,0.0,0.0,0.0,0.0,0.0,0.0,0.0,0.0,0.0,0.0,0.0,0.0,0.0,0.0,0.0,0.0,0.0,0.0,0.0,0.0,0.0,0.0,0.0,0.0,0.0,0.0,0.0,0.0,0.0,0.0,-2.0343,-2.1468,-2.234,-2.2684,-2.251,-2.2311,-2.2115,-2.1249,-2.0484,-1.9954,0.0,0.0,0.0,0.0,0.0,0.0,0.0,0.0,0.0,0.0,0.0,0.0,0.0,0.0,0.0,0.0,0.0,0.0,0.0,0.0,0.0,0.0,0.0,0.0,0.0,0.0,0.0,0.0,0.0,0.0,0.0,0.0,0.0,0.0,0.0,0.0,0.0,0.0,0.0,0.0,0.0,0.0,0.0,0.0,0.0,0.0,0.0,0.0,0.0,0.0,0.0,0.0,0.0,0.0,0.0,0.0,0.0,0.0,0.0,0.0,0.0,0.0,0.0,0.0,0.0,0.0,0.0,0.0,0.0,0.0,0.0,0.0,0.0,0.0,0.0,0.0,0.0,0.0,0.0,0.0,0.0,0.0,0.0,0.0,0.0,0.0,0.0,0.0,0.0,0.0,0.0,0.0,0.0,0.0,0.0,0.0,0.0,0.0,0.0,0.0,0.0,0.0,-2.0423,-2.1801,-2.2765,-2.2811,-2.2777,-2.2547,-2.2009,-2.1066,-2.0221,-1.9693,0.0,0.0,0.0,0.0,0.0,0.0,0.0,0.0,0.0,0.0,0.0,0.0,0.0,0.0,0.0,0.0,0.0,0.0,0.0,0.0,0.0,0.0,0.0,0.0,0.0,0.0,0.0,0.0,0.0,0.0,0.0,0.0,0.0,0.0,0.0,0.0,0.0,0.0,0.0,0.0,0.0,0.0,0.0,0.0,0.0,0.0,0.0,0.0,0.0,0.0,0.0,0.0,0.0,0.0,0.0,0.0,0.0,0.0,0.0,0.0,-2.1225,-2.0496,0.0,0.0,0.0,0.0,0.0,0.0,0.0,0.0,0.0,0.0,0.0,0.0,0.0,0.0,0.0,0.0,0.0,0.0,0.0,0.0,0.0,0.0,0.0,0.0,0.0,0.0,0.0,0.0,0.0,0.0,0.0,0.0,0.0,0.0,0.0,0.0,0.0,0.0,0.0,0.0,-2.0971,-2.234,-2.3396,-2.3833,-2.3511,-2.304,-2.2559,-2.1627,-2.0525,-1.9366,-1.8475,0.0,0.0,0.0,0.0,0.0,0.0,0.0,0.0,0.0,0.0,0.0,0.0,0.0,0.0,0.0,0.0,0.0,0.0,0.0,0.0,0.0,0.0,0.0,0.0,0.0,0.0,0.0,0.0,0.0,0.0,0.0,0.0,0.0,0.0,0.0,0.0,0.0,0.0,0.0,0.0,0.0,0.0,0.0,0.0,0.0,0.0,0.0,0.0,0.0,0.0,0.0,0.0,0.0,0.0,0.0,0.0,0.0,0.0,0.0,-2.2765,-2.2062,0.0,0.0,0.0,0.0,0.0,0.0,0.0,0.0,0.0,0.0,0.0,0.0,0.0,0.0,0.0,0.0,0.0,0.0,0.0,0.0,0.0,0.0,0.0,0.0,0.0,0.0,0.0,0.0,0.0,0.0,0.0,0.0,0.0,0.0,0.0,0.0,0.0,0.0,0.0,0.0,-2.0893,-2.2057,-2.2936,-2.3158,-2.2699,-2.2303,-2.205,-2.1127,-2.0302,-1.966,-1.8729,0.0,0.0,0.0,0.0,0.0,0.0,0.0,0.0,0.0,0.0,0.0,0.0,0.0,0.0,0.0,0.0,0.0,0.0,0.0,0.0,0.0,0.0,0.0,0.0,0.0,0.0,0.0,0.0,0.0,0.0,0.0,0.0,0.0,0.0,0.0,0.0,0.0,0.0,0.0,0.0,0.0,0.0,0.0,0.0,0.0,0.0,0.0,0.0,0.0,0.0,0.0,0.0,0.0,-2.4976,-2.4916,-2.451,-2.502,-2.5287,-2.5241,-2.4428,-2.3942,-2.3638,-2.2613,0.0,0.0,0.0,0.0,0.0,0.0,0.0,0.0,0.0,0.0,0.0,0.0,0.0,0.0,0.0,0.0,0.0,0.0,0.0,0.0,0.0,0.0,-1.7811,-1.882,-1.9678,-1.9985,-1.8996,0.0,0.0,0.0,0.0,0.0,0.0,0.0,0.0,0.0,0.0,0.0,-2.0371,-2.1498,-2.2103,-2.1931,-2.1723,-2.1508,-2.1303,-2.0519,-1.9978,-1.9867,-1.8975,-1.7894,0.0,0.0,0.0,0.0,0.0,0.0,0.0,0.0,0.0,0.0,0.0,0.0,0.0,0.0,0.0,0.0,0.0,0.0,0.0,0.0,0.0,0.0,0.0,0.0,0.0,0.0,0.0,0.0,0.0,0.0,0.0,0.0,-2.3746,-2.4225,0.0,0.0,0.0,0.0,0.0,0.0,0.0,0.0,0.0,0.0,0.0,0.0,0.0,-2.5212,-2.5532,-2.5561,-2.5583,-2.5594,-2.5721,-2.5753,-2.5701,-2.6174,-2.6383,-2.6405,-2.6617,0.0,-2.4152,-2.3618,0.0,0.0,0.0,0.0,0.0,0.0,0.0,0.0,0.0,0.0,0.0,0.0,0.0,0.0,0.0,0.0,0.0,0.0,0.0,0.0,0.0,0.0,-1.9115,-1.9819,-2.0061,-2.014,-2.0197,-1.9708,-1.8865,-1.7713,-1.6979,-1.644,0.0,0.0,0.0,0.0,0.0,0.0,-1.9166,-2.0918,-2.191,-2.1286,-2.2146,-2.2396,-2.1371,-2.0883,-2.0132,-1.9052,-1.8026,-1.7278,-1.6854,-1.6128,0.0,0.0,0.0,0.0,0.0,0.0,0.0,0.0,0.0,0.0,0.0,0.0,0.0,0.0,0.0,0.0,0.0,0.0,0.0,0.0,0.0,0.0,0.0,0.0,0.0,0.0,0.0,0.0,0.0,-2.3078,-2.3988,-2.3977,-2.3981,-2.3679,0.0,0.0,0.0,0.0,0.0,0.0,0.0,0.0,0.0,-2.4809,-2.5031,-2.5348,-2.5802,-2.6109,-2.625,-2.625,-2.6526,-2.6708,-2.6698,-2.6894,-2.6987,-2.6987,-2.7161,-2.6629,-2.5539,-2.4729,-2.3467,-2.2022,0.0,0.0,0.0,0.0,-1.9052,-1.875,-1.836,-1.814,-1.8013,-1.7424,0.0,0.0,0.0,0.0,0.0,0.0,0.0,-1.7079,-1.7488,-1.7953,-1.8739,-2.0179,-2.0271,-2.0193,-2.0987,-2.0194,-1.8967,-1.7856,-1.7187,-1.6607,-1.6066,-1.6154,0.0,0.0,0.0,-1.8695,-1.9049,-2.0133,-2.0634,-1.9982,-2.0411,-2.0536,-2.0043,-1.959,-1.9259,-1.9036,-1.7952,-1.713,-1.6759,-1.6151,-1.5722,0.0,0.0,0.0,0.0,0.0,0.0,0.0,0.0,0.0,0.0,0.0,0.0,0.0,0.0,0.0,0.0,0.0,0.0,0.0,0.0,0.0,0.0,0.0,0.0,0.0,0.0,0.0,0.0,-2.3373,-2.4132,-2.3942,-2.4253,-2.4081,0.0,0.0,0.0,0.0,0.0,0.0,-2.5104,-2.5367,-2.552,-2.5564,-2.5689,-2.5906,-2.6227,-2.6615,-2.6791,-2.6801,-2.7143,-2.7309,-2.7309,-2.7309,-2.7309,-2.7309,-2.7309,-2.7065,-2.6584,-2.5408,-2.4148,-2.2853,-2.1889,-2.1102,-2.0404,-1.9871,-1.9444,-1.918,-1.9109,-1.8934,-1.8673,-1.8305,-1.7813,-1.7277,-1.6561,0.0,0.0,0.0,0.0,-1.6473,-1.7028,-1.7431,-1.8191,-1.9913,-1.9849,-1.9667,-2.0764,-1.987,-1.8708,-1.7948,-1.7329,-1.6746,-1.6066,-1.6198,0.0,-1.6947,-1.7723,-1.8361,-1.869,-1.934,-1.9512,-1.8812,-1.9033,-1.9152,-1.9002,-1.8593,-1.8513,-1.8964,-1.7852,-1.7076,-1.6765,-1.641,-1.5905,-1.5332,0.0,0.0,0.0,0.0,0.0,0.0,0.0,0.0,0.0,0.0,0.0,0.0,0.0,0.0,0.0,0.0,0.0,0.0,0.0,0.0,0.0,0.0,0.0,0.0,0.0,0.0,0.0,0.0,0.0,-2.4427,-2.4883,0.0,0.0,0.0,0.0,-2.4436,-2.4914,-2.5194,-2.5192,-2.6044,-2.6521,-2.6542,-2.6978,-2.7216,-2.7237,-2.7258,-2.7268,-2.7278,-2.7299,-2.7309,-2.7309,-2.7309,-2.7309,-2.7309,-2.7309,-2.7156,-2.6788,-2.5301,-2.4415,-2.3791,-2.2602,-2.1727,-2.1096,-2.0541,-2.0175,-1.9808,-1.8998,-1.8916,-1.913,-1.8773,-1.8219,-1.7561,-1.6897,-1.6593,0.0,0.0,-1.6683,-1.7241,-1.7273,-1.7602,-1.8091,-1.881,-1.8498,-1.8167,-1.8896,-1.843,-1.7927,-1.8029,-1.7537,-1.6862,-1.6198,0.0,-1.6055,-1.6142,-1.6846,-1.7366,-1.7383,-1.8641,-1.9146,-1.8155,-1.9125,-1.9638,-1.9042,-1.8623,-1.8418,-1.8457,-1.7491,-1.6994,-1.7171,-1.6722,-1.6549,-1.6713,-1.5173,0.0,0.0,0.0,0.0,0.0,0.0,0.0,0.0,0.0,0.0,0.0,0.0,0.0,0.0,0.0,0.0,0.0,0.0,0.0,0.0,0.0,0.0,0.0,0.0,0.0,0.0,0.0,0.0,-2.4921,-2.5637,0.0,-2.46,-2.5068,-2.5399,-2.5399,-2.5663,-2.5962,-2.6259,-2.6472,-2.654,-2.654,-2.6703,-2.6784,-2.6784,-2.6938,-2.7034,-2.7034,-2.7214,-2.7309,-2.7309,-2.7129,-2.6678,-2.6003,-2.5819,-2.5333,-2.4494,-2.3193,-2.299,-2.326,-2.1875,-2.0891,-2.0256,-2.0066,-1.9957,-1.9814,-1.9494,-1.9486,-1.9485,-1.8846,-1.8334,-1.7864,-1.7258,-1.7086,-1.7019,-1.6943,-1.7086,-1.7304,-1.7304,-1.7402,-1.7758,-1.864,-1.8032,-1.7481,-1.8346,-1.765,-1.6902,-1.699,-1.7286,-1.7317,-1.6836,-1.6946,-1.7025,-1.6796,-1.7225,-1.7541,-1.7541,-1.8022,-1.8135,-1.7571,-1.7888,-1.7993,-1.7563,-1.7381,-1.7298,-1.7298,-1.6546,-1.616,-1.6217,-1.5635,-1.5207,-1.507,-1.4463,-1.3934,0.0,0.0,0.0,0.0,0.0,0.0,0.0,0.0,0.0,0.0,0.0,0.0,0.0,0.0,0.0,0.0,0.0,0.0,0.0,0.0,0.0,0.0,0.0,0.0,0.0,-2.4609,-2.5283,-2.5283,-2.6074,-2.6151,-2.5061,-2.5634,-2.611,-2.611,-2.6221,-2.6503,-2.695,-2.6683,-2.6637,-2.6939,-2.6798,-2.6718,-2.6718,-2.6873,-2.6899,-2.6757,-2.6928,-2.7023,-2.7023,-2.6842,-2.6187,-2.5168,-2.4982,-2.4236,-2.3059,-2.1834,-2.1682,-2.2088,-2.0945,-2.0241,-1.9843,-1.9766,-1.9756,-1.9706,-1.9517,-1.9313,-1.9018,-1.8386,-1.8035,-1.7708,-1.7162,-1.7084,-1.7143,-1.704,-1.7004,-1.7004,-1.7004,-1.7004,-1.7134,-1.7811,-1.7334,-1.6884,-1.738,-1.692,-1.6382,-1.6235,-1.6875,-1.7324,-1.6926,-1.7249,-1.7441,-1.7088,-1.7466,-1.7786,-1.7661,-1.7785,-1.7783,-1.7391,-1.7291,-1.7125,-1.6887,-1.665,-1.6562,-1.6681,-1.6071,-1.572,-1.5712,-1.5118,-1.4649,-1.4299,-1.4151,-1.3854,-1.3341,0.0,0.0,0.0,0.0,0.0,0.0,0.0,0.0,0.0,0.0,0.0,0.0,0.0,0.0,0.0,0.0,0.0,0.0,0.0,0.0,0.0,0.0,0.0,-2.4391,-2.5091,-2.5518,-2.5528,-2.6125,-2.6345,-2.5866,-2.6275,-2.6536,-2.6536,-2.6536,-2.6728,-2.7091,-2.6719,-2.688,-2.7733,-2.7342,-2.7111,-2.7101,-2.7091,-2.688,-2.6496,-2.6496,-2.6496,-2.6496,-2.6448,-2.5839,-2.4845,-2.4786,-2.4029,-2.2691,-2.1271,-2.0578,-2.0289,-1.9987,-1.986,-1.981,-1.9645,-1.9559,-1.9509,-1.8969,-1.8357,-1.7765,-1.7395,-1.7286,-1.7208,-1.6587,-1.6661,-1.6844,-1.6529,-1.6441,-1.6441,-1.6441,-1.6441,-1.6441,-1.6441,-1.6433,-1.6345,-1.6009,-1.617,-1.6279,-1.5987,-1.6426,-1.6785,-1.6463,-1.6887,-1.7201,-1.6947,-1.7536,0.0,-1.753,-1.7951,-1.8139,-1.7711,-1.7372,-1.7202,-1.7178,-1.6553,-1.6333,-1.6617,-1.6071,-1.5728,-1.5682,-1.534,-1.4998,-1.4609,-1.4261,-1.4044,-1.3987,0.0,0.0,0.0,0.0,0.0,0.0,0.0,0.0,0.0,0.0,0.0,0.0,0.0,0.0,0.0,0.0,0.0,0.0,0.0,0.0,0.0,-2.4032,-2.4655,-2.4911,-2.5381,-2.5865,-2.6189,-2.6627,-2.687,-2.6739,-2.719,-2.7452,-2.7452,-2.7242,-2.7192,-2.7311,-2.7021,-2.697,-2.7206,-2.7097,-2.6891,-2.6586,-2.6814,-2.6684,-2.6197,-2.64,-2.6496,-2.6448,-2.5489,-2.4442,-2.3384,-2.2433,-2.1233,-1.9884,-1.9254,-1.8818,-1.8525,-1.8682,-1.8742,-1.875,-1.8691,-1.8679,-1.8629,-1.848,-1.8167,-1.7801,-1.7706,-1.7523,-1.725,-1.7113,-1.7128,-1.7179,-1.7091,-1.7062,-1.7062,-1.7062,-1.7062,-1.7062,-1.7062,-1.6887,-1.6741,-1.6661,-1.6521,-1.6389,-1.6265,-1.6426,-1.6521,-1.6426,-1.6558,-1.6682,-1.6881,-1.7067,-1.727,-1.7357,-1.7472,-1.7445,-1.7169,-1.7049,-1.6801,-1.6294,-1.6085,-1.5808,-1.5419,-1.504,-1.4854,-1.4808,-1.4524,-1.4381,-1.4538,-1.4193,-1.403,0.0,0.0,0.0,0.0,0.0,0.0,0.0,0.0,0.0,0.0,0.0,0.0,0.0,0.0,0.0,0.0,0.0,0.0,0.0,0.0,0.0,0.0,-2.4705,-2.5176,-2.5317,-2.566,-2.6074,-2.6513,-2.6705,-2.6884,-2.7062,-2.7311,-2.746,-2.746,-2.7307,-2.7335,-2.7523,-2.7212,-2.7178,-2.7539,-2.7383,-2.7168,-2.6934,-2.6466,-2.5996,-2.5524,-2.5087,-2.4845,-2.4786,-2.4038,-2.3085,-2.2038,-2.1234,-2.0169,-1.8957,-1.8496,-1.8189,-1.8013,0.0,0.0,0.0,0.0,-1.8101,-1.8101,-1.8101,-1.7882,-1.7611,-1.7611,-1.7479,-1.7279,-1.7279,-1.7279,-1.7279,-1.7279,-1.7279,-1.7279,-1.7279,-1.7279,-1.7279,-1.7279,-1.7186,-1.7018,-1.6925,-1.6749,-1.6573,-1.6441,-1.6309,0.0,-1.6177,-1.6331,-1.6477,-1.6668,-1.6697,-1.6815,-1.7084,-1.7128,-1.7113,-1.7062,-1.6983,-1.6756,-1.6338,-1.5943,0.0,0.0,0.0,-1.4511,-1.4511,-1.4328,0.0,0.0,0.0,0.0,0.0,0.0,0.0,0.0,-1.4833,-1.4651,0.0,0.0,0.0,0.0,0.0,0.0,0.0,0.0,0.0,0.0,0.0,0.0,0.0,0.0,0.0,0.0,-2.5033,-2.5352,-2.5752,-2.6025,-2.6319,-2.6656,-2.6605,-2.668,-2.7051,-2.7129,-2.7158,-2.7158,-2.7158,-2.7324,-2.7767,-2.7363,0.0,0.0,0.0,-2.7548,-2.7499,-2.5955,-2.5021,-2.4577,-2.3186,-2.2484,-2.2484,-2.2383,-2.1785,-2.0885,-2.0783,-2.0158,-1.9177,-1.8555,-1.8255,-1.8138,-1.7505,-1.7279,-1.7315,-1.7655,-1.7757,-1.7757,-1.7757,0.0,0.0,-1.7279,-1.7279,-1.7279,-1.7279,-1.7279,-1.7279,-1.7279,-1.7279,-1.7279,-1.7279,-1.7279,-1.7279,-1.7279,-1.7279,-1.7252,-1.7013,-1.6954,-1.6866,-1.658,-1.6228,-1.6023,-1.6023,-1.6184,-1.6316,-1.6316,-1.6389,-1.6521,-1.6807,-1.6873,-1.7005,-1.7245,-1.7055,0.0,-1.6903,-1.6074,-1.5644,-1.5906,-1.5109,-1.4673,-1.4673,-1.4709,-1.4816,-1.5053,-1.5345,-1.5679,-1.5972,-1.6235,-1.6433,-1.6441,-1.5267,-1.497,0.0,0.0,0.0,0.0,0.0,0.0,0.0,0.0,0.0,0.0,0.0,0.0,0.0,0.0,0.0,-2.4957,-2.5664,-2.6162,-2.625,-2.6603,-2.672,-2.6516,-2.7043,-2.7503,-2.7581,-2.7851,-2.8047,-2.8047,-2.8047,-2.8086,-2.8164,-2.8096,-2.8125,-2.8281,-2.7273,-2.6584,-2.6259,-2.4712,-2.3739,-2.3315,-2.2773,0.0,-2.2484,-2.1582,-2.1081,-2.0834,-1.9983,-1.9332,-1.8855,-1.8467,-1.7991,-1.7501,-1.733,-1.7279,-1.7286,-1.7352,-1.7421,-1.7421,-1.7421,-1.733,-1.7279,-1.7279,-1.7279,-1.7279,-1.7279,-1.7279,0.0,-1.7279,-1.7279,-1.7279,-1.7279,-1.7279,-1.7279,-1.7279,-1.7279,-1.7311,-1.7252,-1.7238,-1.7216,-1.7157,-1.6887,-1.6719,-1.6719,-1.6301,-1.6001,-1.6001,-1.6213,-1.6433,-1.6499,-1.6734,-1.6925,-1.6991,-1.7121,-1.7135,-1.6925,-1.6727,-1.6389,-1.5943,-1.5738,-1.5635,-1.5635,-1.587,-1.6074,-1.6089,-1.6155,-1.6265,-1.6279,-1.6382,-1.6551,-1.6793,-1.6279,-1.5935,0.0,0.0,0.0,0.0,0.0,0.0,0.0,0.0,0.0,0.0,0.0,-2.3841,-2.449,0.0,-2.5215,-2.5654,-2.6279,-2.6699,-2.6699,-2.707,-2.7266,-2.7051,-2.7454,-2.7796,-2.7959,-2.8164,-2.8291,-2.8291,-2.8291,-2.8291,-2.8291,-2.8291,-2.8291,-2.8291,-2.7133,-2.6372,-2.618,-2.395,-2.2674,-2.2493,-2.139,-2.0885,-2.0885,-2.0336,-2.0078,-2.0086,-1.9524,-1.9184,-1.8994,-1.8503,-1.7918,-1.7279,-1.7279,-1.7279,-1.7279,-1.7279,-1.7279,-1.7279,-1.7279,-1.7279,-1.7279,-1.7279,-1.7279,-1.7279,-1.7279,-1.7279,-1.7279,-1.7279,-1.7279,-1.7279,-1.7279,-1.7279,-1.7286,-1.7153,-1.7153,-1.7106,-1.6958,-1.7052,-1.7153,-1.7153,-1.7031,-1.6903,-1.6903,-1.6639,-1.633,-1.617,-1.614,-1.6199,-1.6389,-1.6382,-1.644,-1.6639,-1.6901,-1.7026,-1.691,-1.6903,-1.6697,-1.617,-1.614,-1.614,-1.614,-1.6331,-1.6411,-1.6411,-1.6411,-1.6411,-1.6411,-1.6057,-1.601,-1.6159,-1.5753,-1.6018,0.0,0.0,0.0,0.0,0.0,0.0,0.0,-2.3345,-2.3377,-2.4256,-2.4366,-2.4512,-2.5195,-2.5684,-2.6103,-2.6455,-2.6865,-2.7139,-2.7139,-2.7519,-2.7836,-2.7836,-2.7836,-2.792,-2.8262,-2.8291,-2.8291,-2.8291,-2.8291,-2.8291,-2.8291,-2.8291,-2.8184,-2.796,-2.6799,-2.6018,-2.5808,-2.3028,-2.1657,-2.1649,-2.0046,-1.9279,-1.9279,-1.9279,-1.9279,-1.9324,-1.9206,-1.9147,-1.9038,-1.8452,-1.786,-1.7279,-1.7279,-1.7286,-1.7239,-1.7286,-1.7279,-1.7279,-1.7279,-1.7286,-1.7239,-1.7239,-1.7239,-1.7239,-1.7239,-1.7286,-1.7279,-1.7279,-1.7279,-1.7286,-1.7239,-1.7239,-1.72,-1.6972,-1.6932,-1.6878,-1.6636,-1.6784,-1.6932,-1.6932,-1.6904,-1.6861,-1.6907,-1.6907,-1.6821,-1.647,-1.6213,-1.6162,-1.6389,-1.6155,-1.6096,-1.6389,-1.6646,-1.6807,-1.6807,-1.6807,-1.669,-1.6426,-1.6411,-1.6411,-1.6411,-1.6411,-1.6411,-1.6411,-1.6411,-1.6323,-1.619,-1.5658,-1.5335,-1.5262,-1.476,-1.5531,-2.2216,-2.2373,-2.2846,-2.3501,-2.3418,-2.3575,0.0,-2.4812,-2.4453,-2.5332,-2.583,-2.6133,-2.6221,-2.6582,-2.6885,-2.6934,-2.7314,-2.7598,-2.7598,-2.7959,-2.8223,-2.8223,-2.8223,-2.8242,-2.8291,-2.8291,-2.8291,-2.8291,-2.8291,-2.8291,-2.8291,-2.8291,-2.7799,-2.6744,-2.5507,-2.4403,-2.3424,-2.1421,-2.0394,-2.0387,-1.9632,-1.9279,-1.9279,-1.9279,-1.9279,-1.9257,-1.8972,-1.8679,-1.8379,-1.8021,-1.7655,-1.7279,-1.7279,-1.72,-1.7066,-1.7239,-1.7279,-1.7279,-1.7279,-1.72,-1.7026,-1.7026,-1.7026,-1.7026,-1.7026,-1.7153,-1.7279,-1.7279,-1.7279,-1.7239,-1.7066,-1.7026,-1.6979,-1.673,-1.6636,-1.6636,-1.6636,-1.6629,-1.6636,-1.6636,-1.6648,-1.672,-1.6969,-1.6969,-1.686,-1.6462,-1.6631,-1.6697,-1.6448,-1.6382,-1.6375,-1.6411,-1.6448,-1.6463,-1.6463,-1.6463,-1.6455,-1.6419,-1.6411,-1.6411,-1.6411,-1.6411,-1.6411,-1.6411,-1.6411,-1.6102,-1.5531,-1.5442,-1.5167,-1.4778,-1.409,-1.4505,-2.3403,-2.3609,-2.3791,-2.4062,-2.4209,-2.4509,-2.5185,-2.5059,-2.498,-2.5557,-2.6084,-2.6387,-2.6387,-2.6934,-2.7393,-2.7393,-2.7754,-2.8027,-2.8027,-2.8184,-2.8291,-2.8291,-2.8291,-2.8291,-2.8291,-2.8291,-2.8291,-2.8291,-2.8291,-2.8014,-2.7295,-2.7241,-2.7025,-2.6527,-2.4689,-2.3756,-2.3761,-2.1369,-2.0142,-1.9952,-1.9499,-1.9279,-1.9279,-1.9279,-1.9279,-1.9257,-1.8935,-1.8505,-1.8037,-1.7719,-1.7299,-1.6911,-1.6911,-1.6824,-1.6784,-1.7066,-1.7012,-1.6911,-1.6911,-1.6824,-1.6784,-1.6784,-1.6784,-1.6784,-1.6784,-1.6824,-1.6911,-1.6911,-1.6911,-1.6864,-1.6777,-1.6784,-1.6683,-1.6454,-1.6359,-1.6312,-1.6163,-1.6258,-1.6359,-1.6359,-1.6494,-1.6636,-1.673,-1.6784,-1.6692,-1.6561,-1.675,-1.6761,-1.6261,-1.6154,-1.6104,-1.6104,-1.6104,-1.6177,-1.6397,-1.6411,-1.6411,-1.6411,-1.6013,-1.5835,-1.5835,-1.5421,-1.5191,-1.5191,-1.5035,-1.4821,-1.452,-1.4059,-1.3716,-1.3519,-1.2817,-1.3056,-2.4072,-2.4248,-2.4297,-2.4531,-2.4834,-2.5145,-2.5225,-2.5254,-2.5352,-2.5625,-2.6084,-2.6426,-2.6543,-2.7168,-2.7757,-2.7875,-2.8096,-2.8291,-2.8291,-2.8291,-2.8252,-2.8135,-2.8125,-2.8125,-2.8125,-2.8223,-2.8291,-2.8291,-2.8291,-2.7906,-2.7025,-2.669,-2.6354,-2.6018,-2.403,-2.3078,-2.3318,-2.1254,-2.0077,-1.9815,-1.9485,-1.9279,-1.9279,-1.9279,-1.9228,-1.9118,-1.8796,-1.8324,-1.7717,-1.7396,-1.7037,-1.6588,-1.6588,-1.6541,-1.6494,-1.6697,-1.669,-1.6588,-1.6588,-1.6541,-1.6494,-1.6494,-1.6494,-1.6494,-1.6494,-1.6541,-1.6588,-1.6588,-1.6588,-1.6588,-1.6494,-1.6494,-1.64,-1.617,-1.6076,-1.6028,-1.5832,-1.5927,-1.6076,-1.6076,-1.6258,-1.64,-1.6494,-1.6494,-1.6522,-1.6606,-1.6736,-1.6667,-1.6292,-1.6156,-1.598,-1.5849,-1.5943,-1.6133,-1.6389,-1.6411,-1.6375,-1.625,-1.562,-1.5232,-1.5149,-1.4425,-1.4065,-1.4065,-1.3912,-1.368,-1.3367,-1.286,-1.2433,-1.2152,-1.1569,-1.1742,-2.3799,-2.3809,-2.4014,-2.4891,-2.5106,-2.5176,-2.5567,-2.5664,-2.5674,-2.5684,-2.6084,-2.6514,-2.6914,-2.7363,-2.7855,-2.8203,-2.8281,-2.8291,-2.8291,-2.8291,-2.8144,-2.7787,-2.7738,-2.7738,-2.7738,-2.8057,-2.8291,-2.8291,-2.8291,-2.8291,-2.8237,-2.7133,-2.5963,-2.4782,-2.3631,-2.2319,-2.0832,-2.0398,-2.0077,-1.9815,-1.9485,-1.9279,-1.9279,-1.9279,-1.9103,-1.8789,-1.846,-1.7991,-1.7382,-1.7122,-1.6838,-1.6588,-1.6588,-1.6447,-1.6224,-1.6224,-1.6359,-1.6588,-1.6588,-1.6454,-1.6224,-1.6224,-1.6224,-1.6224,-1.6224,-1.64,-1.6588,-1.6588,-1.6588,-1.6541,-1.6265,-1.6224,-1.6123,-1.5879,-1.5832,-1.5832,-1.5784,-1.5832,-1.5832,-1.5832,-1.5825,-1.5927,-1.6177,-1.6224,-1.632,-1.667,-1.6634,-1.6622,-1.6567,-1.6533,-1.6242,-1.567,-1.6089,-1.6404,-1.6411,-1.6411,-1.6243,-1.595,-1.5303,-1.4776,-1.4439,-1.3799,-1.3417,-1.3417,-1.3622,-1.3129,-1.1976,-1.218,-1.1821,-1.0829,-1.0703,-1.074,-2.4053,-2.4004,-2.3926,-2.4492,-2.4853,-2.5155,-2.5254,-2.5527,-2.5693,-2.5693,-2.6084,-2.6435,-2.6572,-2.7178,-2.7767,-2.7851,-2.8115,-2.8291,-2.8291,-2.8291,-2.8242,-2.8096,-2.8086,-2.8086,-2.8086,-2.7959,-2.7988,-2.8271,-2.8291,-2.796,-2.7133,-2.6744,-2.5963,-2.4718,-2.3575,-2.2529,-2.1573,-2.0664,-1.9967,-1.9492,-1.933,-1.9279,-1.9279,-1.9279,-1.9213,-1.9081,-1.8347,-1.7853,-1.7471,-1.6765,-1.6312,-1.6069,-1.6069,-1.6021,-1.5927,-1.5927,-1.5974,-1.6069,-1.6069,-1.6021,-1.5927,-1.5927,-1.5927,-1.5927,-1.5927,-1.6021,-1.6069,-1.6069,-1.6069,-1.6069,-1.5974,-1.5927,-1.5927,-1.5825,-1.5784,-1.5784,-1.5784,-1.5784,-1.5784,-1.5784,-1.5784,-1.5832,-1.5927,-1.5927,-1.6027,-1.6378,-1.6435,-1.6361,-1.6283,-1.6104,-1.5609,-1.4696,-1.4781,-1.4744,-1.4372,-1.4821,-1.501,-1.4701,-1.4199,-1.3621,-1.3046,-1.2019,-1.1481,-1.1481,-1.1554,-1.1364,-1.0959,-1.1187,-1.1147,-1.0805,-1.0726,-1.0757,-2.4082,-2.3877,-2.3701,-2.4277,-2.4629,-2.4873,-2.5077,-2.541,-2.5693,-2.5693,-2.5967,-2.6201,-2.6357,-2.6836,-2.7366,-2.7669,-2.7891,-2.8125,-2.8271,-2.8291,-2.8232,-2.8086,-2.8066,-2.8066,-2.8066,-2.7822,-2.7894,-2.8262,-2.8291,-2.796,-2.7187,-2.6636,-2.5799,-2.4616,-2.3342,-2.2182,-2.107,-2.0384,-1.9798,-1.9279,-1.9279,-1.9279,-1.9279,-1.9279,-1.9161,-1.892,-1.8196,-1.7655,-1.7218,-1.6525,-1.6028,-1.5784,-1.5784,-1.5784,-1.5784,-1.5784,-1.5784,-1.5784,-1.5784,-1.5784,-1.5784,-1.5784,-1.5784,-1.5784,-1.5784,-1.5784,-1.5784,-1.5784,-1.5784,-1.5784,-1.5784,-1.5784,-1.5784,-1.5784,-1.5784,-1.5784,-1.5784,-1.5784,-1.5784,-1.5784,-1.5784,-1.5784,-1.5784,-1.5957,-1.6172,-1.6259,-1.6502,-1.648,-1.6052,-1.6019,-1.5551,-1.4259,-1.431,-1.413,-1.3425,-1.3835,-1.4028,-1.3713,-1.3204,-1.2619,-1.2038,-1.1027,-1.0519,-1.0519,-1.0552,-1.0543,-1.036,-1.0562,-1.0603,-1.0485,-1.0508,-1.0566,-2.3867,-2.3457,-2.3296,-2.415,-2.4365,-2.4502,-2.4941,-2.5381,-2.5664,-2.5684,-2.5693,-2.581,-2.625,-2.6357,-2.666,-2.7523,-2.7689,-2.7812,-2.8232,-2.8291,-2.8144,-2.7796,-2.7748,-2.7748,-2.7748,-2.7748,-2.7861,-2.8262,-2.8291,-2.8281,-2.8262,-2.6933,-2.559,-2.428,-2.2861,-2.1226,-1.9387,-1.9625,-1.9586,-1.9279,-1.9272,-1.9272,-1.9279,-1.9279,-1.8956,-1.8404,-1.8017,-1.7408,-1.6676,-1.6307,-1.6028,-1.5784,-1.5784,-1.5784,-1.5784,-1.5784,-1.5784,-1.5784,-1.5784,-1.5784,-1.5784,-1.5784,-1.5784,-1.5784,-1.5784,-1.5784,-1.5784,-1.5784,-1.5784,-1.5784,-1.5784,-1.5784,-1.5784,-1.5784,-1.5784,-1.5784,-1.5784,-1.5784,-1.5784,-1.5784,-1.5784,-1.5784,-1.5784,-1.6251,-1.6494,-1.6264,-1.6673,-1.6733,-1.5883,-1.6257,-1.5963,-1.4253,-1.4514,-1.4411,-1.344,-1.3392,-1.3242,-1.2905,-1.2346,-1.1833,-1.1477,-1.0825,-1.0459,-1.0459,-1.066,-1.0523,-1.0053,-1.0276,-1.0211,-0.9888,-1.0118,-1.0204,-2.3286,-2.3179,-2.3149,-2.3364,-2.3711,-2.4062,-2.4482,-2.4922,-2.5332,-2.5625,-2.5693,-2.5615,-2.5439,-2.5947,-2.6455,-2.668,-2.7297,-2.7812,-2.8232,-2.8291,-2.8252,-2.8144,-2.8135,-2.8135,-2.8135,-2.8135,-2.8174,-2.8281,-2.8291,-2.8154,-2.7894,-2.7338,-2.5931,-2.3522,-2.2893,-2.1456,-1.9064,-1.9088,-1.8941,-1.8632,-1.8862,-1.8862,-1.8632,-1.8632,-1.8544,-1.8334,-1.7599,-1.7179,-1.692,-1.619,-1.5879,-1.5784,-1.5784,-1.5784,-1.5784,-1.5784,-1.5784,-1.5784,-1.5784,-1.5784,-1.5784,-1.5784,-1.5784,-1.5784,-1.5784,-1.5784,-1.5784,-1.5784,-1.5784,-1.5784,-1.5784,-1.5784,-1.5784,-1.5784,-1.5784,-1.5784,-1.5784,-1.5784,-1.5784,-1.5784,-1.5784,-1.5784,-1.5784,-1.5447,-1.5214,-1.514,-1.4877,-1.486,-1.5176,-1.5214,-1.4433,-1.2324,-1.2157,-1.1901,-1.1228,-1.1755,-1.1973,-1.1691,-1.1681,-1.1414,-1.0695,-1.0118,-0.9826,-0.9826,-0.9877,-0.9853,-0.9706,-0.9801,-0.9813,-0.9888,-0.9933,-1.0082,-2.3149,-2.3091,-2.3091,-2.3091,-2.3603,-2.4082,-2.4131,-2.4619,-2.5088,-2.5146,-2.5109,-2.5078,-2.4824,-2.5342,-2.5937,-2.6328,-2.6953,-2.7598,-2.8203,-2.8291,-2.8291,-2.8291,-2.8184,-2.8184,-2.8291,-2.7912,-2.7699,-2.7849,-2.7965,-2.791,-2.7519,-2.7054,-2.5598,-2.2863,-2.2564,-2.1211,-1.8688,-1.858,-1.8489,-1.8422,-1.8593,-1.8586,-1.8422,-1.8422,-1.8318,-1.8185,-1.7431,-1.7021,-1.6866,-1.612,-1.5784,-1.5784,-1.5784,-1.5784,-1.5784,-1.5784,-1.5784,-1.5784,-1.5784,-1.5493,-1.5207,-1.5642,-1.5784,-1.5784,-1.5784,-1.5784,-1.5784,-1.5784,-1.5784,-1.5784,-1.5784,-1.5784,-1.5784,-1.5784,-1.5784,-1.5784,-1.5784,-1.5784,-1.5784,-1.5784,-1.5784,-1.5642,-1.5207,-1.4905,-1.4536,-1.4086,-1.3958,-1.3854,-1.377,-1.4043,-1.3521,-1.1606,-1.1333,-1.0933,-1.0126,-1.0453,-1.065,-1.0507,-1.065,-1.0502,-1.0068,-0.9776,-0.9579,-0.9579,-0.9579,-0.9579,-0.9579,-0.9579,-0.9713,-0.9884,-0.9884,-0.9941,-2.3198,-2.3091,-2.3091,-2.3091,-2.3695,-2.4238,-2.3877,-2.4414,-2.4873,-2.4492,-2.4414,-2.4394,-2.4346,-2.4736,-2.5332,-2.6172,-2.6699,-2.7314,-2.8174,-2.8291,-2.8291,-2.8291,-2.8067,-2.8014,-2.8237,-2.7381,-2.6921,-2.7237,-2.734,-2.7334,-2.7064,-2.645,-2.4835,-2.2193,-2.1594,-2.0361,-1.8318,-1.8122,-1.8122,-1.8265,-1.8318,-1.8318,-1.8265,-1.8265,-1.8167,-1.7937,-1.7371,-1.6948,-1.666,-1.6112,-1.5818,-1.5784,-1.5784,-1.5784,-1.5784,-1.5784,-1.5784,-1.5784,-1.5784,-1.5159,-1.4442,-1.5302,-1.5588,-1.5588,-1.5588,-1.5689,-1.5784,-1.5784,-1.5784,-1.5784,-1.5784,-1.5784,-1.5784,-1.5784,-1.5784,-1.5784,-1.5784,-1.5784,-1.5784,-1.5784,-1.5689,-1.5302,-1.4442,-1.4236,-1.3935,-1.3089,-1.316,-1.3027,-1.2035,-1.2785,-1.291,-1.142,-1.118,-1.0734,-0.969,-0.9579,-0.9579,-0.9579,-0.9579,-0.9591,-0.9661,-0.9591,-0.9591,-0.9661,-0.964,-0.9579,-0.9579,-0.9579,-0.9713,-0.9884,-0.986,-0.9864,-2.311,-2.3091,-2.3091,-2.3091,-2.3525,-2.3887,-2.3809,-2.417,-2.4502,-2.4434,-2.4414,-2.4307,-2.3965,-2.4541,-2.5244,-2.5713,-2.6504,-2.7314,-2.8174,-2.8291,-2.8291,-2.8291,-2.8067,-2.7906,-2.796,-2.7265,-2.6825,-2.6869,-2.6326,-2.5936,-2.5885,-2.5556,-2.4056,-2.1222,-1.9345,-1.8156,-1.774,-1.7911,-1.7911,-1.774,-1.7957,-1.7957,-1.774,-1.774,-1.7687,-1.7674,-1.7324,-1.6985,-1.668,-1.6339,-1.6052,-1.5784,-1.5784,-1.5784,-1.5784,-1.5784,-1.5784,-1.5784,-1.5784,-1.5159,-1.4346,-1.449,-1.4586,-1.4586,-1.4586,-1.5159,-1.5784,-1.5784,-1.5784,-1.5784,-1.5784,-1.5784,-1.5784,-1.5784,-1.5784,-1.5784,-1.5784,-1.5784,-1.5784,-1.5784,-1.5112,-1.449,-1.4346,-1.291,-1.1766,-1.1565,-1.0988,-1.0536,-1.0335,-1.1438,-1.1723,-1.053,-1.01,-0.9805,-0.9632,-0.9579,-0.9579,-0.9579,-0.9579,-0.9693,-0.9835,-0.9701,-0.9693,-0.9839,-0.9701,-0.9579,-0.9579,-0.9579,-0.9713,-0.988,-0.9738,-0.9746,-2.3091,-2.3091,-2.3149,-2.3418,-2.3799,-2.4062,-2.3838,-2.4111,-2.4287,-2.3793,-2.3705,-2.3647,-2.3486,-2.3975,-2.4619,-2.5283,-2.5928,-2.6728,-2.7812,-2.7969,-2.8047,-2.8262,-2.8067,-2.7906,-2.7906,-2.6916,-2.6295,-2.6295,-2.4844,-2.4418,-2.5346,-2.3862,-2.2333,-2.0936,-1.8767,-1.7582,-1.7582,-1.7747,-1.7747,-1.7582,-1.7747,-1.7747,-1.7582,-1.7582,-1.7582,-1.7555,-1.7114,-1.684,-1.6673,-1.6226,-1.5959,-1.5784,-1.5784,-1.5784,-1.5784,-1.5784,-1.5784,-1.573,-1.5207,-1.4334,-1.3366,-1.2877,-1.3022,-1.3463,-1.3463,-1.419,-1.5016,-1.5016,-1.5397,-1.5784,-1.5784,-1.5784,-1.5784,-1.5784,-1.5784,-1.5784,-1.5784,-1.5784,-1.5784,-1.5784,-1.4968,-1.41,-1.3559,-1.2198,-1.1028,-1.0449,-1.0117,-0.9884,-0.9884,-1.0463,-1.0625,-1.0121,-0.9864,-0.9726,-0.9587,-0.9579,-0.9579,-0.9579,-0.9579,-0.9665,-0.9746,-0.9673,-0.9665,-0.975,-0.9669,-0.9579,-0.9579,-0.9579,-0.9669,-0.975,-0.9665,-0.9673,-2.312,-2.3091,-2.3198,-2.3682,-2.4102,-2.4307,-2.3887,-2.4111,-2.417,-2.3266,-2.3091,-2.3091,-2.3091,-2.3496,-2.4072,-2.4979,-2.5449,-2.6191,-2.748,-2.7718,-2.7875,-2.8242,-2.8023,-2.7761,-2.7674,-2.6554,-2.5687,-2.5243,-2.3321,-2.2908,-2.4542,-2.2002,-2.0672,-2.0885,-1.8767,-1.7582,-1.7582,-1.7582,-1.7582,-1.7582,-1.7582,-1.7582,-1.7582,-1.7582,-1.7582,-1.7555,-1.7094,-1.682,-1.6667,-1.6206,-1.5945,-1.5784,-1.5784,-1.5784,-1.5784,-1.5784,-1.5784,-1.5642,-1.4634,-1.3613,-1.2533,-1.1512,-1.1707,-1.2387,-1.2387,-1.3125,-1.3956,-1.3956,-1.4675,-1.5493,-1.5493,-1.5635,-1.5784,-1.5784,-1.5635,-1.5493,-1.5493,-1.5296,-1.5146,-1.5146,-1.4334,-1.3366,-1.2533,-1.1517,-1.0547,-0.9723,-0.9742,-0.9827,-0.9827,-0.9827,-0.9827,-0.9827,-0.9827,-0.9774,-0.9591,-0.9579,-0.9579,-0.9579,-0.9579,-0.9595,-0.9681,-0.9648,-0.9644,-0.9681,-0.9599,-0.9579,-0.9579,-0.9579,-0.9579,-0.9579,-0.9579,-0.9579,-2.3198,-2.3091,-2.3198,-2.3682,-2.4102,-2.4307,-2.3887,-2.4111,-2.417,-2.3266,-2.3091,-2.3091,-2.3091,-2.3496,-2.4072,-2.4979,-2.5449,-2.6191,-2.748,-2.7718,-2.7875,-2.8242,-2.7809,-2.728,-2.6911,-2.6321,-2.5267,-2.3496,-2.1923,-2.1564,-2.2679,-2.0585,-1.9849,-2.0885,-1.8767,-1.7582,-1.7582,-1.7582,-1.7582,-1.7582,-1.7582,-1.7582,-1.7582,-1.7582,-1.7582,-1.7582,-1.7522,-1.7201,-1.67,-1.6647,-1.6313,-1.5784,-1.5784,-1.5784,-1.5784,-1.5784,-1.5784,-1.5642,-1.4634,-1.3613,-1.2533,-1.1512,-1.1268,-1.1317,-1.1317,-1.2047,-1.2829,-1.2829,-1.3613,-1.4442,-1.4442,-1.5112,-1.5784,-1.5784,-1.5112,-1.4442,-1.4442,-1.3655,-1.2969,-1.2969,-1.2193,-1.1463,-1.1365,-1.0449,-0.9723,-0.9628,-0.964,-0.9652,-0.9652,-0.9652,-0.9652,-0.9652,-0.9652,-0.9644,-0.9579,-0.9579,-0.9579,-0.9579,-0.9579,-0.9697,-0.9855,-0.9709,-0.9701,-0.986,-0.9705,-0.9579,-0.9579,-0.9579,-0.9579,-0.9579,-0.9579,-0.9579,-2.3506,-2.3525,-2.3633,-2.4062,-2.4492,-2.4697,-2.4268,-2.4297,-2.417,-2.3266,-2.3091,-2.3091,-2.3091,-2.3237,-2.3592,-2.4299,-2.473,-2.5352,-2.6507,-2.6793,-2.7097,-2.7602,-2.7415,-2.6861,-2.5736,-2.5791,-2.4724,-2.1973,-2.0596,-2.0055,-2.0511,-1.9694,-1.9435,-1.9849,-1.8408,-1.7582,-1.7582,-1.7582,-1.7582,-1.7582,-1.7582,-1.7582,-1.7582,-1.7582,-1.7582,-1.7569,-1.7454,-1.7088,-1.6693,-1.652,-1.6199,-1.5784,-1.5784,-1.5784,-1.5784,-1.5784,-1.5784,-1.554,-1.3896,-1.3071,-1.2441,-1.0792,-1.0256,-1.0256,-1.0256,-1.0984,-1.1804,-1.1804,-1.3022,-1.4298,-1.4298,-1.4586,-1.5064,-1.5642,-1.4526,-1.3511,-1.4148,-1.3463,-1.2678,-1.2678,-1.1901,-1.1219,-1.1219,-1.0306,-0.9579,-0.9579,-0.9579,-0.9579,-0.9579,-0.9579,-0.9579,-0.9579,-0.9579,-0.9579,-0.9579,-0.9579,-0.9579,-0.9579,-0.9579,-0.9657,-0.9726,-0.9665,-0.9661,-0.973,-0.9661,-0.9579,-0.9579,-0.9579,-0.9579,-0.9579,-0.9579,-0.9579,-2.374,-2.3887,-2.4043,-2.4346,-2.4648,-2.4795,-2.4492,-2.4316,-2.4023,-2.3247,-2.3091,-2.3091,-2.3091,-2.3091,-2.3246,-2.3736,-2.4152,-2.473,-2.5671,-2.615,-2.66,-2.7104,-2.7078,-2.6499,-2.5162,-2.4645,-2.3289,-2.075,-1.9442,-1.8715,-1.8715,-1.8715,-1.8864,-1.9176,-1.8146,-1.7582,-1.7582,-1.7582,-1.7582,-1.7582,-1.7582,-1.7582,-1.7582,-1.7582,-1.7582,-1.7569,-1.742,-1.7159,-1.6814,-1.652,-1.6226,-1.5952,-1.5865,-1.5784,-1.5784,-1.5784,-1.5784,-1.554,-1.38,-1.2974,-1.2387,-1.0645,-0.9871,-0.9579,-0.9579,-1.0113,-1.0739,-1.0739,-1.2198,-1.3902,-1.4202,-1.4298,-1.449,-1.5207,-1.3794,-1.2441,-1.3221,-1.2538,-1.176,-1.176,-1.1224,-1.0739,-1.0739,-1.0109,-0.9579,-0.9579,-0.9579,-0.9579,-0.9579,-0.9579,-0.9579,-0.9579,-0.9579,-0.9579,-0.9579,-0.9579,-0.9579,-0.9579,-0.9579,-0.9579,-0.9579,-0.9579,-0.9579,-0.9579,-0.9579,-0.9579,-0.9579,-0.9579,-0.9579,-0.9579,-0.9579,-0.9579,-2.3906,-2.4092,-2.4414,-2.4414,-2.4424,-2.4424,-2.4414,-2.4092,-2.3672,-2.3188,-2.3091,-2.3091,-2.3091,-2.3091,-2.3149,-2.3352,-2.3958,-2.4623,-2.5295,-2.6005,-2.6543,-2.6973,-2.6756,-2.6337,-2.5664,-2.2791,-2.0615,-1.9879,-1.8471,-1.7635,-1.7635,-1.7635,-1.8094,-1.9176,-1.8146,-1.7582,-1.7582,-1.7582,-1.7582,-1.7582,-1.7582,-1.7582,-1.7582,-1.7582,-1.7582,-1.7582,-1.7582,-1.7467,-1.7172,-1.682,-1.6526,-1.6239,-1.5945,-1.5784,-1.5784,-1.5784,-1.5784,-1.5635,-1.4634,-1.3613,-1.2533,-1.1512,-1.0449,-0.9579,-0.9579,-0.9628,-0.9628,-0.9628,-1.113,-1.2974,-1.4004,-1.4298,-1.4298,-1.4298,-1.2732,-1.1224,-1.1219,-1.04,-0.9628,-0.9628,-0.9628,-0.9628,-0.9628,-0.9628,-0.9579,-0.9579,-0.9579,-0.9579,-0.9579,-0.9579,-0.9579,-0.9579,-0.9579,-0.9579,-0.9579,-0.9579,-0.9579,-0.9579,-0.9579,-0.9579,-0.9579,-0.9579,-0.9579,-0.9579,-0.9579,-0.9579,-0.9579,-0.9579,-0.9579,-0.9579,-0.9579,-0.9579,-2.3828,-2.4092,-2.4346,-2.4062,-2.4209,-2.4346,-2.4053,-2.3887,-2.3662,-2.3188,-2.3091,-2.3091,-2.3091,-2.3091,-2.3202,-2.3526,-2.3921,-2.4333,-2.4955,-2.549,-2.5544,-2.4946,-2.3159,-2.2171,-2.2756,-2.0298,-1.8862,-1.9367,-1.8254,-1.7582,-1.7582,-1.7582,-1.7733,-1.8094,-1.7786,-1.7582,-1.7582,-1.7582,-1.7582,-1.7582,-1.7582,-1.7582,-1.7582,-1.7582,-1.7582,-1.7582,-1.7582,-1.7467,-1.7179,-1.6827,-1.6533,-1.6295,-1.5945,-1.5784,-1.5784,-1.5784,-1.5784,-1.5642,-1.4634,-1.3613,-1.2533,-1.1512,-1.0449,-0.9579,-0.9579,-0.9579,-0.992,-1.1326,-1.2198,-1.3119,-1.4867,-1.428,-1.3366,-1.4148,-1.2155,-1.0306,-1.1028,-1.035,-0.9579,-0.9579,-0.9579,-0.9579,-0.9579,-0.9579,-0.9579,-0.9579,-0.9579,-0.9579,-0.9579,-0.9579,-0.9579,-0.9579,-0.9579,-0.9579,-0.9579,-0.9579,-0.9579,-0.9579,-0.9579,-0.9579,-0.9579,-0.9579,-0.9579,-0.9579,-0.9579,-0.9579,-0.9579,-0.9579,-0.9579,-0.9579,-0.9579,-0.9579,-2.3506,-2.3975,-2.4316,-2.3896,-2.3984,-2.4111,-2.3848,-2.3662,-2.3467,-2.3149,-2.3091,-2.3091,-2.3091,-2.3091,-2.3144,-2.3334,-2.3704,-2.4077,-2.443,-2.5034,-2.5075,-2.405,-2.1786,-2.0458,-2.0771,-1.924,-1.8304,-1.8558,-1.7996,-1.7582,-1.7582,-1.7582,-1.7582,-1.7582,-1.7582,-1.7582,-1.7582,-1.7582,-1.7582,-1.7582,-1.7582,-1.7582,-1.7582,-1.7582,-1.7582,-1.7582,-1.7582,-1.7467,0.0,-1.6827,-1.6533,-1.6295,-1.5945,-1.5784,-1.5784,-1.5784,-1.5784,-1.573,-1.5064,-1.3896,-1.2587,-1.195,-1.0788,-0.9579,-0.9579,-0.9579,-0.9871,-1.1179,-1.1809,-1.2436,-1.374,-1.3113,-1.229,-1.2974,-1.1326,-0.9772,-1.0449,-1.006,-0.9579,-0.9579,-0.9579,-0.9579,-0.9579,-0.9579,-0.9579,-0.9579,-0.9579,-0.9579,-0.9579,-0.9579,-0.9579,-0.9579,-0.9579,-0.9579,-0.9579,-0.9579,-0.9579,-0.9579,-0.9579,-0.9579,-0.9579,-0.9579,-0.9579,-0.9579,-0.9579,-0.9579,-0.9579,-0.9579,-0.9579,-0.9579,-0.9579,-0.9579,0.0,-2.3643,-2.418,-2.376,-2.3672,-2.3691,-2.3662,-2.3369,0.0,-2.3013,-2.3033,-2.3062,-2.3091,-2.3101,-2.3033,-2.288,-2.3489,-2.3914,-2.3766,-2.4547,-2.4836,-2.3836,-2.2112,-2.0613,-1.9576,-1.9228,-1.8662,-1.7687,-1.7582,-1.7582,-1.7582,-1.7582,-1.7582,-1.7582,-1.7582,-1.7582,-1.7582,-1.7582,-1.7582,-1.7582,-1.7582,-1.7582,-1.7582,-1.7562,-1.7562,-1.7582,-1.7535,-1.7434,-1.7172,-1.6807,-1.6513,-1.6295,-1.5945,-1.5784,-1.5784,-1.5784,-1.5784,-1.5784,-1.5784,-1.4472,-1.278,-1.2635,-1.1228,-0.9579,-0.9579,-0.9579,-0.9628,-0.9673,-1.0449,-1.1224,-1.1268,-1.1268,-1.1219,-1.1219,-1.04,-0.9579,-0.9579,-0.9579,-0.9579,-0.9579,-0.9579,-0.9579,-0.9579,-0.9579,-0.9579,-0.9579,-0.9579,-0.9579,-0.9579,-0.9579,-0.9579,-0.9579,-0.9579,-0.9579,-0.9579,-0.9579,-0.9579,-0.9579,-0.9579,-0.9579,-0.9579,-0.9579,-0.9579,-0.9579,-0.9579,-0.9579,-0.9579,-0.9579,-0.9579,-0.9579,-0.9579,-0.9579,-2.1619,0.0,-2.2861,-2.2441,-2.2578,-2.2725,0.0,-2.25,-2.2568,-2.2246,-2.2441,-2.2764,-2.3096,-2.3023,-2.3005,-2.3421,-2.3466,-2.357,-2.3841,-2.2941,-2.2222,-2.2092,-1.9941,-1.8356,-1.8094,-1.7996,-1.7891,-1.7635,-1.7582,-1.7582,-1.7582,-1.7582,-1.7582,-1.7582,-1.7582,-1.7582,-1.7582,-1.7582,-1.7582,-1.7582,-1.7582,-1.7582,-1.7575,-1.7407,-1.7427,-1.7555,-1.7108,-1.7001,-1.7159,-1.6643,-1.6382,-1.6295,-1.5945,-1.5784,-1.5784,-1.5784,-1.5784,-1.5784,-1.5784,-1.4962,-1.3661,-1.2047,-1.0694,-0.9579,-0.9579,-0.9579,-0.9772,-1.0592,-1.1028,-1.1365,-1.2145,-1.1755,-1.1219,-1.1219,-1.04,-0.9579,-0.9579,-0.9579,-0.9579,-0.9579,-0.9579,-0.9579,-0.9579,-0.9579,-0.9579,-0.9579,-0.9579,-0.9579,-0.9579,-0.9579,-0.9579,-0.9579,-0.9579,-0.9579,-0.9579,-0.9579,-0.9579,-0.9579,-0.9579,-0.9579,-0.9579,-0.9579,-0.9579,-0.9579,-0.9579,-0.9579,-0.9579,-0.9579,-0.9579,-0.9579,-0.9579,-0.9579,-2.0928,-2.1846,-2.2754,-2.2519,-2.2637,-2.2754,-2.2572,-2.2344,-2.2158,-2.1934,-2.2217,-2.2588,-2.2822,-2.3008,-2.3182,-2.3505,-2.3148,-2.3015,-2.3453,-2.1667,-2.0635,-2.1406,-1.9163,-1.7582,-1.7582,-1.7582,-1.7582,-1.7582,-1.7582,-1.7582,-1.7582,-1.7582,-1.7582,-1.7582,-1.7582,-1.7582,-1.7582,-1.7582,-1.7582,-1.7582,-1.7582,-1.7582,-1.7569,-1.7333,-1.7286,-1.7414,-1.6901,-1.672,-1.677,-1.6455,-1.6192,-1.6052,-1.5892,-1.5784,-1.5784,-1.5784,-1.5784,-1.5784,-1.5784,-1.4813,-1.3318,-1.1712,-1.0449,-0.9579,-0.9579,-0.9965,-1.035,-1.0449,-1.0837,-1.1219,-1.1277,-1.0886,-1.0449,-1.0449,-1.0015,-0.9579,-0.9579,-0.9579,-0.9579,-0.9579,-0.9579,-0.9579,-0.9579,-0.9579,-0.9579,-0.9579,-0.9579,-0.9579,-0.9579,-0.9579,-0.9579,-0.9579,-0.9579,-0.9579,-0.9579,-0.9579,-0.9579,-0.9579,-0.9579,-0.9579,-0.9579,-0.9579,-0.9579,-0.9579,-0.9579,-0.9579,-0.9579,-0.9579,-0.9579,-0.9579,-0.9579,-0.9579,-2.0772,-2.1975,-2.3105,-2.2857,-2.3008,-2.3178,-2.3041,-2.2494,-2.1963,-2.1894,-2.2217,-2.2516,-2.2643,-2.3026,-2.3367,-2.3455,-2.2777,-2.2382,-2.2732,-2.0698,-1.9688,-2.1013,-1.9029,-1.7582,-1.7582,-1.7582,-1.7582,-1.7582,-1.7582,-1.7582,-1.7582,-1.7582,-1.7582,-1.7582,-1.7582,-1.7562,-1.7515,-1.7562,-1.7582,-1.7582,-1.7542,-1.7515,-1.7508,-1.7219,-1.7092,-1.7112,-1.672,-1.646,-1.6321,-1.6226,-1.6059,-1.5784,-1.5784,-1.5784,-1.5784,-1.5784,-1.5784,-1.5784,-1.5784,-1.4567,-1.278,-1.195,-1.0837,-0.9871,-1.0019,-1.069,-1.1224,-1.0355,-1.0645,-1.093,-0.9867,-0.9579,-0.9579,-0.9579,-0.9579,-0.9579,-0.9579,-0.9579,-0.9579,-0.9579,-0.9579,-0.9579,-0.9579,-0.9579,-0.9579,-0.9579,-0.9579,-0.9579,-0.9579,-0.9579,-0.9579,-0.9579,-0.9579,-0.9579,-0.9579,-0.9579,-0.9579,-0.9579,-0.9579,-0.9579,-0.9579,-0.9579,-0.9579,-0.9579,-0.9579,-0.9579,-0.9579,-0.9579,-0.9579,-0.9579,-0.9579,-0.9579,-2.1515,-2.2402,-2.2838,-2.1756,-2.2353,-2.3012,-2.2288,-2.2256,-2.2314,-2.1963,-2.2217,-2.2648,-2.3181,-2.3143,-2.3238,-2.372,-2.2752,-2.1793,-2.131,-2.0086,-1.9302,-1.9502,-1.8384,-1.7582,-1.7582,-1.7582,-1.7582,-1.7582,-1.7582,-1.7582,-1.7582,-1.7582,-1.7582,-1.7582,-1.7582,-1.7514,-1.7266,-1.7514,-1.7582,-1.7582,-1.7387,-1.7266,-1.7246,-1.6703,-1.654,-1.674,-1.6199,-1.6079,-1.6301,-1.6005,-1.5872,-1.5784,-1.5784,-1.5784,-1.5784,-1.5784,-1.5784,-1.5784,-1.5784,-1.501,-1.4052,-1.3854,-1.2538,-1.1126,-1.1955,-1.2339,-1.2436,-1.229,-1.1707,-1.093,-0.9867,-0.9579,-0.9579,-0.9579,-0.9579,-0.9579,-0.9579,-0.9579,-0.9579,-0.9579,-0.9579,-0.9579,-0.9579,-0.9579,-0.9579,-0.9579,-0.9579,-0.9579,-0.9579,-0.9579,-0.9579,-0.9579,-0.9579,-0.9579,-0.9579,-0.9579,-0.9579,-0.9579,-0.9579,-0.9579,-0.9579,-0.9579,-0.9579,-0.9579,-0.9579,-0.9579,-0.9579,-0.9579,-0.9579,-0.9579,-0.9579,-0.9579,-2.1104,-2.1973,-2.2656,-2.2029,-2.2891,-2.3682,-2.3057,-2.2881,-2.275,-2.2607,-2.291,-2.3232,-2.3397,-2.3564,-2.3399,-2.2414,-2.1235,-2.0331,-2.0033,-1.902,-1.8558,-1.9124,-1.8251,-1.7582,-1.7582,-1.7582,-1.7582,-1.7582,-1.7582,-1.7582,-1.7582,-1.7582,-1.7582,-1.7582,-1.7582,-1.7494,-1.7206,-1.7333,-1.7268,-1.7108,-1.6974,-1.6907,-1.6894,-1.6466,-1.6395,-1.6446,-1.6019,-1.5905,-1.6019,-1.5838,-1.5784,-1.5784,-1.5784,-1.5784,-1.5784,-1.5784,-1.5784,-1.5784,-1.5784,-1.5159,-1.4298,-1.4298,-1.327,-1.2096,-1.2581,-1.3119,-1.3318,-1.2193,-1.195,-1.1755,-1.0739,-1.0015,-0.9579,-0.9579,-0.9579,-0.9579,-0.9579,-0.9579,-0.9579,-0.9579,-0.9579,-0.9579,-0.9579,-0.9579,-0.9579,-0.9579,-0.9579,-0.9579,-0.9579,-0.9579,-0.9579,-0.9579,-0.9579,-0.9579,-0.9579,-0.9579,-0.9579,-0.9579,-0.9579,-0.9579,-0.9579,-0.9579,-0.9579,-0.9579,-0.9579,-0.9579,-0.9579,-0.9579,-0.9579,-0.9579,-0.9579,-0.9529,-2.086,-2.1602,-2.2383,-2.249,-2.332,-2.4092,-2.3965,-2.3403,-2.2916,-2.311,-2.3343,-2.3438,-2.3264,-2.3505,-2.3086,-2.1065,-1.9899,-1.9124,-1.8871,-1.8094,-1.7891,-1.8715,-1.8094,-1.7582,-1.7582,-1.7582,-1.7582,-1.7582,-1.7582,-1.7582,-1.7582,-1.7582,-1.7582,-1.7582,-1.7515,-1.7393,-1.7099,-1.7032,-1.6911,-1.6707,-1.664,-1.6607,-1.6593,-1.6306,-1.6166,-1.6152,-1.5925,-1.5784,-1.5784,-1.5784,-1.5784,-1.5784,-1.5784,-1.5784,-1.5784,-1.5784,-1.5784,-1.5784,-1.5784,-1.5302,-1.4634,-1.4634,-1.395,-1.3071,-1.3071,-1.3463,-1.3613,-1.1999,-1.195,-1.2096,-1.1077,-1.0207,-0.9579,-0.9579,-0.9579,-0.9579,-0.9579,-0.9579,-0.9579,-0.9579,-0.9579,-0.9579,-0.9579,-0.9579,-0.9579,-0.9529,-0.9579,-0.9579,-0.9529,-0.9579,-0.9579,-0.9579,-0.9579,-0.9579,-0.9579,-0.9579,-0.9579,-0.9579,-0.9579,-0.9579,-0.9579,-0.9529,-0.9529,-0.9579,-0.9529,-0.9529,-0.9579,-0.9579,-0.9579,-0.9579,-0.9529,-0.9381,-2.1572,-2.1855,-2.2021,-2.2412,-2.2881,-2.3491,-2.4199,-2.326,-2.2491,-2.3207,-2.2904,-2.2558,-2.2719,-2.2402,-2.1698,-2.0526,-1.9689,-1.8864,-1.7838,-1.7635,-1.7635,-1.7687,-1.7635,-1.7582,-1.7582,-1.7582,-1.7582,-1.7582,-1.7582,-1.7582,-1.7582,-1.7582,-1.7582,-1.7582,-1.7373,-1.7092,-1.674,-1.6473,-1.646,-1.67,-1.6433,-1.6355,-1.6342,-1.5999,-1.5865,-1.5811,-1.5791,-1.5784,-1.5784,-1.5784,-1.5784,-1.5784,-1.5784,-1.5784,-1.5784,-1.5784,-1.5784,-1.5784,-1.5784,-1.5737,-1.5689,-1.5689,-1.5016,-1.4196,-1.4196,-1.3559,-1.278,-1.263,-1.195,-1.1077,-1.0015,-0.9673,-0.9579,-0.9579,-0.9579,-0.9579,-0.9579,-0.9579,-0.9579,-0.9579,-0.9579,-0.9579,-0.9579,-0.9579,-0.9529,-0.9282,-0.943,-0.9529,-0.9282,-0.943,-0.9579,-0.9579,-0.9579,-0.9579,-0.9579,-0.9579,-0.9579,-0.9579,-0.9579,-0.9579,-0.9579,-0.9381,-0.9331,-0.9579,-0.9331,-0.9331,-0.9579,-0.9579,-0.9579,-0.9579,-0.9331,-0.9236,-2.1016,-2.1537,-2.2061,-2.2268,-2.2688,-2.3108,-2.3345,-2.3259,-2.3202,-2.3517,-2.3358,-2.3017,-2.2331,-2.082,-1.9584,-1.9197,-1.8477,-1.7819,-1.7418,-1.7468,-1.7582,-1.7582,-1.7582,-1.7582,-1.7582,-1.7582,-1.7508,-1.738,-1.7534,-1.7554,-1.7373,-1.7367,-1.7367,-1.7367,-1.7027,-1.6734,-1.644,-1.6326,-1.6233,-1.6159,-1.6052,-1.5999,-1.5992,-1.5879,-1.5784,-1.5784,-1.5784,-1.5784,-1.5784,-1.5784,-1.5784,-1.5784,-1.5784,-1.5784,-1.5784,-1.5784,-1.5784,-1.5784,-1.5784,-1.5397,-1.4968,-1.5588,-1.5112,-1.4298,-1.4298,-1.4004,-1.3414,-1.2145,-1.1512,-1.1126,-1.069,-1.0109,-0.9579,-0.9579,-0.9579,-0.9579,-0.9579,-0.9579,-0.9579,-0.9579,-0.948,-0.9331,-0.9331,-0.9331,-0.9282,-0.8981,-0.9183,-0.9331,-0.9236,-0.9286,-0.943,-0.9579,-0.9579,-0.9579,-0.9579,-0.943,-0.9331,-0.9331,-0.9529,-0.9529,-0.9381,-0.9236,-0.9183,-0.9126,-0.9183,-0.9236,-0.9331,-0.9529,-0.9529,-0.9335,-0.9392,-0.9187,-2.0644,-2.1157,-2.178,-2.2101,-2.2235,-2.2362,-2.2539,-2.2886,-2.323,-2.3362,-2.3,-2.2289,-2.1113,-1.9454,-1.8228,-1.8228,-1.756,-1.7058,-1.7058,-1.7313,-1.7442,-1.7442,-1.7528,-1.7582,-1.7582,-1.7502,-1.7414,-1.7213,-1.7248,-1.7221,-1.7072,-1.7058,-1.7058,-1.7058,-1.672,-1.6473,-1.6279,-1.6179,-1.6032,-1.5784,-1.5784,-1.5784,-1.5784,-1.5784,-1.5784,-1.5784,-1.5784,-1.5784,-1.5784,-1.5784,-1.5784,-1.5784,-1.5784,-1.5784,-1.5784,-1.5784,-1.5784,-1.5784,-1.5784,-1.5159,-1.449,-1.5493,-1.4914,-1.3806,-1.3806,-1.3565,-1.2931,-1.1175,-1.069,-1.069,-1.069,-1.0158,-0.9579,-0.9579,-0.9579,-0.9579,-0.948,-0.948,-0.943,-0.9377,-0.9179,-0.908,-0.908,-0.908,-0.8981,-0.8726,-0.8878,-0.9034,-0.8935,-0.9084,-0.9282,-0.9579,-0.9579,-0.9579,-0.9579,-0.9331,-0.9187,-0.9187,-0.9282,-0.9278,-0.9084,-0.8985,-0.8882,-0.8825,-0.8882,-0.9034,-0.9187,-0.9278,-0.9282,-0.9191,-0.9256,-0.9027,-2.0684,-2.076,-2.1101,-2.1895,-2.1462,-2.1038,-2.191,-2.2097,-2.2208,-2.2609,-2.1391,-1.9977,-1.8972,-1.8244,-1.776,-1.776,-1.7148,-1.67,-1.67,-1.6954,-1.7199,-1.7199,-1.7454,-1.7582,-1.7582,-1.7373,-1.7199,-1.7192,-1.6874,-1.6707,-1.67,-1.67,-1.67,-1.67,-1.642,-1.6321,-1.6321,-1.5979,-1.5784,-1.5784,-1.5784,-1.5784,-1.5784,-1.5784,-1.5784,-1.5784,-1.5784,-1.5784,-1.5784,-1.5784,-1.5784,-1.5784,-1.5784,-1.5784,-1.5784,-1.5784,-1.5784,-1.5784,-1.5784,-1.5112,-1.4442,-1.5493,-1.4376,-1.2678,-1.2678,-1.1999,-1.0979,-0.992,-0.9579,-0.9579,-0.9579,-0.9579,-0.9579,-0.9579,-0.9579,-0.9529,-0.9236,-0.9187,-0.9133,-0.8874,-0.8775,-0.8775,-0.8775,-0.8775,-0.8726,-0.8432,-0.8627,-0.8676,-0.8432,-0.8886,-0.929,-0.9583,-0.9583,-0.9583,-0.9583,-0.9335,-0.9187,-0.9187,-0.8931,-0.8775,-0.8775,-0.8528,-0.8531,-0.8775,-0.8531,-0.8684,-0.9187,-0.8928,-0.8928,-0.9195,-0.8859,-0.8678,-2.0082,-2.0573,-2.1217,-2.1203,-2.1729,-2.2189,-2.1903,-2.183,-2.167,-2.1139,-1.9504,-1.811,-1.7785,-1.6975,-1.6388,-1.6388,-1.64,-1.64,-1.64,-1.6653,-1.6914,-1.7172,-1.728,-1.7333,-1.7333,-1.7253,-1.7032,-1.6616,-1.664,-1.6613,-1.6413,-1.64,-1.64,-1.64,-1.6119,-1.5965,-1.5965,-1.5872,-1.5784,-1.5784,-1.5784,-1.5784,-1.5784,-1.5784,-1.5784,-1.5784,-1.5784,-1.5784,-1.5784,-1.5784,-1.5784,-1.5784,-1.5784,-1.5784,-1.5784,-1.5784,-1.5784,-1.5784,-1.5784,-1.4669,-1.3463,-1.5248,-1.3938,-1.1755,-1.2484,-1.1999,-1.0979,-0.992,-0.9579,-0.9579,-0.9579,-0.948,-0.9331,-0.9331,-0.9331,-0.9232,-0.8977,-0.8928,-0.8878,-0.8825,-0.8627,-0.8531,-0.8531,-0.8531,-0.8432,-0.8137,-0.8333,-0.8521,-0.8589,-0.901,-0.9286,-0.9389,-0.9543,-0.9693,-0.9693,-0.9329,-0.9109,-0.9109,-0.8546,-0.8333,-0.8528,-0.8432,-0.8333,-0.8233,-0.8333,-0.8482,-0.8634,-0.8726,-0.8838,-0.8863,-0.8822,-0.8793,-2.0319,-2.0803,-2.1352,-2.1025,-2.1716,-2.2199,-2.1338,-2.1132,-2.0763,-1.9384,-1.8149,-1.7185,-1.677,-1.6204,-1.5784,-1.5784,-1.5979,-1.6092,-1.6092,-1.6353,-1.66,-1.6831,-1.6951,-1.7025,-1.7025,-1.6918,-1.6703,-1.6348,-1.6326,-1.6279,-1.6106,-1.6092,-1.6092,-1.6092,-1.5925,-1.5784,-1.5784,-1.5784,-1.5784,-1.5784,-1.5784,-1.5784,-1.5784,-1.5784,-1.5784,-1.5784,-1.5784,-1.5784,-1.5784,-1.5784,-1.5784,-1.5784,-1.5784,-1.5784,-1.5784,-1.5784,-1.5784,-1.5784,-1.5784,-1.4424,-1.3017,-1.5105,-1.3451,-1.0837,-1.229,-1.1712,-1.0449,-0.9772,-0.9579,-0.9579,-0.9579,-0.9381,-0.9187,-0.9187,-0.9133,-0.8981,-0.8676,-0.8627,-0.8627,-0.8478,-0.8333,-0.8237,-0.8237,-0.8237,-0.8187,-0.8038,-0.8189,-0.8487,-0.8749,-0.9008,-0.9175,-0.9276,-0.9433,-0.9537,-0.9537,-0.9235,-0.9024,-0.9024,-0.8521,-0.8265,-0.8414,-0.8299,-0.8187,-0.7988,-0.8137,-0.8283,-0.8382,-0.8546,-0.8628,-0.8681,-0.8797,-0.8788,-2.0851,-2.1165,-2.1282,-2.1098,-2.1228,-2.1186,-2.0249,-2.0022,-1.9521,-1.7692,-1.7232,-1.6857,-1.5967,-1.5784,-1.5784,-1.5784,-1.5784,-1.5784,-1.5784,-1.6059,-1.6295,-1.6321,-1.6506,-1.6667,-1.6667,-1.6426,-1.6308,-1.6239,-1.5979,-1.5784,-1.5784,-1.5784,-1.5784,-1.5784,-1.5784,-1.5784,-1.5784,-1.5784,-1.5784,-1.5784,-1.5784,-1.5784,-1.5784,-1.5784,-1.5784,-1.5784,-1.5784,-1.5784,-1.5784,-1.5784,-1.5784,-1.5784,-1.5784,-1.5784,-1.5784,-1.5784,-1.5784,-1.5778,-1.5683,-1.4376,-1.3022,-1.5003,-1.2969,-1.0113,-1.2101,-1.1326,-0.9673,-0.9628,-0.9579,-0.9579,-0.9579,-0.9381,-0.9133,-0.9137,-0.8931,-0.8676,-0.8432,-0.8382,-0.8283,-0.8038,-0.7988,-0.7988,-0.7988,-0.7988,-0.7995,-0.8008,-0.8191,-0.8446,-0.8808,-0.8895,-0.9008,-0.9215,-0.9268,-0.932,-0.932,-0.9099,-0.8934,-0.8934,-0.865,-0.8482,-0.8482,-0.8225,-0.8029,-0.8029,-0.8029,-0.8179,-0.8425,-0.837,-0.845,-0.8724,-0.869,-0.8716,-1.9556,-1.9718,-1.9964,-1.9995,-1.9735,-1.9155,-1.8156,-1.7971,-1.7831,-1.7372,-1.6669,-1.6062,-1.5825,-1.5784,-1.5784,-1.5784,-1.5784,-1.5784,-1.5784,-1.5838,-1.6012,-1.6295,-1.6326,-1.6366,-1.6366,-1.6306,-1.6179,-1.5945,-1.5818,-1.5784,-1.5784,-1.5784,-1.5784,-1.5784,-1.5784,-1.5784,-1.5784,-1.5784,-1.5784,-1.5784,-1.5784,-1.5784,-1.5784,-1.5784,-1.5784,-1.5784,-1.5784,-1.5784,-1.5784,-1.5784,-1.5784,-1.5784,-1.5784,-1.5784,-1.5784,-1.5784,-1.5784,-1.5689,-1.4921,-1.3806,-1.292,-1.419,-1.2926,-1.1077,-1.2339,-1.1707,-1.0395,-0.9772,-0.943,-0.9286,-0.9286,-0.908,-0.8829,-0.8634,-0.8531,-0.8432,-0.8137,-0.8088,-0.8088,-0.7988,-0.7988,-0.7988,-0.7988,-0.7988,-0.8029,-0.8204,-0.8343,-0.8545,-0.8699,-0.8825,-0.8896,-0.9006,-0.9224,-0.9388,-0.9388,-0.9219,-0.9144,-0.9144,-0.8762,-0.8482,-0.8482,-0.8421,-0.8387,-0.8387,-0.8387,-0.8439,-0.8488,-0.847,-0.8552,-0.8721,-0.8682,-0.8774,-1.9638,-2.0138,-2.0561,-2.0557,-1.8945,-1.7358,-1.7326,-1.6904,-1.6581,-1.6581,-1.6157,-1.5784,-1.5784,-1.5784,-1.5784,-1.5784,-1.5784,-1.5784,-1.5784,-1.5784,-1.5838,-1.6046,-1.6059,-1.6059,-1.6059,-1.6059,-1.5999,-1.5791,-1.5784,-1.5784,-1.5784,-1.5784,-1.5784,-1.5784,-1.5784,-1.5784,-1.5784,-1.5784,-1.5784,-1.5784,-1.5784,-1.5784,-1.5784,-1.5784,-1.5784,-1.5784,-1.5784,-1.5784,-1.5784,-1.5784,-1.5784,-1.5784,-1.5784,-1.5784,-1.5784,-1.5784,-1.5784,-1.573,-1.5207,-1.4334,-1.3655,-1.4675,-1.3601,-1.1999,-1.2533,-1.1804,-1.0587,-0.9673,-0.9229,-0.9031,-0.9031,-0.8829,-0.8581,-0.8432,-0.8283,-0.8187,-0.8038,-0.7988,-0.7988,-0.7988,-0.7988,-0.7988,-0.7988,-0.7988,-0.8066,-0.834,-0.8435,-0.8564,-0.8791,-0.8834,-0.8885,-0.8885,-0.9047,-0.9158,-0.9158,-0.9085,-0.9036,-0.9036,-0.8852,-0.8699,-0.8699,-0.8699,-0.8632,-0.8486,-0.8482,-0.8482,-0.8482,-0.8557,-0.8632,-0.8713,-0.8784,-0.8807,-1.9823,-2.0542,-2.1032,-2.0908,-1.8354,-1.6082,-1.6871,-1.6393,-1.5784,-1.5784,-1.5784,-1.5784,-1.5784,-1.5784,-1.5784,-1.5784,-1.5784,-1.5784,-1.5784,-1.5784,-1.5784,-1.5784,-1.5784,-1.5784,-1.5784,-1.5784,-1.5784,-1.5784,-1.5784,-1.5784,-1.5784,-1.5784,-1.5784,-1.5784,-1.5784,-1.5784,-1.5784,-1.5784,-1.5784,-1.5784,-1.5784,-1.5784,-1.5784,-1.5784,-1.5784,-1.5784,-1.5784,-1.5784,-1.5784,-1.5784,-1.5784,-1.5784,-1.5784,-1.5784,-1.5784,-1.5784,-1.5784,-1.5784,-1.5588,-1.5016,-1.4442,-1.5255,-1.4376,-1.2926,-1.278,-1.1901,-1.0734,-0.9525,-0.8981,-0.8726,-0.8726,-0.8581,-0.8382,-0.8333,-0.8137,-0.7988,-0.7988,-0.7988,-0.7988,-0.7988,-0.7988,-0.7988,-0.7988,-0.7988,-0.8089,-0.8438,-0.8482,-0.8594,-0.8844,-0.8885,-0.8885,-0.8885,-0.8885,-0.8885,-0.8885,-0.8885,-0.8885,-0.8885,-0.8885,-0.8885,-0.8885,-0.8885,-0.8818,-0.8567,-0.856,-0.856,-0.856,-0.8686,-0.875,-0.8754,-0.8824,-0.8885,-1.8385,-1.8451,-1.8448,-1.8326,-1.7278,-1.6194,-1.6028,-1.592,-1.5784,-1.5784,-1.5784,-1.5784,-1.5784,-1.5784,-1.5784,-1.5784,-1.5784,-1.5784,-1.5784,-1.5784,-1.5784,-1.5784,-1.5784,-1.5784,-1.5784,-1.5784,-1.5784,-1.5784,-1.5784,-1.5784,-1.5784,-1.5784,-1.5784,-1.5784,-1.5784,-1.5784,-1.5784,-1.5784,-1.5784,-1.5784,-1.5784,-1.5784,-1.5784,-1.5784,-1.5784,-1.5784,-1.5784,-1.5784,-1.5784,-1.5784,-1.5784,-1.5784,-1.5784,-1.5784,-1.5784,-1.5784,-1.5784,-1.5683,-1.4825,-1.4394,-1.4346,-1.4442,-1.4292,-1.3908,-1.2974,-1.2242,-1.1414,-0.9673,-0.8832,-0.8432,-0.8432,-0.8432,-0.8333,-0.8088,-0.8038,-0.7988,-0.7988,-0.7988,-0.7988,-0.7988,-0.7988,-0.7988,-0.7988,-0.7988,-0.8089,-0.8438,-0.8482,-0.8594,-0.8844,-0.8885,-0.8885,-0.8885,-0.8885,-0.8885,-0.8885,-0.8885,-0.8885,-0.8885,-0.8885,-0.8885,-0.8885,-0.8885,-0.8865,-0.8824,-0.8821,-0.8821,-0.8821,-0.8844,-0.8854,-0.8854,-0.8875,-0.8885,-1.8523,-1.8503,-1.8264,-1.7922,-1.7085,-1.6192,-1.5899,-1.5784,-1.5784,-1.5784,-1.5784,-1.5784,-1.5784,-1.5784,-1.5784,-1.5784,-1.5784,-1.5784,-1.5784,-1.5784,-1.5784,-1.5784,-1.5784,-1.5784,-1.5784,-1.5784,-1.5784,-1.5784,-1.5784,-1.5784,-1.5784,-1.5784,-1.5784,-1.5784,-1.5784,-1.5784,-1.5784,-1.5784,-1.5784,-1.5784,-1.5784,-1.5784,-1.5784,-1.5784,-1.5784,-1.5784,-1.5784,-1.5784,-1.5784,-1.5784,-1.5784,-1.5784,-1.5784,-1.5784,-1.5784,-1.5784,-1.5784,-1.573,-1.5302,-1.5159,-1.5159,-1.5159,-1.5159,-1.4819,-1.3216,-1.2339,-1.1512,-0.9517,-0.8584,-0.8187,-0.8187,-0.8187,-0.8137,-0.8038,-0.7988,-0.7988,-0.7988,-0.7988,-0.7988,-0.7988,-0.7988,-0.7988,-0.7988,-0.8109,-0.8241,-0.8452,-0.8557,-0.8689,-0.8854,-0.8885,-0.8885,-0.8885,-0.8885,-0.8885,-0.8885,-0.8885,-0.8885,-0.8885,-0.8885,-0.8885,-0.8885,-0.8885,-0.8885,-0.8885,-0.8885,-0.8885,-0.8885,-0.8885,-0.8885,-0.8885,-0.8885,-0.8885,-1.825,-1.8201,-1.7842,-1.7789,-1.7085,-1.6306,-1.6012,-1.5939,-1.5919,-1.5798,-1.5784,-1.5784,-1.5784,-1.5784,-1.5784,-1.5784,-1.5784,-1.5784,-1.5784,-1.5784,-1.5784,-1.5784,-1.5784,-1.5784,-1.5784,-1.5784,-1.5784,-1.5784,-1.5784,-1.5784,-1.5784,-1.5784,-1.5784,-1.5784,-1.5784,-1.5784,-1.5784,-1.5784,-1.5784,-1.5784,-1.5784,-1.5784,-1.5784,-1.5784,-1.5784,-1.5784,-1.5784,-1.5784,-1.5784,-1.5784,-1.5784,-1.5784,-1.5784,-1.5784,-1.5784,-1.5784,-1.5784,-1.5784,-1.5784,-1.5784,-1.5784,-1.5784,-1.5784,-1.5391,-1.3312,-1.2339,-1.1458,-0.9361,-0.8432,-0.7988,-0.7988,-0.7988,-0.7988,-0.7988,-0.7988,-0.7988,-0.7988,-0.7988,-0.7988,-0.7988,-0.7988,-0.8002,-0.8092,-0.8194,-0.8333,-0.8513,-0.8635,-0.8764,-0.8865,-0.8885,-0.8885,-0.8885,-0.8885,-0.8885,-0.8885,-0.8885,-0.8885,-0.8885,-0.8885,-0.8885,-0.8885,-0.8885,-0.8885,-0.8885,-0.8885,-0.8885,-0.8885,-0.8885,-0.8885,-0.8885,-0.8885,-0.8885,-1.6605,-1.6438,-1.6097,-1.7074,-1.6995,-1.6607,-1.6319,-1.6253,-1.6166,-1.5885,-1.5784,-1.5784,-1.5784,-1.5784,-1.5784,-1.5784,-1.5784,-1.5784,-1.5784,-1.5784,-1.5784,-1.5784,-1.5784,-1.5784,-1.5784,-1.5784,-1.5784,-1.5784,-1.5784,-1.5784,-1.5784,-1.5784,-1.5784,-1.5784,-1.5784,-1.5784,-1.5784,-1.5784,-1.5784,-1.5784,-1.5784,-1.5784,-1.5784,-1.5784,-1.5784,-1.5784,-1.5784,-1.5784,-1.5784,-1.5784,-1.5784,-1.5784,-1.5784,-1.5784,-1.5784,-1.5784,-1.5784,-1.5784,-1.5784,-1.5784,-1.5784,-1.5784,-1.5784,-1.5391,-1.3312,-1.2339,-1.1458,-0.9361,-0.8432,-0.7988,-0.7988,-0.7988,-0.7988,-0.7988,-0.7988,-0.7988,-0.7988,-0.7988,-0.7988,-0.7988,-0.7988,-0.8085,-0.8235,-0.8316,-0.8367,-0.8655,-0.8706,-0.8764,-0.8865,-0.8885,-0.8885,-0.8885,-0.8885,-0.8885,-0.8885,-0.8885,-0.8885,-0.8885,-0.8885,-0.8885,-0.8885,-0.8885,-0.8885,-0.8885,-0.8885,-0.8885,-0.8885,-0.8885,-0.8885,-0.8885,-0.8885,-0.8885,-1.5098,-1.5661,-1.6052,-1.5864,-1.6137,-1.64,-1.6299,-1.6321,-1.6295,-1.6139,-1.5965,-1.5784,-1.5784,-1.5784,-1.5784,-1.5784,-1.5784,-1.5784,-1.5784,-1.5784,-1.5784,-1.5784,-1.5784,-1.5784,-1.5784,-1.5784,-1.5784,-1.5784,-1.5784,-1.5784,-1.5784,-1.5784,-1.5784,-1.5784,-1.5784,-1.5784,-1.5784,-1.5784,-1.5784,-1.5784,-1.5784,-1.5784,-1.5784,-1.5784,-1.5784,-1.5784,-1.5784,-1.5784,-1.5784,-1.5784,-1.5784,-1.5784,-1.5784,-1.5784,-1.5784,-1.5784,-1.5784,-1.5784,-1.5784,-1.5784,-1.5784,-1.5784,-1.5784,-1.5391,-1.3312,-1.2339,-1.1458,-0.9361,-0.8432,-0.7988,-0.7988,-0.7988,-0.7988,-0.7988,-0.7988,-0.7988,-0.7988,-0.7988,-0.7988,-0.7988,-0.8119,-0.8204,-0.8313,-0.8428,-0.8587,-0.8696,-0.8794,-0.8821,-0.8875,-0.8885,-0.8885,-0.8885,-0.8885,-0.8885,-0.8885,-0.8885,-0.8885,-0.8885,-0.8885,-0.8885,-0.8885,-0.8885,-0.8885,-0.8885,-0.8885,-0.8885,-0.8885,-0.8885,-0.8885,-0.8885,-0.8885,-0.8885,-1.3846,-1.4524,-1.5254,-1.5163,-1.5524,-1.598,-1.6333,-1.6339,-1.6295,-1.6146,-1.6046,-1.5945,-1.5798,-1.5784,-1.5784,-1.5784,-1.5784,-1.5784,-1.5784,-1.5784,-1.5784,-1.5784,-1.5784,-1.5784,-1.5784,-1.5784,-1.5784,-1.5784,-1.5784,-1.5784,-1.5784,-1.5784,-1.5784,-1.5784,-1.5784,-1.5784,-1.5784,-1.5784,-1.5784,-1.5784,-1.5784,-1.5784,-1.5784,-1.5784,-1.5784,-1.5784,-1.5784,-1.5784,-1.5784,-1.5784,-1.5784,-1.5784,-1.5784,-1.5784,-1.5784,-1.5784,-1.5784,-1.5784,-1.5784,-1.5588,-1.535,-1.5689,-1.5588,-1.4962,-1.3216,-1.2339,-1.1458,-0.9361,-0.8432,-0.7988,-0.7988,-0.7988,-0.7988,-0.7988,-0.7988,-0.8005,-0.8106,-0.8116,-0.8116,-0.8116,-0.8238,-0.836,-0.8411,-0.8581,-0.8726,-0.8777,-0.8817,-0.8885,-0.8885,-0.8885,-0.8885,-0.8885,-0.8885,-0.8885,-0.8885,-0.8885,-0.8885,-0.8885,-0.8885,-0.8885,-0.8885,-0.8885,-0.8885,-0.8885,-0.8885,-0.8885,-0.8885,-0.8885,-0.8885,-0.8885,-0.8885,-0.8885,0.0,0.0,0.0,-1.4977,-1.5137,-1.5296,-1.6393,-1.644,-1.6172,-1.5899,-1.6066,-1.6172,-1.5892,-1.5798,-1.5791,-1.5784,-1.5784,-1.5784,-1.5784,-1.5791,-1.5798,-1.5798,-1.5804,-1.5804,-1.5804,-1.5798,-1.5798,-1.5798,-1.5832,-1.5784,-1.5784,-1.5784,-1.5784,-1.5784,-1.5784,-1.5784,-1.5784,-1.5784,-1.5784,-1.5784,-1.5784,-1.5784,-1.5784,-1.5784,-1.5784,-1.5784,-1.5784,-1.5784,-1.5784,-1.5784,-1.5784,-1.5784,-1.5784,-1.5784,-1.5784,-1.5784,-1.5784,-1.5784,-1.5784,-1.5159,-1.449,-1.5493,-1.5159,-1.4148,-1.3022,-1.2339,-1.1458,-0.941,-0.8432,-0.7988,-0.7988,-0.7988,-0.7988,-0.7988,-0.7988,-0.8032,-0.8238,-0.8327,-0.833,-0.833,-0.8391,-0.8537,-0.8682,-0.8713,-0.8767,-0.8861,-0.8885,-0.8885,-0.8885,-0.8885,-0.8885,-0.8885,-0.8885,-0.8885,-0.8885,-0.8885,-0.8885,-0.8885,-0.8885,-0.8885,-0.8885,-0.8885,-0.8885,-0.8885,-0.8885,-0.8885,-0.8885,-0.8885,-0.8885,-0.8885,-0.8885,-0.8885,-1.3474,0.0,0.0,0.0,0.0,0.0,-1.5324,-1.5545,-1.5738,-1.6079,-1.6046,-1.5992,-1.6126,-1.6152,-1.6079,-1.5865,-1.5784,-1.5784,-1.5784,-1.6012,-1.6152,-1.6152,-1.6333,-1.6466,-1.6466,-1.6273,-1.6152,-1.6152,-1.5952,-1.5784,-1.5784,-1.5784,-1.5784,-1.5784,-1.5784,-1.5784,-1.5784,-1.5784,-1.5784,-1.5784,-1.5784,-1.5784,-1.5784,-1.5784,-1.5784,-1.5784,-1.5784,-1.5784,-1.5784,-1.5784,-1.5784,-1.5784,-1.5784,-1.5784,-1.5784,-1.5784,-1.5784,-1.5784,-1.5784,-1.5635,-1.5445,-1.573,-1.5588,-1.5057,-1.3264,-1.2436,-1.1707,-0.946,-0.8528,-0.8237,-0.8038,-0.7988,-0.7988,-0.7988,-0.7988,-0.8032,-0.8238,-0.835,-0.8425,-0.8425,-0.8547,-0.8662,-0.8703,-0.8801,-0.8834,-0.8875,-0.8885,-0.8885,-0.8885,-0.8885,-0.8885,-0.8885,-0.8885,-0.8885,-0.8885,-0.8885,-0.8885,-0.8885,-0.8885,-0.8885,-0.8885,-0.8885,-0.8885,-0.8885,-0.8885,-0.8885,-0.8885,-0.8885,-0.8885,-0.8885,-0.8885,-0.8885,-1.4298,-1.3941,-1.3945,-1.379,0.0,0.0,-1.5144,-1.5357,-1.5524,-1.5992,-1.6046,-1.6066,-1.6239,-1.6321,-1.6219,-1.6046,-1.6012,-1.5972,-1.5798,-1.6086,-1.6321,-1.6321,-1.6526,-1.6707,-1.6707,-1.644,-1.6321,-1.6321,-1.5999,-1.5784,-1.5784,-1.5784,-1.5784,-1.5784,-1.5784,-1.5784,-1.5784,-1.5784,-1.5784,-1.5784,-1.5784,-1.5784,-1.5784,-1.5784,-1.5784,-1.5784,-1.5784,-1.5784,-1.5784,-1.5784,-1.5784,-1.5784,-1.5784,-1.5784,-1.5784,-1.5784,-1.5784,-1.5784,-1.5784,-1.554,-1.5255,-1.5642,-1.554,-1.4867,-1.3216,-1.2484,-1.1804,-0.946,-0.8531,-0.8187,-0.8038,-0.7988,-0.7988,-0.7988,-0.7988,-0.8049,-0.8313,-0.8425,-0.8503,-0.8564,-0.8703,-0.8804,-0.8804,-0.8824,-0.8885,-0.8885,-0.8885,-0.8885,-0.8885,-0.8885,-0.8885,-0.8885,-0.8885,-0.8885,-0.8885,-0.8885,-0.8885,-0.8885,-0.8885,-0.8885,-0.8885,-0.8885,-0.8885,-0.8885,-0.8885,-0.8885,-0.8885,-0.8885,-0.8885,-0.8885,-0.8885,-0.8885,-1.5389,-1.4842,-1.4779,-1.4491,-1.4097,0.0,-1.5297,-1.5411,-1.5344,-1.5665,-1.5945,-1.6194,-1.6213,-1.6226,-1.6226,-1.6226,-1.6301,-1.6166,-1.5872,-1.6112,-1.6319,-1.6319,-1.6607,-1.6807,-1.6807,-1.654,-1.6359,-1.6375,-1.6019,-1.5784,-1.5784,-1.5784,-1.5784,-1.5784,-1.5784,-1.5784,-1.5784,-1.5784,-1.5784,-1.5784,-1.5784,-1.5784,-1.5784,-1.5784,-1.5784,-1.5784,-1.5784,-1.5784,-1.5784,-1.5784,-1.5784,-1.5784,-1.5784,-1.5784,-1.5784,-1.5784,-1.5784,-1.5784,-1.5784,-1.5207,-1.4634,-1.5493,-1.5207,-1.4244,-1.3071,-1.2533,-1.1853,-0.946,-0.8432,-0.7988,-0.7988,-0.7988,-0.7988,-0.7988,-0.7988,-0.8066,-0.8397,-0.8472,-0.8526,-0.8679,-0.8832,-0.8885,-0.8885,-0.8885,-0.8885,-0.8885,-0.8885,-0.8885,-0.8885,-0.8885,-0.8885,-0.8885,-0.8885,-0.8885,-0.8885,-0.8885,-0.8885,-0.8885,-0.8885,-0.8885,-0.8885,-0.8885,-0.8885,-0.8885,-0.8885,-0.8885,-0.8885,-0.8885,-0.8885,-0.8885,-0.8885,-0.8885,-1.6992,-1.6862,-1.6619,-1.4331,-1.4517,0.0,-1.4223,-1.4208,-1.4489,-1.5068,-1.5223,-1.541,-1.5832,-1.5912,-1.5912,-1.5912,-1.6119,-1.6166,-1.5872,-1.6286,-1.662,-1.662,-1.7088,-1.7408,-1.7408,-1.7199,-1.6931,-1.664,-1.6126,-1.5784,-1.5784,-1.5784,-1.5784,-1.5784,-1.5784,-1.5784,-1.5784,-1.5784,-1.5784,-1.5784,-1.5784,-1.5784,-1.5784,-1.5784,-1.5784,-1.5784,-1.5784,-1.5784,-1.5784,-1.5784,-1.5784,-1.5784,-1.5784,-1.5784,-1.5784,-1.5784,-1.5784,-1.5784,-1.5784,-1.5683,-1.554,-1.573,-1.5683,-1.5153,-1.3264,-1.2678,-1.2096,-0.9509,-0.8432,-0.7988,-0.7988,-0.7988,-0.7988,-0.7988,-0.7988,-0.8039,-0.8272,-0.8401,-0.8526,-0.8679,-0.8832,-0.8885,-0.8885,-0.8885,-0.8885,-0.8885,-0.8885,-0.8885,-0.8885,-0.8885,-0.8885,-0.8885,-0.8885,-0.8885,-0.8885,-0.8885,-0.8885,-0.8885,-0.8885,-0.8885,-0.8885,-0.8885,-0.8885,-0.8885,-0.8885,-0.8885,-0.8885,-0.8885,-0.8885,-0.8885,-0.8885,-0.8885,-1.862,-1.8429,-1.8069,-1.558,-1.5378,0.0,0.0,-1.4195,-1.4429,-1.4914,-1.5008,-1.5142,-1.5531,-1.5611,-1.5658,-1.5758,-1.6079,-1.6166,-1.5872,-1.646,-1.6927,-1.6927,-1.7315,-1.7582,-1.7582,-1.7373,-1.7018,-1.652,-1.6213,-1.5985,-1.5791,-1.5784,-1.5784,-1.5784,-1.5784,-1.5784,-1.5784,-1.5784,-1.5784,-1.5784,-1.5784,-1.5784,-1.5784,-1.5784,-1.5784,-1.5784,-1.5784,-1.5784,-1.5784,-1.5784,-1.5784,-1.5784,-1.5784,-1.5784,-1.5784,-1.5784,-1.5784,-1.5784,-1.5784,-1.5784,-1.5784,-1.5784,-1.5784,-1.5493,-1.395,-1.2684,-1.1463,-0.9998,-0.892,-0.8187,-0.8038,-0.7988,-0.7988,-0.7988,-0.7988,-0.8052,-0.8326,-0.8431,-0.855,-0.8777,-0.8831,-0.8885,-0.8885,-0.8885,-0.8885,-0.8885,-0.8885,-0.8885,-0.8885,-0.8885,-0.8885,-0.8885,-0.8885,-0.8885,-0.8885,-0.8885,-0.8885,-0.8885,-0.8885,-0.8885,-0.8885,-0.8885,-0.8885,-0.8885,-0.8885,-0.8885,-0.8885,-0.8885,-0.8885,-0.8885,-0.8885,-0.8885,-2.0132,-1.996,-1.9659,-1.7312,-1.6586,-1.6135,0.0,0.0,0.0,-1.4787,-1.4841,-1.4928,-1.5177,-1.5231,-1.5324,-1.5618,-1.5959,-1.6106,-1.5865,-1.654,-1.7112,-1.7112,-1.7427,-1.7582,-1.7582,-1.732,-1.6938,-1.6522,-1.6335,-1.6106,-1.5925,-1.5858,-1.5784,-1.5784,-1.5784,-1.5784,-1.5784,-1.5784,-1.5784,-1.5784,-1.5784,-1.5784,-1.5784,-1.5784,-1.5784,-1.5784,-1.5784,-1.5784,-1.5784,-1.5784,-1.5784,-1.5784,-1.5784,-1.5784,-1.5784,-1.5784,-1.5784,-1.5784,-1.5784,-1.5784,-1.5784,-1.5784,-1.5683,-1.535,-1.4538,-1.2635,-1.0685,-1.0435,-0.941,-0.8283,-0.8038,-0.7988,-0.7988,-0.7988,-0.8012,-0.815,-0.8391,-0.8486,-0.8601,-0.8794,-0.8865,-0.8885,-0.8885,-0.8885,-0.8885,-0.8885,-0.8885,-0.8885,-0.8885,-0.8885,-0.8885,-0.8885,-0.8885,-0.8885,-0.8885,-0.8885,-0.8885,-0.8885,-0.8885,-0.8885,-0.8885,-0.8885,-0.8885,-0.8885,-0.8885,-0.8885,-0.8885,-0.8885,-0.8885,-0.8885,-0.8885,-0.8885,-2.1348,-2.1741,-2.1742,-1.8868,-1.8108,-1.7602,-1.5932,0.0,-1.4148,-1.4175,0.0,-1.4275,-1.4563,0.0,0.0,-1.5062,-1.5524,-1.5818,-1.5832,-1.6359,-1.676,-1.676,-1.7248,-1.7582,-1.7582,-1.7081,-1.684,-1.7085,-1.6326,-1.5979,-1.6213,-1.5972,-1.5784,-1.5784,-1.5784,-1.5784,-1.5784,-1.5784,-1.5784,-1.5784,-1.5784,-1.5784,-1.5784,-1.5784,-1.5784,-1.5784,-1.5784,-1.5784,-1.5784,-1.5784,-1.5784,-1.5784,-1.5784,-1.5784,-1.5784,-1.5784,-1.5784,-1.5784,-1.5784,-1.5784,-1.5784,-1.5784,-1.5207,-1.4442,-1.4346,-1.249,-1.044,-1.0391,-0.9262,-0.8038,-0.7988,-0.7988,-0.7988,-0.7988,-0.8143,-0.8252,-0.834,-0.8499,-0.8696,-0.873,-0.8845,-0.8885,-0.8885,-0.8885,-0.8885,-0.8885,-0.8885,-0.8885,-0.8885,-0.8885,-0.8885,-0.8885,-0.8885,-0.8885,-0.8885,-0.8885,-0.8885,-0.8885,-0.8885,-0.8885,-0.8885,-0.8885,-0.8885,-0.8885,-0.8885,-0.8885,-0.8885,-0.8885,-0.8885,-0.8885,-0.8885,-0.8885,-2.2159,-2.1961,-2.1414,-1.9212,-1.8129,-1.7184,-1.5491,-1.4685,-1.4279,-1.4279,0.0,0.0,0.0,0.0,0.0,0.0,-1.5057,-1.5331,-1.5331,-1.5825,-1.6319,-1.6667,-1.6927,-1.7141,-1.7367,-1.7159,-1.7065,-1.7192,-1.6647,-1.6319,-1.6279,-1.6152,-1.6005,-1.5832,-1.5784,-1.5784,-1.5784,-1.5784,-1.5784,-1.5784,-1.5784,-1.5784,-1.5784,-1.5784,-1.5784,-1.5784,-1.5784,-1.5784,-1.5784,-1.5784,-1.5784,-1.5784,-1.5784,-1.5784,-1.5784,-1.5784,-1.5784,-1.5784,-1.5784,-1.5397,-1.4921,-1.4921,-1.4238,-1.3607,-1.4819,-1.3065,-1.073,-1.117,-0.9801,-0.8208,-0.82,-0.8668,-0.9039,-0.8425,-0.8855,-0.9242,-0.8664,-0.8621,-0.8737,-0.8825,-0.8841,-0.8885,-0.8885,-0.8885,-0.8885,-0.8885,-0.8885,-0.8885,-0.8885,-0.8885,-0.8885,-0.8885,-0.8885,-0.8885,-0.8885,-0.8885,-0.8885,-0.8885,-0.8885,-0.8885,-0.8885,-0.8885,-0.8885,-0.8885,-0.8885,-0.8885,-0.8885,-0.8885,-0.8885,-0.8885,-0.8885,-0.8885,-2.2366,-2.1651,-2.0695,-1.9307,-1.8094,-1.6845,-1.5464,-1.4881,-1.4606,-1.4606,-1.4511,0.0,0.0,0.0,-1.4369,-1.4496,0.0,-1.5008,-1.5008,-1.5331,-1.5812,-1.6393,-1.6607,-1.6794,-1.7058,-1.7005,-1.7032,-1.7192,-1.68,-1.6567,-1.6569,-1.6409,-1.6172,-1.5959,-1.5872,-1.5784,-1.5784,-1.5784,-1.5784,-1.5784,-1.5784,-1.5784,-1.5784,-1.5784,-1.5784,-1.5784,-1.5784,-1.5784,-1.5784,-1.5784,-1.5784,-1.5784,-1.5784,-1.5784,-1.5784,-1.5784,-1.5784,-1.5778,-1.5493,-1.4675,-1.3806,-1.4004,-1.3607,-1.3307,-1.4711,-1.3258,-1.1121,-1.1312,-0.9899,-0.8272,-0.8279,-0.8922,-0.9364,-0.8654,-0.9137,-0.9572,-0.8847,-0.8743,-0.8804,-0.8861,-0.8885,-0.8885,-0.8885,-0.8885,-0.8885,-0.8885,-0.8885,-0.8885,-0.8885,-0.8885,-0.8885,-0.8885,-0.8885,-0.8885,-0.8885,-0.8885,-0.8885,-0.8885,-0.8885,-0.8885,-0.8885,-0.8885,-0.8885,-0.8885,-0.8885,-0.8885,-0.8885,-0.8885,-0.8885,-0.8885,-0.8885,-0.8885,-2.173,-2.1006,-2.0052,-1.9264,-1.8267,-1.7278,-1.6508,-1.5727,-1.5182,-1.5182,-1.52,-1.5267,-1.5267,-1.5102,-1.4888,0.0,-1.477,0.0,0.0,-1.5022,-1.5249,-1.5744,-1.6359,-1.6707,-1.672,-1.6466,-1.6583,-1.7159,-1.6663,-1.6583,-1.7146,-1.6636,-1.6321,-1.6259,-1.5979,-1.5784,-1.5784,-1.5784,-1.5784,-1.5784,-1.5784,-1.5784,-1.5784,-1.5784,-1.5784,-1.5784,-1.5784,-1.5784,-1.5784,-1.5784,-1.5784,-1.5784,-1.5784,-1.5784,-1.5784,-1.5784,-1.5784,-1.5642,-1.4682,-1.3463,-1.2484,-1.327,-1.3698,-1.383,-1.365,-1.2775,-1.1609,-1.0386,-0.9069,-0.8075,-0.8231,-0.832,-0.8357,-0.8501,-0.8647,-0.876,-0.871,-0.8825,-0.8878,-0.8881,-0.8885,-0.8885,-0.8885,-0.8885,-0.8885,-0.8885,-0.8885,-0.8885,-0.8885,-0.8885,-0.8885,-0.8885,-0.8885,-0.8885,-0.8885,-0.8885,-0.8885,-0.8885,-0.8885,-0.8885,-0.8885,-0.8885,-0.8885,-0.8885,-0.8885,-0.8885,-0.8885,-0.8885,-0.8885,-0.8885,-0.8885,-0.8885,-2.1863,-2.0593,-1.917,-1.8689,-1.8089,-1.7506,-1.7033,-1.6603,-1.6347,-1.634,-1.5915,-1.5569,-1.5569,-1.5346,-1.5178,0.0,0.0,-1.4941,0.0,-1.4669,-1.4743,-1.4937,-1.5651,-1.6199,-1.64,-1.6333,-1.6569,-1.7159,-1.6831,-1.6734,-1.7179,-1.7012,-1.6723,-1.6335,-1.6179,-1.6025,-1.5784,-1.5784,-1.5784,-1.5784,-1.5784,-1.5784,-1.5784,-1.5784,-1.5784,-1.5784,-1.5784,-1.5784,-1.5784,-1.5784,-1.5784,-1.5784,-1.5784,-1.5784,-1.5784,-1.5784,-1.5784,-1.554,-1.365,-1.2242,-1.1317,-1.1414,-1.1517,-1.1668,-1.229,-1.1604,-1.0534,-1.0096,-0.9019,-0.8046,-0.8347,-0.8976,-0.9406,-0.8885,-0.9414,-0.9828,-0.9023,-0.8848,-0.8885,-0.8885,-0.8885,-0.8885,-0.8885,-0.8885,-0.8885,-0.8885,-0.8885,-0.8885,-0.8885,-0.8885,-0.8885,-0.8885,-0.8885,-0.8885,-0.8885,-0.8885,-0.8885,-0.8885,-0.8885,-0.8885,-0.8885,-0.8885,-0.8885,-0.8885,-0.8885,-0.8885,-0.8885,-0.8885,-0.8885,-0.8885,-0.8885,-0.8885,-2.1364,-2.0141,-1.8746,-1.7998,-1.7615,-1.7324,-1.6977,-1.7173,-1.7302,-1.6955,-1.678,-1.6575,-1.6228,-1.5941,-1.5718,0.0,0.0,-1.495,0.0,-1.4456,-1.4522,-1.4522,-1.5204,-1.5752,-1.5945,-1.5965,-1.6254,-1.6844,-1.666,-1.6727,-1.7179,-1.7199,-1.6978,-1.644,-1.6326,-1.6126,-1.5784,-1.5784,-1.5784,-1.5784,-1.5784,-1.5784,-1.5784,-1.5784,-1.5784,-1.5784,-1.5784,-1.5784,-1.5784,-1.5784,-1.5784,-1.5784,-1.5784,-1.5784,-1.5778,-1.5397,-1.4813,-1.3932,-1.2237,-1.0974,-1.0096,-1.0096,-1.0199,-1.035,-1.0925,-1.0583,-0.9899,-0.941,-0.872,-0.8177,-0.8421,-0.9095,-0.9523,-0.904,-0.9482,-0.986,-0.9047,-0.8885,-0.8885,-0.8885,-0.8885,-0.8885,-0.8885,-0.8885,-0.8885,-0.8885,-0.8885,-0.8885,-0.8885,-0.8885,-0.8885,-0.8885,-0.8885,-0.8885,-0.8885,-0.8885,-0.8885,-0.8885,-0.8885,-0.8885,-0.8885,-0.8885,-0.8885,-0.8885,-0.8885,-0.8885,-0.8885,-0.8885,-0.8885,-0.8885,-0.8885,-0.8885]},{"header":{"parameterUnit":"m.s-1","parameterCategory":1,"la1":30.6,"la2":29.2853,"lo1":-89.7004,"lo2":-87.6739,"dy":0.0162,"dx":0.0183,"nx":112,"ny":82,"refTime":"2024-05-20T00:00:00:Z","depth":0,"parameterNumber":3,"parameterNumberName":"V-component_of_WINDS"},"data":[0.0,0.0,0.0,0.0,0.0,0.0,0.0,0.0,0.0,0.0,0.0,0.0,0.0,0.0,0.0,0.0,0.0,0.0,0.0,0.0,0.0,0.0,0.0,0.0,0.0,0.0,0.0,0.0,0.0,0.0,0.0,0.0,0.0,0.0,0.0,0.0,0.0,0.0,0.0,0.0,0.0,0.0,0.0,0.0,0.0,0.0,0.0,0.0,0.0,0.0,0.0,0.0,0.0,0.0,0.0,0.0,0.0,0.0,0.0,0.0,0.0,0.0,0.0,0.0,0.0,0.0,0.0,0.0,0.0,0.0,0.0,0.0,0.0,0.0,0.0,0.0,0.0,0.0,0.0,0.0,0.0,0.0,0.0,0.0,0.0,0.0,0.0,0.0,0.0,0.0,2.7572,2.7705,2.8129,2.8549,2.8951,2.8512,2.7891,2.7034,0.0,0.0,0.0,0.0,0.0,0.0,0.0,0.0,0.0,0.0,0.0,0.0,0.0,0.0,0.0,0.0,0.0,0.0,0.0,0.0,0.0,0.0,0.0,0.0,0.0,0.0,0.0,0.0,0.0,0.0,0.0,0.0,0.0,0.0,0.0,0.0,0.0,0.0,0.0,0.0,0.0,0.0,0.0,0.0,0.0,0.0,0.0,0.0,0.0,0.0,0.0,0.0,0.0,0.0,0.0,0.0,0.0,0.0,0.0,0.0,0.0,0.0,0.0,0.0,0.0,0.0,0.0,0.0,0.0,0.0,0.0,0.0,0.0,0.0,0.0,0.0,0.0,0.0,0.0,0.0,0.0,0.0,0.0,0.0,0.0,0.0,0.0,0.0,0.0,0.0,0.0,0.0,0.0,0.0,0.0,0.0,0.0,0.0,0.0,0.0,0.0,0.0,0.0,0.0,2.7216,2.8182,2.8334,2.842,2.8517,2.792,2.7257,2.6561,0.0,0.0,0.0,0.0,0.0,0.0,0.0,0.0,0.0,0.0,0.0,0.0,0.0,0.0,0.0,0.0,0.0,0.0,0.0,0.0,0.0,0.0,0.0,0.0,0.0,0.0,0.0,0.0,0.0,0.0,0.0,0.0,0.0,0.0,0.0,0.0,0.0,0.0,0.0,0.0,0.0,0.0,0.0,0.0,0.0,0.0,0.0,0.0,0.0,0.0,0.0,0.0,0.0,0.0,0.0,0.0,0.0,0.0,0.0,0.0,0.0,0.0,0.0,0.0,0.0,0.0,0.0,0.0,0.0,0.0,0.0,0.0,0.0,0.0,0.0,0.0,0.0,0.0,0.0,0.0,0.0,0.0,0.0,0.0,0.0,0.0,0.0,0.0,0.0,0.0,0.0,0.0,0.0,0.0,0.0,0.0,0.0,0.0,0.0,0.0,0.0,0.0,0.0,2.7056,2.7542,2.8328,2.8411,2.8517,2.8771,2.827,2.7605,2.6833,2.6572,0.0,0.0,0.0,0.0,0.0,0.0,0.0,0.0,0.0,0.0,0.0,0.0,0.0,0.0,0.0,0.0,0.0,0.0,0.0,0.0,0.0,0.0,0.0,0.0,0.0,0.0,0.0,0.0,0.0,0.0,0.0,0.0,0.0,0.0,0.0,0.0,0.0,0.0,0.0,0.0,0.0,0.0,0.0,0.0,0.0,0.0,0.0,0.0,0.0,0.0,0.0,0.0,0.0,0.0,0.0,0.0,0.0,0.0,0.0,0.0,0.0,0.0,0.0,0.0,0.0,0.0,0.0,0.0,0.0,0.0,0.0,0.0,0.0,0.0,0.0,0.0,0.0,0.0,0.0,0.0,0.0,0.0,0.0,0.0,0.0,0.0,0.0,0.0,0.0,0.0,0.0,0.0,0.0,0.0,0.0,0.0,0.0,0.0,0.0,0.0,0.0,0.0,2.7742,2.8054,2.8422,2.842,2.8549,2.8881,2.8466,2.7806,2.6954,2.6489,0.0,0.0,0.0,0.0,0.0,0.0,0.0,0.0,0.0,0.0,0.0,0.0,0.0,0.0,0.0,0.0,0.0,0.0,0.0,0.0,0.0,0.0,0.0,0.0,0.0,0.0,0.0,0.0,0.0,0.0,0.0,0.0,0.0,0.0,0.0,0.0,0.0,0.0,0.0,0.0,0.0,0.0,0.0,0.0,0.0,0.0,0.0,0.0,0.0,0.0,0.0,0.0,0.0,0.0,0.0,0.0,0.0,0.0,0.0,0.0,0.0,0.0,0.0,0.0,0.0,0.0,0.0,0.0,0.0,0.0,0.0,0.0,0.0,0.0,0.0,0.0,0.0,0.0,0.0,0.0,0.0,0.0,0.0,0.0,0.0,0.0,0.0,0.0,0.0,0.0,0.0,0.0,0.0,0.0,0.0,0.0,0.0,0.0,0.0,0.0,0.0,0.0,2.7882,2.855,2.8573,2.8468,2.8396,2.8444,2.785,2.7134,2.6387,2.5858,0.0,0.0,0.0,0.0,0.0,0.0,0.0,0.0,0.0,0.0,0.0,0.0,0.0,0.0,0.0,0.0,0.0,0.0,0.0,0.0,0.0,0.0,0.0,0.0,0.0,0.0,0.0,0.0,0.0,0.0,0.0,0.0,0.0,0.0,0.0,0.0,0.0,0.0,0.0,0.0,0.0,0.0,0.0,0.0,0.0,0.0,0.0,0.0,0.0,0.0,0.0,0.0,0.0,0.0,0.0,0.0,0.0,0.0,0.0,0.0,0.0,0.0,0.0,0.0,0.0,0.0,0.0,0.0,0.0,0.0,0.0,0.0,0.0,0.0,0.0,0.0,0.0,0.0,0.0,0.0,0.0,0.0,0.0,0.0,0.0,0.0,0.0,0.0,0.0,0.0,0.0,0.0,0.0,0.0,0.0,0.0,0.0,0.0,0.0,0.0,0.0,0.0,2.7637,2.8295,2.8685,2.8612,2.8517,2.8517,2.8213,2.7534,2.6373,0.0,0.0,0.0,0.0,0.0,0.0,0.0,0.0,0.0,0.0,0.0,0.0,0.0,0.0,0.0,0.0,0.0,0.0,0.0,0.0,0.0,0.0,0.0,0.0,0.0,0.0,0.0,0.0,0.0,0.0,0.0,0.0,0.0,0.0,0.0,0.0,0.0,0.0,0.0,0.0,0.0,0.0,0.0,0.0,0.0,0.0,0.0,0.0,0.0,0.0,0.0,0.0,0.0,0.0,0.0,0.0,0.0,0.0,0.0,0.0,0.0,0.0,0.0,0.0,0.0,0.0,0.0,0.0,0.0,0.0,0.0,0.0,0.0,0.0,0.0,0.0,0.0,0.0,0.0,0.0,0.0,0.0,0.0,0.0,0.0,0.0,0.0,0.0,0.0,0.0,0.0,0.0,0.0,0.0,0.0,0.0,0.0,0.0,0.0,0.0,0.0,0.0,2.6912,2.7906,2.8638,2.8818,2.8918,2.8878,2.8676,2.8162,2.745,2.6485,0.0,0.0,0.0,0.0,0.0,0.0,0.0,0.0,0.0,0.0,0.0,0.0,0.0,0.0,0.0,0.0,0.0,0.0,0.0,0.0,0.0,0.0,0.0,0.0,0.0,0.0,0.0,0.0,0.0,0.0,0.0,0.0,0.0,0.0,0.0,0.0,0.0,0.0,0.0,0.0,0.0,0.0,0.0,0.0,0.0,0.0,0.0,0.0,0.0,0.0,0.0,0.0,0.0,0.0,0.0,0.0,0.0,0.0,0.0,0.0,0.0,0.0,0.0,0.0,0.0,0.0,0.0,0.0,0.0,0.0,0.0,0.0,0.0,0.0,0.0,0.0,0.0,0.0,0.0,0.0,0.0,0.0,0.0,0.0,0.0,0.0,0.0,0.0,0.0,0.0,0.0,0.0,0.0,0.0,0.0,0.0,0.0,0.0,0.0,0.0,0.0,0.0,2.7115,2.8801,2.9736,2.8998,2.9452,2.9536,2.8872,2.7515,2.6704,0.0,0.0,0.0,0.0,0.0,0.0,0.0,0.0,0.0,0.0,0.0,0.0,0.0,0.0,0.0,0.0,0.0,0.0,0.0,0.0,0.0,0.0,0.0,0.0,0.0,0.0,0.0,0.0,0.0,0.0,0.0,0.0,0.0,0.0,0.0,0.0,0.0,0.0,0.0,0.0,0.0,0.0,0.0,0.0,0.0,0.0,0.0,0.0,0.0,0.0,0.0,0.0,0.0,0.0,0.0,0.0,0.0,0.0,0.0,0.0,0.0,0.0,0.0,0.0,0.0,0.0,0.0,0.0,0.0,0.0,0.0,0.0,0.0,0.0,0.0,0.0,0.0,0.0,0.0,0.0,0.0,0.0,0.0,0.0,0.0,0.0,0.0,0.0,0.0,0.0,0.0,0.0,0.0,0.0,0.0,0.0,0.0,0.0,0.0,0.0,0.0,0.0,0.0,2.7731,2.9161,3.0243,3.0486,3.0169,2.9861,2.9673,2.8264,2.7203,2.672,0.0,0.0,0.0,0.0,0.0,0.0,0.0,0.0,0.0,0.0,0.0,0.0,0.0,0.0,0.0,0.0,0.0,0.0,0.0,0.0,0.0,0.0,0.0,0.0,0.0,0.0,0.0,0.0,0.0,0.0,0.0,0.0,0.0,0.0,0.0,0.0,0.0,0.0,0.0,0.0,0.0,0.0,0.0,0.0,0.0,0.0,0.0,0.0,0.0,0.0,0.0,0.0,0.0,0.0,0.0,0.0,0.0,0.0,0.0,0.0,0.0,0.0,0.0,0.0,0.0,0.0,0.0,0.0,0.0,0.0,0.0,0.0,0.0,0.0,0.0,0.0,0.0,0.0,0.0,0.0,0.0,0.0,0.0,0.0,0.0,0.0,0.0,0.0,0.0,0.0,0.0,0.0,0.0,0.0,0.0,0.0,0.0,0.0,0.0,0.0,0.0,0.0,2.8,2.9548,3.0749,3.1151,3.077,3.0359,3.0091,2.8716,2.7556,2.6904,0.0,0.0,0.0,0.0,0.0,0.0,0.0,0.0,0.0,0.0,0.0,0.0,0.0,0.0,0.0,0.0,0.0,0.0,0.0,0.0,0.0,0.0,0.0,0.0,0.0,0.0,0.0,0.0,0.0,0.0,0.0,0.0,0.0,0.0,0.0,0.0,0.0,0.0,0.0,0.0,0.0,0.0,0.0,0.0,0.0,0.0,0.0,0.0,0.0,0.0,0.0,0.0,0.0,0.0,0.0,0.0,0.0,0.0,0.0,0.0,0.0,0.0,0.0,0.0,0.0,0.0,0.0,0.0,0.0,0.0,0.0,0.0,0.0,0.0,0.0,0.0,0.0,0.0,0.0,0.0,0.0,0.0,0.0,0.0,0.0,0.0,0.0,0.0,0.0,0.0,0.0,0.0,0.0,0.0,0.0,0.0,0.0,0.0,0.0,0.0,0.0,0.0,2.811,3.0006,3.1334,3.1397,3.1349,3.1033,3.0362,2.8995,2.7895,2.7168,0.0,0.0,0.0,0.0,0.0,0.0,0.0,0.0,0.0,0.0,0.0,0.0,0.0,0.0,0.0,0.0,0.0,0.0,0.0,0.0,0.0,0.0,0.0,0.0,0.0,0.0,0.0,0.0,0.0,0.0,0.0,0.0,0.0,0.0,0.0,0.0,0.0,0.0,0.0,0.0,0.0,0.0,0.0,0.0,0.0,0.0,0.0,0.0,0.0,0.0,0.0,0.0,0.0,0.0,0.0,0.0,0.0,0.0,0.0,0.0,2.8684,2.7572,0.0,0.0,0.0,0.0,0.0,0.0,0.0,0.0,0.0,0.0,0.0,0.0,0.0,0.0,0.0,0.0,0.0,0.0,0.0,0.0,0.0,0.0,0.0,0.0,0.0,0.0,0.0,0.0,0.0,0.0,0.0,0.0,0.0,0.0,0.0,0.0,0.0,0.0,0.0,0.0,2.8798,3.0749,3.2276,3.2803,3.2361,3.1785,3.1049,2.9698,2.8446,2.7402,2.6142,0.0,0.0,0.0,0.0,0.0,0.0,0.0,0.0,0.0,0.0,0.0,0.0,0.0,0.0,0.0,0.0,0.0,0.0,0.0,0.0,0.0,0.0,0.0,0.0,0.0,0.0,0.0,0.0,0.0,0.0,0.0,0.0,0.0,0.0,0.0,0.0,0.0,0.0,0.0,0.0,0.0,0.0,0.0,0.0,0.0,0.0,0.0,0.0,0.0,0.0,0.0,0.0,0.0,0.0,0.0,0.0,0.0,0.0,0.0,3.1478,3.0227,0.0,0.0,0.0,0.0,0.0,0.0,0.0,0.0,0.0,0.0,0.0,0.0,0.0,0.0,0.0,0.0,0.0,0.0,0.0,0.0,0.0,0.0,0.0,0.0,0.0,0.0,0.0,0.0,0.0,0.0,0.0,0.0,0.0,0.0,0.0,0.0,0.0,0.0,0.0,0.0,2.9838,3.1574,3.2985,3.3853,3.3338,3.2757,3.2385,3.1029,2.9748,2.8673,2.7251,0.0,0.0,0.0,0.0,0.0,0.0,0.0,0.0,0.0,0.0,0.0,0.0,0.0,0.0,0.0,0.0,0.0,0.0,0.0,0.0,0.0,0.0,0.0,0.0,0.0,0.0,0.0,0.0,0.0,0.0,0.0,0.0,0.0,0.0,0.0,0.0,0.0,0.0,0.0,0.0,0.0,0.0,0.0,0.0,0.0,0.0,0.0,0.0,0.0,0.0,0.0,0.0,0.0,3.7291,3.7824,3.7296,3.7802,3.8023,3.7866,3.4969,3.3878,3.3995,3.1923,0.0,0.0,0.0,0.0,0.0,0.0,0.0,0.0,0.0,0.0,0.0,0.0,0.0,0.0,0.0,0.0,0.0,0.0,0.0,0.0,0.0,0.0,3.5051,3.3605,3.478,3.5234,3.1537,0.0,0.0,0.0,0.0,0.0,0.0,0.0,0.0,0.0,0.0,0.0,3.0924,3.2404,3.3713,3.4591,3.4098,3.3679,3.3601,3.2364,3.1134,3.0087,2.8804,2.762,0.0,0.0,0.0,0.0,0.0,0.0,0.0,0.0,0.0,0.0,0.0,0.0,0.0,0.0,0.0,0.0,0.0,0.0,0.0,0.0,0.0,0.0,0.0,0.0,0.0,0.0,0.0,0.0,0.0,0.0,0.0,0.0,3.18,3.2515,0.0,0.0,0.0,0.0,0.0,0.0,0.0,0.0,0.0,0.0,0.0,0.0,0.0,3.7203,3.7765,3.8802,3.9301,3.9317,4.0374,4.0816,4.0734,4.0594,4.0529,4.0467,3.9742,0.0,3.5892,3.4933,0.0,0.0,0.0,0.0,0.0,0.0,0.0,0.0,0.0,0.0,0.0,0.0,0.0,0.0,0.0,0.0,0.0,0.0,0.0,0.0,0.0,0.0,3.8548,3.7971,3.813,3.7978,3.6437,3.3794,3.132,2.9847,2.9934,2.9966,0.0,0.0,0.0,0.0,0.0,0.0,3.1663,3.3313,3.4558,3.4991,3.443,3.3917,3.3627,3.278,3.1753,3.0564,3.0001,2.9332,2.8471,2.7176,0.0,0.0,0.0,0.0,0.0,0.0,0.0,0.0,0.0,0.0,0.0,0.0,0.0,0.0,0.0,0.0,0.0,0.0,0.0,0.0,0.0,0.0,0.0,0.0,0.0,0.0,0.0,0.0,0.0,3.2504,3.363,3.4164,3.4328,3.3896,0.0,0.0,0.0,0.0,0.0,0.0,0.0,0.0,0.0,3.8569,3.8914,3.9407,4.0114,4.0983,4.1403,4.1403,4.2245,4.2638,4.2622,4.2521,4.2462,4.2462,4.2328,4.13,3.9609,3.7362,3.5878,3.4903,0.0,0.0,0.0,0.0,3.4548,3.4713,3.5647,3.5891,3.5737,3.5528,0.0,0.0,0.0,0.0,0.0,0.0,0.0,3.6213,3.7079,3.85,3.962,3.939,3.9891,4.0062,3.8654,3.7485,3.5859,3.2887,3.2581,3.2244,3.0456,3.0143,0.0,0.0,0.0,3.271,3.3498,3.4609,3.547,3.5864,3.5621,3.5391,3.5246,3.4538,3.3782,3.3055,3.165,3.0745,3.0548,2.8988,2.793,0.0,0.0,0.0,0.0,0.0,0.0,0.0,0.0,0.0,0.0,0.0,0.0,0.0,0.0,0.0,0.0,0.0,0.0,0.0,0.0,0.0,0.0,0.0,0.0,0.0,0.0,0.0,0.0,3.4816,3.5693,3.6173,3.6904,3.6643,0.0,0.0,0.0,0.0,0.0,0.0,3.9216,3.9627,4.0155,4.0912,4.111,4.1458,4.1972,4.2489,4.2771,4.2787,4.3333,4.3598,4.3598,4.3598,4.3598,4.3598,4.3598,4.3313,4.2647,3.9786,3.8457,3.8129,3.6975,3.6734,3.7192,3.8274,3.8471,3.8363,3.9617,3.9808,3.937,3.8594,3.8199,3.7694,3.6131,0.0,0.0,0.0,0.0,3.7327,3.847,3.9381,3.9917,3.9722,4.0473,4.0887,3.957,3.9852,3.9332,3.59,3.553,3.501,3.2669,3.2757,0.0,3.2816,3.3865,3.4898,3.5431,3.5993,3.641,3.6623,3.6464,3.6402,3.6502,3.5812,3.5281,3.5019,3.3311,3.2286,3.2206,3.0782,2.9679,2.8988,0.0,0.0,0.0,0.0,0.0,0.0,0.0,0.0,0.0,0.0,0.0,0.0,0.0,0.0,0.0,0.0,0.0,0.0,0.0,0.0,0.0,0.0,0.0,0.0,0.0,0.0,0.0,0.0,0.0,3.8997,3.9725,0.0,0.0,0.0,0.0,3.9106,3.9775,4.0222,4.0315,4.1579,4.234,4.2373,4.3069,4.3449,4.3482,4.3515,4.3532,4.3549,4.3582,4.3598,4.3598,4.3598,4.3598,4.3598,4.3598,4.3671,4.3714,4.2422,4.1449,4.0796,4.0463,4.0541,4.0851,4.1198,4.1943,4.2721,4.2296,4.2611,4.3093,4.229,4.104,3.9558,3.7951,3.7488,0.0,0.0,3.747,3.8611,3.8682,3.9305,3.9813,3.9435,3.9669,3.9864,3.9394,3.9636,3.9566,3.8335,3.837,3.8095,3.6488,0.0,3.6274,3.6256,3.6753,3.7136,3.7171,3.7388,3.7374,3.7018,3.635,3.6075,3.6482,3.5775,3.5287,3.5267,3.4796,3.4084,3.3074,3.2295,3.1371,3.0307,2.9225,0.0,0.0,0.0,0.0,0.0,0.0,0.0,0.0,0.0,0.0,0.0,0.0,0.0,0.0,0.0,0.0,0.0,0.0,0.0,0.0,0.0,0.0,0.0,0.0,0.0,0.0,0.0,0.0,3.9978,4.1028,0.0,3.9464,4.0117,4.0647,4.0647,4.1471,4.2159,4.2641,4.3198,4.3523,4.3523,4.3789,4.3923,4.3923,4.3852,4.3793,4.3793,4.3658,4.3598,4.3598,4.3734,4.3964,4.4254,4.4384,4.4663,4.4995,4.4317,4.3696,4.3176,4.2932,4.3072,4.3439,4.3527,4.3792,4.4114,4.3914,4.4025,4.4153,4.3473,4.2546,4.1579,4.1157,4.0996,4.096,4.0653,4.0996,4.1392,4.1392,4.1626,4.1709,4.1258,4.1101,4.0935,4.0491,4.0352,4.0184,3.9786,3.9637,3.9239,3.8149,3.84,3.8578,3.806,3.8575,3.9054,3.9054,3.9093,3.889,3.8225,3.7927,3.7617,3.7238,3.6957,3.678,3.678,3.5687,3.4854,3.4482,3.3245,3.2152,3.1243,3.084,3.0138,0.0,0.0,0.0,0.0,0.0,0.0,0.0,0.0,0.0,0.0,0.0,0.0,0.0,0.0,0.0,0.0,0.0,0.0,0.0,0.0,0.0,0.0,0.0,0.0,0.0,3.9574,4.0857,4.0857,4.2136,4.2363,4.0696,4.1627,4.2297,4.2297,4.2894,4.3568,4.4302,4.419,4.4332,4.4834,4.4599,4.4465,4.4465,4.4394,4.4219,4.3985,4.3835,4.3776,4.3776,4.391,4.4236,4.4712,4.4838,4.5224,4.5748,4.5393,4.5076,4.4791,4.441,4.4414,4.47,4.5054,4.5165,4.5187,4.529,4.4952,4.4399,4.3712,4.314,4.262,4.2211,4.2285,4.2429,4.2176,4.2085,4.2085,4.2085,4.2085,4.2011,4.1707,4.1464,4.1143,4.0575,4.0473,4.042,4.0184,4.0365,4.0323,3.9516,4.027,4.0719,3.9893,4.041,4.0783,4.0496,4.042,4.0058,3.9292,3.8952,3.8577,3.8041,3.7506,3.7309,3.7577,3.6096,3.5204,3.5186,3.3955,3.2902,3.2117,3.2161,3.1673,3.0682,0.0,0.0,0.0,0.0,0.0,0.0,0.0,0.0,0.0,0.0,0.0,0.0,0.0,0.0,0.0,0.0,0.0,0.0,0.0,0.0,0.0,0.0,0.0,3.9319,4.0745,4.1744,4.1761,4.3158,4.3846,4.3154,4.3729,4.4164,4.4164,4.4164,4.4482,4.5198,4.4578,4.4846,4.627,4.5617,4.5232,4.5215,4.5198,4.4846,4.4097,4.4097,4.4097,4.4097,4.4126,4.4418,4.4937,4.4947,4.5312,4.5887,4.5616,4.5548,4.557,4.4892,4.4607,4.4757,4.5724,4.6079,4.61,4.6367,4.5436,4.3969,4.3191,4.2919,4.2592,4.1053,4.1107,4.156,4.0782,4.0564,4.0564,4.0564,4.0564,4.0564,4.0564,4.0546,4.0329,3.9623,4.0021,4.0293,3.9568,4.0655,4.1415,4.0619,4.1796,4.2574,4.1813,4.2205,0.0,4.1551,4.1286,4.0862,4.0133,3.9364,3.8863,3.881,3.7399,3.6792,3.7542,3.6096,3.5222,3.5221,3.4454,3.3687,3.3005,3.3093,3.3186,3.3252,0.0,0.0,0.0,0.0,0.0,0.0,0.0,0.0,0.0,0.0,0.0,0.0,0.0,0.0,0.0,0.0,0.0,0.0,0.0,0.0,0.0,3.9995,4.1033,4.1153,4.2033,4.2835,4.337,4.4315,4.483,4.4612,4.5252,4.5688,4.5688,4.579,4.5934,4.6135,4.6102,4.6245,4.665,4.6465,4.611,4.5587,4.5408,4.4963,4.4253,4.4155,4.4097,4.4126,4.4597,4.5135,4.5648,4.6123,4.6323,4.628,4.5636,4.5014,4.4586,4.4965,4.5109,4.5127,4.5405,4.5515,4.5536,4.5596,4.4965,4.4059,4.3824,4.3371,4.2829,4.2357,4.2393,4.252,4.2303,4.223,4.223,4.223,4.223,4.223,4.223,4.1796,4.1307,4.1107,4.0764,4.0438,4.0256,4.0528,4.0764,4.0528,4.0854,4.1289,4.165,4.1849,4.2082,4.2427,4.2443,4.2116,4.1321,4.1033,4.0437,3.9337,3.8832,3.8164,3.7226,3.6199,3.5642,3.564,3.4848,3.4612,3.499,3.4478,3.4186,0.0,0.0,0.0,0.0,0.0,0.0,0.0,0.0,0.0,0.0,0.0,0.0,0.0,0.0,0.0,0.0,0.0,0.0,0.0,0.0,0.0,0.0,4.1732,4.2633,4.298,4.3345,4.3826,4.4565,4.511,4.5526,4.5829,4.6249,4.6501,4.6501,4.6591,4.6756,4.7076,4.6895,4.7073,4.7699,4.7428,4.7056,4.665,4.6423,4.5949,4.5228,4.5026,4.4937,4.4947,4.5329,4.58,4.6334,4.673,4.6944,4.692,4.578,4.5019,4.4584,0.0,0.0,0.0,0.0,4.4802,4.4802,4.4802,4.4258,4.3588,4.3588,4.3262,4.2901,4.2901,4.2901,4.2901,4.2901,4.2901,4.2901,4.2901,4.2901,4.2901,4.2901,4.2538,4.2122,4.1759,4.1325,4.089,4.0564,4.0239,0.0,4.0039,4.0293,4.0655,4.1126,4.1198,4.1488,4.2285,4.2393,4.2357,4.223,4.1904,4.1343,4.0437,3.946,0.0,0.0,0.0,3.5804,3.5804,3.5351,0.0,0.0,0.0,0.0,0.0,0.0,0.0,0.0,3.6369,3.6148,0.0,0.0,0.0,0.0,0.0,0.0,0.0,0.0,0.0,0.0,0.0,0.0,0.0,0.0,0.0,0.0,4.3033,4.391,4.4604,4.4626,4.4793,4.5366,4.5735,4.621,4.6853,4.6989,4.7039,4.7039,4.7039,4.7327,4.7973,4.7394,0.0,0.0,0.0,4.8077,4.7992,4.7803,4.7306,4.6591,4.6252,4.6098,4.6098,4.6147,4.6454,4.6908,4.6954,4.7204,4.7464,4.5924,4.5182,4.4892,4.3463,4.2901,4.2992,4.3697,4.3951,4.3951,4.3951,0.0,0.0,4.2901,4.2901,4.2901,4.2901,4.2901,4.2901,4.2901,4.2901,4.2901,4.2901,4.2901,4.2901,4.2901,4.2901,4.2701,4.1976,4.1831,4.1614,4.0908,4.0166,3.9659,3.9659,4.0057,4.0383,4.0383,4.0438,4.0764,4.1469,4.1632,4.1958,4.2683,4.2212,0.0,4.1705,3.9786,3.8843,3.9369,3.7395,3.6202,3.6202,3.6293,3.6671,3.7375,3.81,3.8808,3.9532,4.0184,4.0546,4.0564,3.7668,3.7051,0.0,0.0,0.0,0.0,0.0,0.0,0.0,0.0,0.0,0.0,0.0,0.0,0.0,0.0,0.0,4.301,4.4339,4.5314,4.5466,4.5962,4.6164,4.5696,4.6722,4.7517,4.7652,4.824,4.8578,4.8578,4.8578,4.8646,4.8781,4.8663,4.8714,4.8984,4.933,4.9217,4.8615,4.8369,4.7875,4.7148,4.6435,0.0,4.6098,4.6548,4.6799,4.6931,4.7363,4.7253,4.6667,4.5707,4.453,4.3317,4.3028,4.2901,4.2919,4.3082,4.3118,4.3118,4.3118,4.3028,4.2901,4.2901,4.2901,4.2901,4.2901,4.2901,0.0,4.2901,4.2901,4.2901,4.2901,4.2901,4.2901,4.2901,4.2901,4.2846,4.2701,4.2665,4.2611,4.2466,4.1796,4.1252,4.1252,4.0347,3.9604,3.9604,4.013,4.0546,4.0709,4.1288,4.1759,4.1922,4.2375,4.2411,4.1759,4.127,4.0564,3.946,3.8952,3.8699,3.8699,3.9278,3.9659,3.9822,3.9985,4.013,4.0293,4.042,4.0836,4.1433,4.0166,3.9441,0.0,0.0,0.0,0.0,0.0,0.0,0.0,0.0,0.0,0.0,0.0,4.088,4.1994,0.0,4.3673,4.4434,4.5517,4.6244,4.6244,4.6887,4.7225,4.6853,4.7432,4.8024,4.8426,4.8781,4.9001,4.9001,4.9001,4.9001,4.9001,4.9001,4.9001,4.9001,4.9585,4.9729,4.9367,4.8969,4.8625,4.8236,4.7345,4.6908,4.6908,4.7191,4.7302,4.732,4.7575,4.7482,4.7011,4.5798,4.4349,4.2901,4.2901,4.2901,4.2901,4.2901,4.2901,4.2901,4.2901,4.2901,4.2901,4.2901,4.2901,4.2901,4.2901,4.2901,4.2901,4.2901,4.2901,4.2901,4.2901,4.2901,4.2919,4.2994,4.2994,4.3012,4.305,4.3013,4.2994,4.2994,4.2285,4.1705,4.1705,4.1053,4.0419,4.0021,3.9948,4.0093,4.0438,4.0546,4.0691,4.1053,4.1832,4.214,4.1723,4.1705,4.1198,4.0021,3.9948,3.9948,3.9948,4.0293,4.0492,4.0492,4.0492,4.0492,4.0492,4.0634,4.0904,4.1286,4.1443,4.1592,0.0,0.0,0.0,0.0,0.0,0.0,0.0,3.9631,3.9885,4.1384,4.1885,4.2455,4.3639,4.4485,4.5213,4.5821,4.6532,4.7005,4.7005,4.7665,4.8091,4.8091,4.8091,4.8359,4.8951,4.9001,4.9001,4.9001,4.9001,4.9001,4.9001,4.9001,4.9063,4.9168,4.9744,5.0113,5.0244,4.9667,4.9365,4.9347,4.8247,4.7717,4.7717,4.7717,4.7717,4.7678,4.7536,4.7391,4.712,4.5671,4.4204,4.2901,4.2901,4.2919,4.2938,4.2919,4.2901,4.2901,4.2901,4.2919,4.2938,4.2938,4.2938,4.2938,4.2938,4.2919,4.2901,4.2901,4.2901,4.2919,4.2938,4.2938,4.2975,4.3086,4.3123,4.3123,4.3196,4.316,4.3123,4.3123,4.2504,4.1995,4.1977,4.1977,4.1633,4.0637,4.013,4.0003,4.0438,3.9985,3.984,4.0438,4.1071,4.1469,4.1469,4.1469,4.118,4.0528,4.0492,4.0492,4.0492,4.0492,4.0492,4.0492,4.0492,4.0528,4.0581,4.0789,4.1016,4.1231,4.2117,4.2962,3.7621,3.7982,3.8882,4.04,4.0358,4.0628,0.0,4.2868,4.2354,4.3876,4.4739,4.5263,4.5415,4.6041,4.6566,4.665,4.731,4.78,4.78,4.8426,4.8883,4.8883,4.8883,4.8917,4.9001,4.9001,4.9001,4.9001,4.9001,4.9001,4.9001,4.9001,4.926,4.9774,5.0331,5.0876,5.1398,5.0466,5.0005,4.9987,4.8438,4.7717,4.7717,4.7717,4.7717,4.7663,4.6957,4.6232,4.549,4.4603,4.3697,4.2901,4.2901,4.2975,4.3049,4.2938,4.2901,4.2901,4.2901,4.2975,4.3086,4.3086,4.3086,4.3086,4.3086,4.2994,4.2901,4.2901,4.2901,4.2938,4.3049,4.3086,4.3104,4.316,4.3196,4.3196,4.3196,4.3178,4.3196,4.3196,4.3087,4.2996,4.2941,4.2941,4.2395,4.0745,4.1035,4.1198,4.0583,4.042,4.0401,4.0492,4.0583,4.0619,4.0619,4.0619,4.0601,4.051,4.0492,4.0492,4.0492,4.0492,4.0492,4.0492,4.0492,4.0616,4.0859,4.0892,4.139,4.2318,4.2573,4.2577,4.0231,4.0585,4.1,4.1677,4.1931,4.2344,4.3623,4.3403,4.3267,4.4378,4.5179,4.5703,4.5703,4.665,4.7445,4.7445,4.8071,4.8545,4.8545,4.8815,4.9001,4.9001,4.9001,4.9001,4.9001,4.9001,4.9001,4.9001,4.9001,4.9138,4.9496,4.9526,4.9644,4.989,5.076,5.0944,5.0381,5.0191,4.9854,4.9383,4.8261,4.7717,4.7717,4.7717,4.7717,4.7663,4.6866,4.6092,4.5353,4.4555,4.3776,4.3068,4.3068,4.3123,4.316,4.3049,4.305,4.3068,4.3068,4.3123,4.316,4.316,4.316,4.316,4.316,4.3123,4.3068,4.3068,4.3068,4.3087,4.3142,4.316,4.3178,4.3287,4.3323,4.334,4.3375,4.334,4.3323,4.3323,4.3251,4.3196,4.316,4.316,4.2923,4.2178,4.1851,4.1615,4.1414,4.049,3.9858,3.9858,3.9858,4.0039,4.0456,4.0492,4.0492,4.0492,4.0651,4.0721,4.0721,4.0838,4.0903,4.0903,4.0482,4.0311,4.0441,4.0542,4.0844,4.1301,4.2586,4.3554,4.1694,4.1999,4.2083,4.2489,4.3014,4.3443,4.369,4.3741,4.391,4.4496,4.5179,4.5771,4.5974,4.7056,4.7956,4.8159,4.8663,4.9001,4.9001,4.9001,4.8934,4.8731,4.8714,4.8714,4.8714,4.8883,4.9001,4.9001,4.9001,4.9199,4.9644,4.9803,4.9959,5.0113,5.1096,5.1083,5.0006,5.007,4.9691,4.8891,4.8076,4.7717,4.7717,4.7717,4.7591,4.7319,4.6522,4.5785,4.5123,4.4305,4.3669,4.3214,4.3214,4.3233,4.3251,4.3215,4.3196,4.3214,4.3214,4.3233,4.3251,4.3251,4.3251,4.3251,4.3251,4.3233,4.3214,4.3214,4.3214,4.3214,4.3251,4.3251,4.3286,4.3394,4.3429,4.3446,4.3497,4.3463,4.3429,4.3429,4.334,4.3286,4.3251,4.3251,4.3324,4.3543,4.2759,4.2178,4.2303,4.1015,3.9929,3.9476,3.9586,3.993,4.0438,4.0492,4.0401,4.022,4.0427,4.0471,4.0251,4.0454,4.056,4.056,4.0262,4.0156,4.024,4.0631,4.0988,4.1357,4.3366,4.4997,4.1221,4.1238,4.1593,4.3003,4.3375,4.3606,4.4395,4.4564,4.4581,4.4598,4.5179,4.5923,4.6616,4.7394,4.8125,4.8849,4.8984,4.9001,4.9001,4.9001,4.8748,4.8007,4.7922,4.7922,4.7922,4.8595,4.9001,4.9001,4.9001,4.9001,4.9032,4.9585,5.0142,5.067,5.126,5.1484,5.1239,5.0488,4.9691,4.8891,4.8076,4.7717,4.7717,4.7717,4.7283,4.6504,4.5689,4.4951,4.4268,4.3468,4.316,4.3214,4.3214,4.3269,4.3394,4.3394,4.3323,4.3214,4.3214,4.3287,4.3394,4.3394,4.3394,4.3394,4.3394,4.3286,4.3214,4.3214,4.3214,4.3233,4.3358,4.3394,4.3411,4.348,4.3497,4.3497,4.3515,4.3497,4.3497,4.3497,4.3479,4.3463,4.3412,4.3394,4.365,4.4437,4.3761,4.316,4.316,4.2377,4.1233,3.9653,4.0074,4.0474,4.0492,4.0492,4.0202,3.9478,3.9607,3.939,3.8619,3.8832,3.8966,3.8966,3.9701,4.0257,4.0594,4.1451,4.2447,4.3637,4.5456,4.6751,4.166,4.1576,4.1441,4.2422,4.3047,4.346,4.3741,4.4215,4.4615,4.4615,4.5179,4.5788,4.6024,4.7073,4.7973,4.824,4.8697,4.9001,4.9001,4.9001,4.8917,4.8663,4.8646,4.8646,4.8646,4.8426,4.8477,4.8968,4.9001,4.9168,4.9585,4.9774,5.0142,5.068,5.1286,5.105,4.9912,5.0042,4.942,4.8094,4.7844,4.7717,4.7717,4.7717,4.7554,4.7228,4.5987,4.5321,4.5072,4.3816,4.334,4.341,4.341,4.3428,4.3463,4.3463,4.3445,4.341,4.341,4.3428,4.3463,4.3463,4.3463,4.3463,4.3463,4.3428,4.341,4.341,4.341,4.341,4.3445,4.3463,4.3463,4.3479,4.3515,4.3515,4.3515,4.3515,4.3515,4.3515,4.3515,4.3497,4.3463,4.3463,4.3738,4.4545,4.4399,4.376,4.2558,4.2229,4.1748,4.0793,4.0887,4.1066,4.1156,4.0997,4.0824,4.0666,4.0803,4.0856,4.0756,4.107,4.1224,4.1224,4.1487,4.1682,4.181,4.2679,4.3295,4.3744,4.5551,4.6827,4.1711,4.1356,4.1052,4.2049,4.2658,4.3081,4.3325,4.4012,4.4615,4.4615,4.4976,4.5382,4.5652,4.6481,4.728,4.7804,4.8308,4.8714,4.8968,4.9001,4.89,4.8646,4.8612,4.8612,4.8612,4.8189,4.8193,4.8951,4.9001,4.9168,4.9555,4.9832,5.0226,5.0751,5.1071,5.0712,4.9639,4.9671,4.9003,4.7717,4.7717,4.7717,4.7717,4.7717,4.7575,4.7272,4.6047,4.5399,4.5148,4.3907,4.3446,4.3515,4.3515,4.3515,4.3515,4.3515,4.3515,4.3515,4.3515,4.3515,4.3515,4.3515,4.3515,4.3515,4.3515,4.3515,4.3515,4.3515,4.3515,4.3515,4.3515,4.3515,4.3515,4.3515,4.3515,4.3515,4.3515,4.3515,4.3515,4.3515,4.3515,4.3515,4.3515,4.3992,4.4433,4.4672,4.5186,4.482,4.2791,4.2845,4.2727,4.1856,4.2004,4.223,4.2418,4.2266,4.2079,4.1895,4.2037,4.2094,4.198,4.2257,4.2386,4.2386,4.272,4.2883,4.2948,4.3783,4.4376,4.4745,4.6203,4.7171,4.1339,4.0629,4.0451,4.183,4.2202,4.2439,4.32,4.3961,4.4564,4.4598,4.4615,4.4818,4.5466,4.5652,4.6177,4.7551,4.7838,4.8173,4.89,4.9001,4.8748,4.8024,4.7939,4.7939,4.7939,4.7939,4.8257,4.8951,4.9001,4.8984,4.8951,4.9605,5.0223,5.0761,5.0603,5.0464,5.0341,4.9346,4.8478,4.7717,4.7699,4.7699,4.7717,4.7717,4.7363,4.6721,4.5886,4.5201,4.4602,4.376,4.3446,4.3515,4.3515,4.3515,4.3515,4.3515,4.3515,4.3515,4.3515,4.3515,4.3515,4.3515,4.3515,4.3515,4.3515,4.3515,4.3515,4.3515,4.3515,4.3515,4.3515,4.3515,4.3515,4.3515,4.3515,4.3515,4.3515,4.3515,4.3515,4.3515,4.3515,4.3515,4.3515,4.48,4.5626,4.4837,4.6122,4.6287,4.3936,4.4215,4.4156,4.2909,4.3378,4.3865,4.4132,4.4146,4.3824,4.3049,4.3233,4.3032,4.2278,4.243,4.2542,4.2542,4.3357,4.3833,4.3983,4.4733,4.5589,4.6519,4.7349,4.775,4.0434,4.0248,4.0197,4.057,4.1068,4.1677,4.2405,4.3166,4.3876,4.4496,4.4615,4.4479,4.4062,4.4942,4.5821,4.621,4.7162,4.8173,4.89,4.9001,4.8934,4.8748,4.8731,4.8731,4.8731,4.8731,4.8798,4.8984,4.9001,4.8765,4.8193,4.8443,4.8769,4.9176,4.9235,4.9346,4.9503,4.8613,4.8084,4.7911,4.7884,4.7884,4.7911,4.7911,4.784,4.7607,4.6299,4.5644,4.5407,4.4032,4.348,4.3515,4.3515,4.3515,4.3515,4.3515,4.3515,4.3515,4.3515,4.3515,4.3515,4.3515,4.3515,4.3515,4.3515,4.3515,4.3515,4.3515,4.3515,4.3515,4.3515,4.3515,4.3515,4.3515,4.3515,4.3515,4.3515,4.3515,4.3515,4.3515,4.3515,4.3515,4.3515,4.4546,4.5307,4.5084,4.665,4.7311,4.5855,4.5307,4.509,4.5205,4.4785,4.4612,4.4826,4.465,4.4491,4.4405,4.4367,4.4335,4.4334,4.4489,4.4554,4.4554,4.4783,4.4908,4.494,4.514,4.5676,4.6519,4.6729,4.7177,4.0197,4.0096,4.0096,4.0096,4.0882,4.1711,4.1796,4.2642,4.3453,4.3555,4.3599,4.3436,4.2997,4.3893,4.4925,4.5602,4.6684,4.78,4.8849,4.9001,4.9001,4.9001,4.9063,4.9063,4.9001,4.8836,4.871,4.8602,4.8558,4.8342,4.8026,4.7818,4.8017,4.8753,4.8526,4.8493,4.8685,4.8245,4.8008,4.7992,4.7968,4.7949,4.7992,4.7992,4.8032,4.7999,4.6467,4.5828,4.5718,4.4141,4.3515,4.3515,4.3515,4.3515,4.3515,4.3515,4.3515,4.3515,4.3515,4.3599,4.3699,4.3566,4.3515,4.3515,4.3515,4.3515,4.3515,4.3515,4.3515,4.3515,4.3515,4.3515,4.3515,4.3515,4.3515,4.3515,4.3515,4.3515,4.3515,4.3515,4.3515,4.3566,4.3699,4.4545,4.5241,4.5363,4.6933,4.792,4.7436,4.6846,4.639,4.6121,4.5665,4.5321,4.5208,4.5053,4.5007,4.5061,4.5007,4.5042,4.5181,4.5265,4.5307,4.5307,4.5307,4.5307,4.5307,4.5307,4.5698,4.65,4.65,4.6768,4.0282,4.0096,4.0096,4.0096,4.1145,4.1982,4.1356,4.2286,4.3081,4.2422,4.2286,4.2252,4.2168,4.2844,4.3876,4.5331,4.6244,4.731,4.8798,4.9001,4.9001,4.9001,4.9107,4.9138,4.9032,4.8643,4.8319,4.8141,4.7836,4.7704,4.7835,4.7351,4.758,4.8697,4.8217,4.7967,4.8032,4.8148,4.8148,4.8052,4.8032,4.8032,4.8052,4.8052,4.811,4.8134,4.6615,4.5938,4.5773,4.4268,4.3606,4.3515,4.3515,4.3515,4.3515,4.3515,4.3515,4.3515,4.3515,4.3716,4.3958,4.3666,4.3565,4.3565,4.3565,4.3549,4.3515,4.3515,4.3515,4.3515,4.3515,4.3515,4.3515,4.3515,4.3515,4.3515,4.3515,4.3515,4.3515,4.3515,4.3549,4.3666,4.3958,4.464,4.5226,4.5458,4.6859,4.799,4.8268,4.8136,4.7556,4.6449,4.6125,4.581,4.5343,4.5307,4.5307,4.5307,4.5307,4.5364,4.5449,4.5364,4.5364,4.5449,4.5354,4.5307,4.5307,4.5307,4.5698,4.65,4.6385,4.6405,4.013,4.0096,4.0096,4.0096,4.0747,4.1373,4.1238,4.1863,4.2439,4.232,4.2286,4.21,4.1508,4.2506,4.3724,4.4649,4.5906,4.731,4.8798,4.9001,4.9001,4.9001,4.9107,4.9199,4.9168,4.8686,4.8394,4.8348,4.713,4.6431,4.6459,4.6463,4.6708,4.7249,4.788,4.8239,4.8248,4.8226,4.8226,4.8248,4.8189,4.8189,4.8248,4.8248,4.8267,4.8231,4.7277,4.6507,4.5828,4.4892,4.4103,4.3515,4.3515,4.3515,4.3515,4.3515,4.3515,4.3515,4.3515,4.3716,4.3989,4.3942,4.391,4.391,4.391,4.3716,4.3515,4.3515,4.3515,4.3515,4.3515,4.3515,4.3515,4.3515,4.3515,4.3515,4.3515,4.3515,4.3515,4.3515,4.3732,4.3942,4.3989,4.4473,4.489,4.4922,4.5991,4.6797,4.6862,4.7188,4.746,4.7499,4.6274,4.5398,4.5316,4.5307,4.5307,4.5307,4.5307,4.5602,4.6271,4.564,4.5602,4.629,4.564,4.5307,4.5307,4.5307,4.5698,4.6481,4.5812,4.5851,4.0096,4.0096,4.0197,4.0561,4.1221,4.1677,4.1288,4.1762,4.2066,4.1314,4.1162,4.106,4.0679,4.1525,4.2642,4.3792,4.4908,4.6295,4.8173,4.8443,4.8578,4.8951,4.9107,4.9199,4.9199,4.8433,4.7929,4.7929,4.6847,4.6167,4.6199,4.6456,4.6691,4.6886,4.7795,4.8306,4.8306,4.8267,4.8267,4.8306,4.8267,4.8267,4.8306,4.8306,4.8306,4.8233,4.7021,4.6269,4.581,4.458,4.3846,4.3515,4.3515,4.3515,4.3515,4.3515,4.3515,4.3513,4.3699,4.3952,4.4236,4.436,4.4318,4.4206,4.4206,4.3999,4.3765,4.3765,4.3632,4.3515,4.3515,4.3515,4.3515,4.3515,4.3515,4.3515,4.3515,4.3515,4.3515,4.3515,4.3781,4.4048,4.4177,4.4552,4.4856,4.5034,4.587,4.65,4.65,4.6714,4.6957,4.7109,4.6405,4.5755,4.5345,4.5307,4.5307,4.5307,4.5307,4.5468,4.5851,4.5507,4.5468,4.587,4.5488,4.5307,4.5307,4.5307,4.5488,4.587,4.5468,4.5507,4.0146,4.0096,4.0282,4.1018,4.1745,4.21,4.1373,4.1762,4.1863,4.04,4.0096,4.0096,4.0096,4.0696,4.1694,4.3156,4.4079,4.5365,4.7597,4.7889,4.8159,4.8917,4.9155,4.9192,4.9039,4.8277,4.7681,4.7476,4.6774,4.6325,4.6278,4.6784,4.6981,4.6908,4.7795,4.8306,4.8306,4.8306,4.8306,4.8306,4.8306,4.8306,4.8306,4.8306,4.8306,4.8233,4.6966,4.6214,4.5792,4.4525,4.3809,4.3515,4.3515,4.3515,4.3515,4.3515,4.3515,4.3566,4.3894,4.4181,4.4438,4.4714,4.4663,4.4479,4.4479,4.4308,4.4094,4.4094,4.386,4.3599,4.3599,4.3548,4.3515,4.3515,4.3548,4.3599,4.3599,4.3647,4.3679,4.3679,4.3952,4.4236,4.4438,4.4733,4.5011,4.5256,4.5831,4.6233,4.6233,4.6233,4.6233,4.6233,4.6233,4.5984,4.5364,4.5307,4.5307,4.5307,4.5307,4.5383,4.5545,4.5392,4.5373,4.5545,4.5403,4.5307,4.5307,4.5307,4.5307,4.5307,4.5307,4.5307,4.0282,4.0096,4.0282,4.1018,4.1745,4.21,4.1373,4.1762,4.1863,4.04,4.0096,4.0096,4.0096,4.0696,4.1694,4.3156,4.4079,4.5365,4.7597,4.7889,4.8159,4.8917,4.9277,4.9214,4.8548,4.8604,4.828,4.7385,4.7015,4.6643,4.6242,4.7062,4.7335,4.6908,4.7795,4.8306,4.8306,4.8306,4.8306,4.8306,4.8306,4.8306,4.8306,4.8306,4.8306,4.8306,4.8141,4.726,4.5883,4.5736,4.4819,4.3515,4.3515,4.3515,4.3515,4.3515,4.3515,4.3566,4.3894,4.4181,4.4438,4.4714,4.4776,4.4763,4.4763,4.4572,4.4374,4.4374,4.4181,4.3958,4.3958,4.3732,4.3515,4.3515,4.3732,4.3958,4.3958,4.4147,4.4313,4.4313,4.4533,4.4726,4.4751,4.5034,4.5256,4.5297,4.5354,4.5411,4.5411,4.5411,4.5411,4.5411,4.5411,4.5373,4.5307,4.5307,4.5307,4.5307,4.5307,4.5621,4.6366,4.5679,4.564,4.6385,4.566,4.5307,4.5307,4.5307,4.5307,4.5307,4.5307,4.5307,4.0713,4.0747,4.0933,4.1677,4.2422,4.2777,4.2033,4.2083,4.1863,4.04,4.0096,4.0096,4.0096,4.035,4.1069,4.2622,4.3051,4.4022,4.6377,4.6641,4.7052,4.8293,4.8579,4.8709,4.8916,4.8379,4.7748,4.7121,4.7228,4.7248,4.7031,4.7399,4.7506,4.7335,4.7955,4.8306,4.8306,4.8306,4.8306,4.8306,4.8306,4.8306,4.8306,4.8306,4.8306,4.8269,4.7791,4.6948,4.5865,4.5388,4.4507,4.3515,4.3515,4.3515,4.3515,4.3515,4.3515,4.3582,4.4072,4.4303,4.4484,4.4953,4.5098,4.5098,4.5098,4.4887,4.4637,4.4637,4.4318,4.4005,4.4005,4.391,4.3749,4.3566,4.3889,4.4192,4.4033,4.4206,4.4397,4.4397,4.4612,4.4788,4.4788,4.5087,4.5307,4.5307,4.5307,4.5307,4.5307,4.5307,4.5307,4.5307,4.5307,4.5307,4.5307,4.5307,4.5307,4.5307,4.5307,4.543,4.5755,4.5468,4.5449,4.5774,4.5449,4.5307,4.5307,4.5307,4.5307,4.5307,4.5307,4.5307,4.1119,4.1373,4.1644,4.2168,4.2692,4.2946,4.2422,4.2117,4.161,4.0367,4.0096,4.0096,4.0096,4.0096,4.057,4.1954,4.2257,4.3051,4.5258,4.5637,4.6189,4.7543,4.7738,4.7928,4.8335,4.7723,4.7356,4.7438,4.7672,4.7816,4.7816,4.7816,4.7736,4.7611,4.8055,4.8306,4.8306,4.8306,4.8306,4.8306,4.8306,4.8306,4.8306,4.8306,4.8306,4.8269,4.77,4.6984,4.6195,4.5388,4.458,4.3828,4.3589,4.3515,4.3515,4.3515,4.3515,4.3582,4.4102,4.4332,4.4479,4.4988,4.5224,4.5307,4.5307,4.5151,4.4946,4.4946,4.4552,4.4091,4.4036,4.4005,4.3942,4.3699,4.4084,4.4484,4.4279,4.4457,4.4669,4.4669,4.4807,4.4946,4.4946,4.5132,4.5307,4.5307,4.5307,4.5307,4.5307,4.5307,4.5307,4.5307,4.5307,4.5307,4.5307,4.5307,4.5307,4.5307,4.5307,4.5307,4.5307,4.5307,4.5307,4.5307,4.5307,4.5307,4.5307,4.5307,4.5307,4.5307,4.5307,4.5307,4.1407,4.1728,4.2286,4.2286,4.2303,4.2303,4.2286,4.1728,4.1001,4.0265,4.0096,4.0096,4.0096,4.0096,4.04,4.1274,4.1918,4.2864,4.4483,4.5269,4.5974,4.6718,4.6932,4.6788,4.618,4.66,4.7411,4.8591,4.8433,4.8287,4.8287,4.8287,4.8075,4.7611,4.8055,4.8306,4.8306,4.8306,4.8306,4.8306,4.8306,4.8306,4.8306,4.8306,4.8306,4.8306,4.8306,4.7828,4.7021,4.6214,4.5406,4.4617,4.3809,4.3515,4.3515,4.3515,4.3515,4.3548,4.3894,4.4181,4.4438,4.4714,4.5034,4.5307,4.5307,4.5297,4.5297,4.5297,4.485,4.4332,4.4079,4.4005,4.4005,4.4005,4.4402,4.4807,4.4788,4.5045,4.5297,4.5297,4.5297,4.5297,4.5297,4.5297,4.5307,4.5307,4.5307,4.5307,4.5307,4.5307,4.5307,4.5307,4.5307,4.5307,4.5307,4.5307,4.5307,4.5307,4.5307,4.5307,4.5307,4.5307,4.5307,4.5307,4.5307,4.5307,4.5307,4.5307,4.5307,4.5307,4.5307,4.5307,4.1271,4.1728,4.2168,4.1677,4.1931,4.2168,4.166,4.1373,4.0984,4.0265,4.0096,4.0096,4.0096,4.0096,4.0595,4.2117,4.2388,4.3008,4.4674,4.5516,4.6202,4.6793,4.7616,4.7955,4.7442,4.7675,4.7884,4.7935,4.8181,4.8306,4.8306,4.8306,4.823,4.8075,4.821,4.8306,4.8306,4.8306,4.8306,4.8306,4.8306,4.8306,4.8306,4.8306,4.8306,4.8306,4.8306,4.7828,4.7039,4.6232,4.5424,4.4618,4.3809,4.3515,4.3515,4.3515,4.3515,4.3566,4.3894,4.4181,4.4438,4.4714,4.5034,4.5307,4.5307,4.5307,4.5213,4.4801,4.4552,4.4289,4.3795,4.3949,4.4236,4.4033,4.4584,4.5087,4.4856,4.5057,4.5307,4.5307,4.5307,4.5307,4.5307,4.5307,4.5307,4.5307,4.5307,4.5307,4.5307,4.5307,4.5307,4.5307,4.5307,4.5307,4.5307,4.5307,4.5307,4.5307,4.5307,4.5307,4.5307,4.5307,4.5307,4.5307,4.5307,4.5307,4.5307,4.5307,4.5307,4.5307,4.5307,4.5307,4.0713,4.1525,4.2117,4.139,4.1542,4.1762,4.1305,4.0984,4.0646,4.0197,4.0096,4.0096,4.0096,4.0096,4.0493,4.1665,4.2219,4.2883,4.396,4.5279,4.6302,4.6821,4.753,4.7904,4.7769,4.7922,4.7995,4.7877,4.8132,4.8306,4.8306,4.8306,4.8306,4.8306,4.8306,4.8306,4.8306,4.8306,4.8306,4.8306,4.8306,4.8306,4.8306,4.8306,4.8306,4.8306,4.8306,4.7828,0.0,4.6232,4.5424,4.4618,4.3809,4.3515,4.3515,4.3515,4.3515,4.3513,4.3749,4.4072,4.4443,4.4599,4.4934,4.5307,4.5307,4.5307,4.5224,4.4838,4.4656,4.4465,4.408,4.427,4.4506,4.4332,4.4801,4.5246,4.5034,4.5143,4.5307,4.5307,4.5307,4.5307,4.5307,4.5307,4.5307,4.5307,4.5307,4.5307,4.5307,4.5307,4.5307,4.5307,4.5307,4.5307,4.5307,4.5307,4.5307,4.5307,4.5307,4.5307,4.5307,4.5307,4.5307,4.5307,4.5307,4.5307,4.5307,4.5307,4.5307,4.5307,4.5307,4.5307,0.0,4.095,4.188,4.1153,4.1001,4.1035,4.0984,4.0476,0.0,3.996,3.9994,4.0045,4.0096,4.0113,4.0197,4.0441,4.1622,4.2593,4.2765,4.4744,4.6343,4.6908,4.6883,4.6986,4.7406,4.7591,4.7836,4.8267,4.8306,4.8306,4.8306,4.8306,4.8306,4.8306,4.8306,4.8306,4.8306,4.8306,4.8306,4.8306,4.8306,4.8306,4.8306,4.8251,4.8251,4.8306,4.8177,4.7736,4.7021,4.6177,4.5369,4.4618,4.3809,4.3515,4.3515,4.3515,4.3515,4.3515,4.3515,4.3886,4.4388,4.443,4.4826,4.5307,4.5307,4.5307,4.5297,4.5267,4.5034,4.4807,4.4776,4.4776,4.4788,4.4788,4.5045,4.5307,4.5307,4.5307,4.5307,4.5307,4.5307,4.5307,4.5307,4.5307,4.5307,4.5307,4.5307,4.5307,4.5307,4.5307,4.5307,4.5307,4.5307,4.5307,4.5307,4.5307,4.5307,4.5307,4.5307,4.5307,4.5307,4.5307,4.5307,4.5307,4.5307,4.5307,4.5307,4.5307,4.5307,4.5307,4.5307,4.5307,3.754,0.0,3.9597,3.887,3.9106,3.936,0.0,3.8971,3.9089,3.8531,3.887,3.9428,4.0003,4.018,4.0662,4.1929,4.2552,4.3074,4.3683,4.5391,4.6852,4.7647,4.7847,4.7975,4.8075,4.8132,4.8172,4.8287,4.8306,4.8306,4.8306,4.8306,4.8306,4.8306,4.8306,4.8306,4.8306,4.8306,4.8306,4.8306,4.8306,4.8306,4.8288,4.7663,4.7718,4.8233,4.7003,4.6709,4.6984,4.5572,4.4856,4.4618,4.3809,4.3515,4.3515,4.3515,4.3515,4.3515,4.3515,4.3763,4.4166,4.4572,4.4976,4.5307,4.5307,4.5307,4.5246,4.4981,4.4856,4.4751,4.4546,4.465,4.4788,4.4788,4.5045,4.5307,4.5307,4.5307,4.5307,4.5307,4.5307,4.5307,4.5307,4.5307,4.5307,4.5307,4.5307,4.5307,4.5307,4.5307,4.5307,4.5307,4.5307,4.5307,4.5307,4.5307,4.5307,4.5307,4.5307,4.5307,4.5307,4.5307,4.5307,4.5307,4.5307,4.5307,4.5307,4.5307,4.5307,4.5307,4.5307,4.5307,3.6248,3.7838,3.9411,3.9005,3.9208,3.9411,3.8997,3.87,3.8379,3.799,3.8481,3.9123,3.9529,4.0256,4.1078,4.1972,4.3081,4.4212,4.5415,4.6466,4.7317,4.7938,4.8185,4.8306,4.8306,4.8306,4.8306,4.8306,4.8306,4.8306,4.8306,4.8306,4.8306,4.8306,4.8306,4.8306,4.8306,4.8306,4.8306,4.8306,4.8306,4.8306,4.8269,4.7461,4.7333,4.7681,4.6434,4.5938,4.592,4.5058,4.4488,4.4103,4.3663,4.3515,4.3515,4.3515,4.3515,4.3515,4.3515,4.3793,4.425,4.4682,4.5034,4.5307,4.5307,4.5184,4.5057,4.5034,4.4922,4.4788,4.4814,4.491,4.5034,4.5034,4.5173,4.5307,4.5307,4.5307,4.5307,4.5307,4.5307,4.5307,4.5307,4.5307,4.5307,4.5307,4.5307,4.5307,4.5307,4.5307,4.5307,4.5307,4.5307,4.5307,4.5307,4.5307,4.5307,4.5307,4.5307,4.5307,4.5307,4.5307,4.5307,4.5307,4.5307,4.5307,4.5307,4.5307,4.5307,4.5307,4.5307,4.5307,3.5887,3.7966,4.002,3.969,3.9851,4.0045,3.9809,3.8862,3.8041,3.7922,3.8481,3.9097,3.9317,4.0493,4.1512,4.1776,4.3521,4.5387,4.6998,4.746,4.7677,4.7898,4.8154,4.8306,4.8306,4.8306,4.8306,4.8306,4.8306,4.8306,4.8306,4.8306,4.8306,4.8306,4.8306,4.8251,4.8122,4.8251,4.8306,4.8306,4.8196,4.8122,4.8104,4.7149,4.6801,4.6856,4.5938,4.5223,4.4691,4.458,4.4121,4.3515,4.3515,4.3515,4.3515,4.3515,4.3515,4.3515,4.3515,4.3855,4.4388,4.4599,4.4922,4.5224,4.5192,4.4957,4.4807,4.5076,4.4988,4.4879,4.5205,4.5307,4.5307,4.5307,4.5307,4.5307,4.5307,4.5307,4.5307,4.5307,4.5307,4.5307,4.5307,4.5307,4.5307,4.5307,4.5307,4.5307,4.5307,4.5307,4.5307,4.5307,4.5307,4.5307,4.5307,4.5307,4.5307,4.5307,4.5307,4.5307,4.5307,4.5307,4.5307,4.5307,4.5307,4.5307,4.5307,4.5307,4.5307,4.5307,4.5307,4.5307,3.7172,3.8802,3.9656,3.7777,3.8717,3.9758,3.8507,3.8548,3.865,3.8041,3.8481,3.9427,4.0764,4.1324,4.2031,4.346,4.4414,4.5434,4.676,4.732,4.7624,4.7669,4.8048,4.8306,4.8306,4.8306,4.8306,4.8306,4.8306,4.8306,4.8306,4.8306,4.8306,4.8306,4.8306,4.7957,4.7278,4.7957,4.8306,4.8306,4.7608,4.7278,4.7223,4.5737,4.5443,4.5993,4.4507,4.4176,4.4636,4.3975,4.3608,4.3515,4.3515,4.3515,4.3515,4.3515,4.3515,4.3515,4.3515,4.3747,4.4064,4.4106,4.4457,4.4831,4.4617,4.4493,4.4465,4.4506,4.4663,4.4879,4.5205,4.5307,4.5307,4.5307,4.5307,4.5307,4.5307,4.5307,4.5307,4.5307,4.5307,4.5307,4.5307,4.5307,4.5307,4.5307,4.5307,4.5307,4.5307,4.5307,4.5307,4.5307,4.5307,4.5307,4.5307,4.5307,4.5307,4.5307,4.5307,4.5307,4.5307,4.5307,4.5307,4.5307,4.5307,4.5307,4.5307,4.5307,4.5307,4.5307,4.5307,4.5307,3.6462,3.8058,3.9242,3.8251,3.9648,4.1018,3.9935,3.9631,3.9503,3.9157,3.9681,4.0443,4.1248,4.2185,4.3434,4.5327,4.6063,4.6619,4.7194,4.7674,4.7877,4.7632,4.8015,4.8306,4.8306,4.8306,4.8306,4.8306,4.8306,4.8306,4.8306,4.8306,4.8306,4.8306,4.8306,4.7901,4.7113,4.7461,4.7443,4.7003,4.6636,4.6452,4.6416,4.5241,4.4893,4.5186,4.4011,4.3699,4.4011,4.3662,4.3515,4.3515,4.3515,4.3515,4.3515,4.3515,4.3515,4.3515,4.3515,4.3716,4.4005,4.4005,4.4265,4.4559,4.4425,4.4289,4.425,4.4533,4.4599,4.465,4.4946,4.5173,4.5307,4.5307,4.5307,4.5307,4.5307,4.5307,4.5307,4.5307,4.5307,4.5307,4.5307,4.5307,4.5307,4.5307,4.5307,4.5307,4.5307,4.5307,4.5307,4.5307,4.5307,4.5307,4.5307,4.5307,4.5307,4.5307,4.5307,4.5307,4.5307,4.5307,4.5307,4.5307,4.5307,4.5307,4.5307,4.5307,4.5307,4.5307,4.5307,4.5317,3.6039,3.7415,3.8768,3.8954,4.0392,4.1728,4.1508,4.0637,3.9993,4.0332,4.0739,4.1112,4.1435,4.2954,4.4703,4.6356,4.7165,4.7632,4.7754,4.8075,4.8172,4.7816,4.8075,4.8306,4.8306,4.8306,4.8306,4.8306,4.8306,4.8306,4.8306,4.8306,4.8306,4.8306,4.8122,4.7626,4.6819,4.6636,4.6305,4.5902,4.5718,4.5626,4.559,4.48,4.4415,4.4378,4.3754,4.3515,4.3515,4.3515,4.3515,4.3515,4.3515,4.3515,4.3515,4.3515,4.3515,4.3515,4.3515,4.3666,4.3894,4.3894,4.4075,4.4303,4.4303,4.4206,4.4181,4.4585,4.4599,4.4559,4.4843,4.5109,4.5307,4.5307,4.5307,4.5307,4.5307,4.5307,4.5307,4.5307,4.5307,4.5307,4.5307,4.5307,4.5307,4.5317,4.5307,4.5307,4.5317,4.5307,4.5307,4.5307,4.5307,4.5307,4.5307,4.5307,4.5307,4.5307,4.5307,4.5307,4.5307,4.5317,4.5317,4.5307,4.5317,4.5317,4.5307,4.5307,4.5307,4.5307,4.5317,4.5348,3.7364,3.7855,3.8142,3.8819,3.9631,4.0586,4.1914,4.0697,3.9651,4.1019,4.0898,4.08,4.1626,4.3496,4.5111,4.5699,4.6809,4.7736,4.8191,4.8287,4.8287,4.8267,4.8287,4.8306,4.8306,4.8306,4.8306,4.8306,4.8306,4.8306,4.8306,4.8306,4.8306,4.8306,4.7571,4.6801,4.5993,4.5259,4.5223,4.5883,4.5149,4.4783,4.4746,4.3956,4.3589,4.3588,4.3533,4.3515,4.3515,4.3515,4.3515,4.3515,4.3515,4.3515,4.3515,4.3515,4.3515,4.3515,4.3515,4.3532,4.3549,4.3549,4.3765,4.4017,4.4017,4.4177,4.4388,4.4411,4.4599,4.4843,4.5173,4.5267,4.5307,4.5307,4.5307,4.5307,4.5307,4.5307,4.5307,4.5307,4.5307,4.5307,4.5307,4.5307,4.5317,4.5369,4.5338,4.5317,4.5369,4.5338,4.5307,4.5307,4.5307,4.5307,4.5307,4.5307,4.5307,4.5307,4.5307,4.5307,4.5307,4.5348,4.5359,4.5307,4.5359,4.5359,4.5307,4.5307,4.5307,4.5307,4.5359,4.5398,3.6309,3.7587,3.8795,3.9059,4.0101,4.1052,4.1053,4.1214,4.1537,4.21,4.2031,4.2063,4.2784,4.4145,4.5176,4.5363,4.6461,4.7344,4.7534,4.7994,4.8306,4.8306,4.8306,4.8306,4.8306,4.8306,4.8104,4.759,4.8012,4.8067,4.7571,4.7553,4.7553,4.7553,4.6783,4.5975,4.5168,4.4856,4.4599,4.4397,4.4103,4.3956,4.3938,4.3626,4.3515,4.3515,4.3515,4.3515,4.3515,4.3515,4.3515,4.3515,4.3515,4.3515,4.3515,4.3515,4.3515,4.3515,4.3515,4.3632,4.3781,4.3565,4.3732,4.4005,4.4005,4.4079,4.4221,4.4546,4.4714,4.4831,4.4957,4.5132,4.5307,4.5307,4.5307,4.5307,4.5307,4.5307,4.5307,4.5307,4.5328,4.5359,4.5359,4.5359,4.5369,4.5409,4.5389,4.5359,4.5398,4.5388,4.5338,4.5307,4.5307,4.5307,4.5307,4.5338,4.5359,4.5359,4.5317,4.5317,4.5348,4.5398,4.5389,4.5361,4.5389,4.5398,4.5359,4.5317,4.5317,4.5378,4.5905,4.6185,3.5667,3.7017,3.8595,3.9064,3.9907,4.0551,4.0453,4.1288,4.2125,4.2364,4.2362,4.2476,4.305,4.4082,4.4834,4.4834,4.5896,4.6709,4.6709,4.7406,4.7921,4.7921,4.8159,4.8306,4.8306,4.8086,4.7681,4.7131,4.7388,4.7315,4.6746,4.6709,4.6709,4.6709,4.5938,4.5259,4.4727,4.4452,4.4048,4.3515,4.3515,4.3515,4.3515,4.3515,4.3515,4.3515,4.3515,4.3515,4.3515,4.3515,4.3515,4.3515,4.3515,4.3515,4.3515,4.3515,4.3515,4.3515,4.3515,4.3716,4.3942,4.3599,4.3779,4.4121,4.4121,4.4196,4.4365,4.4819,4.4957,4.4957,4.4957,4.5121,4.5307,4.5307,4.5307,4.5307,4.5328,4.5328,4.5338,4.5329,4.537,4.539,4.539,4.539,4.5409,4.5419,4.541,4.5419,4.5438,4.5409,4.5369,4.5307,4.5307,4.5307,4.5307,4.5359,4.5408,4.5408,4.5369,4.535,4.5409,4.5429,4.5429,4.54,4.5429,4.5419,4.5408,4.535,4.5369,4.5427,4.6271,4.6714,3.5825,3.6231,3.7296,3.8799,3.8818,3.8849,4.0353,4.0697,4.0903,4.1641,4.1644,4.1648,4.2115,4.3242,4.4097,4.4097,4.5112,4.5883,4.5883,4.6581,4.7094,4.7094,4.7791,4.8306,4.8306,4.7571,4.7094,4.7076,4.6361,4.5902,4.5883,4.5883,4.5883,4.5883,4.5112,4.4691,4.4691,4.3901,4.3515,4.3515,4.3515,4.3515,4.3515,4.3515,4.3515,4.3515,4.3515,4.3515,4.3515,4.3515,4.3515,4.3515,4.3515,4.3515,4.3515,4.3515,4.3515,4.3515,4.3515,4.3732,4.3958,4.3599,4.3918,4.4397,4.4397,4.4585,4.4868,4.5213,4.5307,4.5307,4.5307,4.5307,4.5307,4.5307,4.5307,4.5317,4.5398,4.5408,4.5399,4.539,4.541,4.541,4.541,4.541,4.5419,4.5495,4.5438,4.5429,4.5495,4.5448,4.5407,4.5326,4.5326,4.5326,4.5326,4.5378,4.5408,4.5408,4.5419,4.541,4.541,4.5457,4.5476,4.541,4.5476,4.5467,4.5408,4.54,4.54,4.5446,4.6388,4.682,3.5314,3.6831,3.8774,3.8648,4.0229,4.1623,4.0978,4.084,4.097,4.1487,4.2065,4.2536,4.2673,4.3232,4.3687,4.3687,4.4454,4.5057,4.5057,4.5755,4.6471,4.7021,4.7314,4.7461,4.7461,4.7241,4.6636,4.5498,4.5718,4.5645,4.5094,4.5057,4.5057,4.5057,4.4287,4.3864,4.3864,4.3608,4.3515,4.3515,4.3515,4.3515,4.3515,4.3515,4.3515,4.3515,4.3515,4.3515,4.3515,4.3515,4.3515,4.3515,4.3515,4.3515,4.3515,4.3515,4.3515,4.3515,4.3515,4.3841,4.4206,4.3664,4.4038,4.465,4.4452,4.4585,4.4868,4.5213,4.5307,4.5307,4.5307,4.5328,4.5359,4.5359,4.5359,4.5379,4.539,4.54,4.541,4.54,4.5438,4.5476,4.5476,4.5476,4.5495,4.5568,4.5513,4.5697,4.634,4.6896,4.7221,4.72,4.7169,4.7119,4.7119,4.6635,4.632,4.632,4.5831,4.5513,4.5457,4.5495,4.5513,4.5531,4.5513,4.5485,4.5477,4.5419,4.5736,4.6407,4.7309,4.803,3.619,3.782,3.9634,3.9963,4.1166,4.2082,4.1319,4.114,4.1305,4.1927,4.2498,4.2939,4.3123,4.3339,4.3515,4.3515,4.3901,4.4213,4.4213,4.4929,4.5608,4.6085,4.6415,4.6617,4.6617,4.6324,4.5737,4.4764,4.4856,4.4727,4.425,4.4213,4.4213,4.4213,4.3754,4.3515,4.3515,4.3515,4.3515,4.3515,4.3515,4.3515,4.3515,4.3515,4.3515,4.3515,4.3515,4.3515,4.3515,4.3515,4.3515,4.3515,4.3515,4.3515,4.3515,4.3515,4.3515,4.3515,4.3515,4.3902,4.4299,4.3714,4.4169,4.4922,4.4506,4.4682,4.5034,4.5246,4.5307,4.5307,4.5307,4.5348,4.5408,4.5408,4.5399,4.5409,4.5429,4.5438,4.5438,4.5466,4.5513,4.555,4.555,4.555,4.5559,4.5586,4.5856,4.6358,4.7204,4.7732,4.8038,4.7999,4.7968,4.7947,4.7947,4.7509,4.7251,4.7251,4.6829,4.6577,4.653,4.5896,4.5559,4.5594,4.5568,4.5522,4.5504,4.5831,4.6273,4.6839,4.8049,4.8904,3.7615,3.878,4.0026,4.1858,4.1661,4.1134,4.1516,4.1626,4.1864,4.2711,4.292,4.3069,4.3427,4.3515,4.3515,4.3515,4.3515,4.3515,4.3515,4.4121,4.4618,4.4691,4.5351,4.5792,4.5792,4.5131,4.4654,4.4617,4.3901,4.3515,4.3515,4.3515,4.3515,4.3515,4.3515,4.3515,4.3515,4.3515,4.3515,4.3515,4.3515,4.3515,4.3515,4.3515,4.3515,4.3515,4.3515,4.3515,4.3515,4.3515,4.3515,4.3515,4.3515,4.3515,4.3515,4.3515,4.3515,4.3496,4.3531,4.3918,4.4318,4.3728,4.4313,4.5151,4.4578,4.4801,4.5267,4.5297,4.5307,4.5307,4.5307,4.5348,4.5399,4.5418,4.5419,4.5429,4.5495,4.5504,4.5522,4.5586,4.5594,4.5594,4.5594,4.5594,4.5633,4.571,4.6451,4.7299,4.8107,4.8289,4.8308,4.8249,4.8239,4.8229,4.8229,4.8211,4.8202,4.8202,4.8135,4.8105,4.8105,4.6644,4.5825,4.5825,4.5825,4.5799,4.5734,4.6578,4.702,4.7069,4.8664,4.9433,3.5831,3.7979,4.0372,4.0771,4.1374,4.2032,4.2516,4.2595,4.2653,4.2863,4.3142,4.3392,4.3479,4.3515,4.3515,4.3515,4.3515,4.3515,4.3515,4.3662,4.3993,4.4618,4.4856,4.4966,4.4966,4.48,4.4452,4.3809,4.3606,4.3515,4.3515,4.3515,4.3515,4.3515,4.3515,4.3515,4.3515,4.3515,4.3515,4.3515,4.3515,4.3515,4.3515,4.3515,4.3515,4.3515,4.3515,4.3515,4.3515,4.3515,4.3515,4.3515,4.3515,4.3515,4.3515,4.3515,4.3515,4.3549,4.3798,4.4121,4.4327,4.3999,4.4346,4.4843,4.4493,4.4663,4.5026,4.5246,4.5338,4.5388,4.5388,4.539,4.5419,4.5477,4.5476,4.5495,4.5568,4.5577,4.5577,4.5594,4.5594,4.5594,4.5594,4.5594,4.5825,4.6528,4.7317,4.8154,4.9019,4.9731,5.0135,5.0115,5.0075,5.0045,5.0045,4.9441,4.9037,4.9037,4.8452,4.8105,4.8105,4.7759,4.7567,4.7567,4.7567,4.7558,4.7529,4.7731,4.8192,4.8837,4.924,4.976,3.6453,3.8685,4.0904,4.1801,4.2427,4.2827,4.2882,4.305,4.3196,4.3196,4.3357,4.3515,4.3515,4.3515,4.3515,4.3515,4.3515,4.3515,4.3515,4.3515,4.3662,4.4085,4.4121,4.4121,4.4121,4.4121,4.3956,4.3533,4.3515,4.3515,4.3515,4.3515,4.3515,4.3515,4.3515,4.3515,4.3515,4.3515,4.3515,4.3515,4.3515,4.3515,4.3515,4.3515,4.3515,4.3515,4.3515,4.3515,4.3515,4.3515,4.3515,4.3515,4.3515,4.3515,4.3515,4.3515,4.3515,4.3513,4.3699,4.3952,4.4147,4.386,4.4143,4.4585,4.4438,4.4637,4.4962,4.5267,4.536,4.54,4.54,4.5419,4.5467,4.5495,4.5522,4.5559,4.5586,4.5594,4.5594,4.5594,4.5594,4.5594,4.5594,4.5594,4.6037,4.7298,4.7836,4.8567,4.9856,5.0423,5.0712,5.0712,5.0663,5.0643,5.0643,5.024,4.9971,4.9971,4.9567,4.9336,4.9336,4.9336,4.8952,4.8125,4.8105,4.8105,4.8105,4.8529,4.8952,4.9413,4.9817,5.0269,3.7085,3.9356,4.1389,4.3346,4.3768,4.3593,4.3105,4.3268,4.3515,4.3515,4.3515,4.3515,4.3515,4.3515,4.3515,4.3515,4.3515,4.3515,4.3515,4.3515,4.3515,4.3515,4.3515,4.3515,4.3515,4.3515,4.3515,4.3515,4.3515,4.3515,4.3515,4.3515,4.3515,4.3515,4.3515,4.3515,4.3515,4.3515,4.3515,4.3515,4.3515,4.3515,4.3515,4.3515,4.3515,4.3515,4.3515,4.3515,4.3515,4.3515,4.3515,4.3515,4.3515,4.3515,4.3515,4.3515,4.3515,4.3515,4.3565,4.3765,4.3958,4.3682,4.3918,4.4346,4.4388,4.4612,4.4927,4.5298,4.5409,4.5419,4.5419,4.5467,4.5504,4.5513,4.5568,4.5594,4.5594,4.5594,4.5594,4.5594,4.5594,4.5594,4.5594,4.5594,4.6172,4.7855,4.8105,4.874,5.0481,5.0712,5.0712,5.0712,5.0712,5.0712,5.0712,5.0712,5.0712,5.0712,5.0712,5.0712,5.0712,5.0712,5.001,4.8586,4.8548,4.8548,4.8548,4.926,4.9625,4.9644,5.0366,5.0712,3.4576,3.783,4.1558,4.3568,4.4288,4.4342,4.3592,4.3444,4.3515,4.3515,4.3515,4.3515,4.3515,4.3515,4.3515,4.3515,4.3515,4.3515,4.3515,4.3515,4.3515,4.3515,4.3515,4.3515,4.3515,4.3515,4.3515,4.3515,4.3515,4.3515,4.3515,4.3515,4.3515,4.3515,4.3515,4.3515,4.3515,4.3515,4.3515,4.3515,4.3515,4.3515,4.3515,4.3515,4.3515,4.3515,4.3515,4.3515,4.3515,4.3515,4.3515,4.3515,4.3515,4.3515,4.3515,4.3515,4.3515,4.3531,4.383,4.3974,4.3989,4.3958,4.3986,4.4109,4.4332,4.4519,4.4739,4.5267,4.5438,4.5495,4.5495,4.5495,4.5513,4.5577,4.5586,4.5594,4.5594,4.5594,4.5594,4.5594,4.5594,4.5594,4.5594,4.5594,4.6172,4.7855,4.8105,4.874,5.0481,5.0712,5.0712,5.0712,5.0712,5.0712,5.0712,5.0712,5.0712,5.0712,5.0712,5.0712,5.0712,5.0712,5.0596,5.0366,5.0346,5.0346,5.0346,5.0481,5.0539,5.0539,5.0654,5.0712,3.6354,3.9343,4.2129,4.3672,4.4363,4.4488,4.3681,4.3515,4.3515,4.3515,4.3515,4.3515,4.3515,4.3515,4.3515,4.3515,4.3515,4.3515,4.3515,4.3515,4.3515,4.3515,4.3515,4.3515,4.3515,4.3515,4.3515,4.3515,4.3515,4.3515,4.3515,4.3515,4.3515,4.3515,4.3515,4.3515,4.3515,4.3515,4.3515,4.3515,4.3515,4.3515,4.3515,4.3515,4.3515,4.3515,4.3515,4.3515,4.3515,4.3515,4.3515,4.3515,4.3515,4.3515,4.3515,4.3515,4.3515,4.3513,4.3666,4.3716,4.3716,4.3716,4.3716,4.3812,4.426,4.4493,4.4714,4.526,4.5486,4.5559,4.5559,4.5559,4.5568,4.5586,4.5594,4.5594,4.5594,4.5594,4.5594,4.5594,4.5594,4.5594,4.5594,4.599,4.674,4.7932,4.8529,4.9279,5.0539,5.0712,5.0712,5.0712,5.0712,5.0712,5.0712,5.0712,5.0712,5.0712,5.0712,5.0712,5.0712,5.0712,5.0712,5.0712,5.0712,5.0712,5.0712,5.0712,5.0712,5.0712,5.0712,5.0712,3.7732,4.017,4.1907,4.3347,4.4363,4.48,4.3993,4.3791,4.3736,4.3551,4.3515,4.3515,4.3515,4.3515,4.3515,4.3515,4.3515,4.3515,4.3515,4.3515,4.3515,4.3515,4.3515,4.3515,4.3515,4.3515,4.3515,4.3515,4.3515,4.3515,4.3515,4.3515,4.3515,4.3515,4.3515,4.3515,4.3515,4.3515,4.3515,4.3515,4.3515,4.3515,4.3515,4.3515,4.3515,4.3515,4.3515,4.3515,4.3515,4.3515,4.3515,4.3515,4.3515,4.3515,4.3515,4.3515,4.3515,4.3515,4.3515,4.3515,4.3515,4.3515,4.3515,4.3614,4.4231,4.4493,4.4707,4.5253,4.5495,4.5594,4.5594,4.5594,4.5594,4.5594,4.5594,4.5594,4.5594,4.5594,4.5594,4.5594,4.5594,4.5671,4.5893,4.6471,4.7259,4.8279,4.8971,4.9702,5.0596,5.0712,5.0712,5.0712,5.0712,5.0712,5.0712,5.0712,5.0712,5.0712,5.0712,5.0712,5.0712,5.0712,5.0712,5.0712,5.0712,5.0712,5.0712,5.0712,5.0712,5.0712,5.0712,5.0712,3.6648,3.8492,4.0092,4.2394,4.4418,4.5626,4.4837,4.4654,4.4415,4.3644,4.3515,4.3515,4.3515,4.3515,4.3515,4.3515,4.3515,4.3515,4.3515,4.3515,4.3515,4.3515,4.3515,4.3515,4.3515,4.3515,4.3515,4.3515,4.3515,4.3515,4.3515,4.3515,4.3515,4.3515,4.3515,4.3515,4.3515,4.3515,4.3515,4.3515,4.3515,4.3515,4.3515,4.3515,4.3515,4.3515,4.3515,4.3515,4.3515,4.3515,4.3515,4.3515,4.3515,4.3515,4.3515,4.3515,4.3515,4.3515,4.3515,4.3515,4.3515,4.3515,4.3515,4.3614,4.4231,4.4493,4.4707,4.5253,4.5495,4.5594,4.5594,4.5594,4.5594,4.5594,4.5594,4.5594,4.5594,4.5594,4.5594,4.5594,4.5594,4.5855,4.6701,4.6865,4.7451,4.9086,4.9375,4.9702,5.0596,5.0712,5.0712,5.0712,5.0712,5.0712,5.0712,5.0712,5.0712,5.0712,5.0712,5.0712,5.0712,5.0712,5.0712,5.0712,5.0712,5.0712,5.0712,5.0712,5.0712,5.0712,5.0712,5.0712,3.6005,3.8161,4.0363,4.1463,4.3448,4.5057,4.4782,4.4691,4.4618,4.4342,4.3864,4.3515,4.3515,4.3515,4.3515,4.3515,4.3515,4.3515,4.3515,4.3515,4.3515,4.3515,4.3515,4.3515,4.3515,4.3515,4.3515,4.3515,4.3515,4.3515,4.3515,4.3515,4.3515,4.3515,4.3515,4.3515,4.3515,4.3515,4.3515,4.3515,4.3515,4.3515,4.3515,4.3515,4.3515,4.3515,4.3515,4.3515,4.3515,4.3515,4.3515,4.3515,4.3515,4.3515,4.3515,4.3515,4.3515,4.3515,4.3515,4.3515,4.3515,4.3515,4.3515,4.3614,4.4231,4.4493,4.4707,4.5253,4.5495,4.5594,4.5594,4.5594,4.5594,4.5594,4.5594,4.5594,4.5594,4.5594,4.5594,4.5594,4.6047,4.6528,4.6846,4.7798,4.8702,4.9317,4.9875,5.0346,5.0654,5.0712,5.0712,5.0712,5.0712,5.0712,5.0712,5.0712,5.0712,5.0712,5.0712,5.0712,5.0712,5.0712,5.0712,5.0712,5.0712,5.0712,5.0712,5.0712,5.0712,5.0712,5.0712,5.0712,3.5375,3.7228,3.948,4.1101,4.2508,4.3755,4.4874,4.4892,4.4618,4.436,4.4085,4.3809,4.3551,4.3515,4.3515,4.3515,4.3515,4.3515,4.3515,4.3515,4.3515,4.3515,4.3515,4.3515,4.3515,4.3515,4.3515,4.3515,4.3515,4.3515,4.3515,4.3515,4.3515,4.3515,4.3515,4.3515,4.3515,4.3515,4.3515,4.3515,4.3515,4.3515,4.3515,4.3515,4.3515,4.3515,4.3515,4.3515,4.3515,4.3515,4.3515,4.3515,4.3515,4.3515,4.3515,4.3515,4.3515,4.3515,4.3515,4.3565,4.3649,4.3549,4.3565,4.3763,4.426,4.4493,4.4707,4.5253,4.5495,4.5594,4.5594,4.5594,4.5594,4.5594,4.5594,4.5691,4.597,4.6028,4.6028,4.6028,4.6721,4.7413,4.7702,4.8663,4.949,4.9779,5.0327,5.0712,5.0712,5.0712,5.0712,5.0712,5.0712,5.0712,5.0712,5.0712,5.0712,5.0712,5.0712,5.0712,5.0712,5.0712,5.0712,5.0712,5.0712,5.0712,5.0712,5.0712,5.0712,5.0712,5.0712,5.0712,0.0,0.0,0.0,4.1148,4.1589,4.1884,4.5039,4.5168,4.4433,4.3681,4.414,4.4433,4.3663,4.3551,4.3533,4.3515,4.3515,4.3515,4.3515,4.3533,4.3551,4.3551,4.357,4.357,4.357,4.3551,4.3551,4.3551,4.3497,4.3515,4.3515,4.3515,4.3515,4.3515,4.3515,4.3515,4.3515,4.3515,4.3515,4.3515,4.3515,4.3515,4.3515,4.3515,4.3515,4.3515,4.3515,4.3515,4.3515,4.3515,4.3515,4.3515,4.3515,4.3515,4.3515,4.3515,4.3515,4.3515,4.3515,4.3716,4.3942,4.3599,4.3716,4.4033,4.4318,4.4493,4.4707,4.5243,4.5495,4.5594,4.5594,4.5594,4.5594,4.5594,4.5594,4.5845,4.6721,4.6923,4.6942,4.6942,4.7586,4.8413,4.924,4.9413,4.9721,5.0577,5.0712,5.0712,5.0712,5.0712,5.0712,5.0712,5.0712,5.0712,5.0712,5.0712,5.0712,5.0712,5.0712,5.0712,5.0712,5.0712,5.0712,5.0712,5.0712,5.0712,5.0712,5.0712,5.0712,5.0712,5.0712,5.0712,3.3989,0.0,0.0,0.0,0.0,0.0,4.2103,4.2708,4.324,4.4176,4.4085,4.3938,4.4305,4.4378,4.4176,4.3589,4.3515,4.3515,4.3515,4.3993,4.4378,4.4378,4.4874,4.5241,4.5241,4.4709,4.4378,4.4378,4.3828,4.3515,4.3515,4.3515,4.3515,4.3515,4.3515,4.3515,4.3515,4.3515,4.3515,4.3515,4.3515,4.3515,4.3515,4.3515,4.3515,4.3515,4.3515,4.3515,4.3515,4.3515,4.3515,4.3515,4.3515,4.3515,4.3515,4.3515,4.3515,4.3515,4.3515,4.3548,4.3615,4.3513,4.3565,4.373,4.4246,4.4465,4.4663,4.5232,4.5457,4.555,4.5586,4.5594,4.5594,4.5594,4.5594,4.5845,4.6721,4.7355,4.7778,4.7778,4.8471,4.9125,4.9356,4.9913,5.0423,5.0654,5.0712,5.0712,5.0712,5.0712,5.0712,5.0712,5.0712,5.0712,5.0712,5.0712,5.0712,5.0712,5.0712,5.0712,5.0712,5.0712,5.0712,5.0712,5.0712,5.0712,5.0712,5.0712,5.0712,5.0712,5.0712,5.0712,3.4519,3.5505,3.6927,3.7631,0.0,0.0,4.1607,4.2194,4.2653,4.3938,4.4085,4.414,4.4617,4.4691,4.4562,4.4085,4.3993,4.3883,4.3551,4.4195,4.4691,4.4691,4.5406,4.5902,4.5902,4.5168,4.4691,4.4691,4.3956,4.3515,4.3515,4.3515,4.3515,4.3515,4.3515,4.3515,4.3515,4.3515,4.3515,4.3515,4.3515,4.3515,4.3515,4.3515,4.3515,4.3515,4.3515,4.3515,4.3515,4.3515,4.3515,4.3515,4.3515,4.3515,4.3515,4.3515,4.3515,4.3515,4.3515,4.3582,4.3682,4.3566,4.3582,4.3795,4.426,4.4452,4.4637,4.5232,4.5476,4.5559,4.5586,4.5594,4.5594,4.5594,4.5594,4.5941,4.7144,4.7778,4.8221,4.8567,4.9356,4.9933,4.9933,5.0366,5.0712,5.0712,5.0712,5.0712,5.0712,5.0712,5.0712,5.0712,5.0712,5.0712,5.0712,5.0712,5.0712,5.0712,5.0712,5.0712,5.0712,5.0712,5.0712,5.0712,5.0712,5.0712,5.0712,5.0712,5.0712,5.0712,5.0712,5.0712,3.5818,3.5943,3.658,3.9017,3.86,0.0,4.2029,4.2341,4.2158,4.3039,4.3809,4.4342,4.4544,4.458,4.458,4.458,4.4636,4.4415,4.3608,4.4268,4.4837,4.4837,4.5626,4.6177,4.6177,4.5443,4.4947,4.4838,4.4011,4.3515,4.3515,4.3515,4.3515,4.3515,4.3515,4.3515,4.3515,4.3515,4.3515,4.3515,4.3515,4.3515,4.3515,4.3515,4.3515,4.3515,4.3515,4.3515,4.3515,4.3515,4.3515,4.3515,4.3515,4.3515,4.3515,4.3515,4.3515,4.3515,4.3515,4.3699,4.3894,4.3599,4.3699,4.4002,4.4303,4.4438,4.4624,4.5232,4.5495,4.5594,4.5594,4.5594,4.5594,4.5594,4.5594,4.6037,4.7625,4.8048,4.8355,4.9221,5.0087,5.0712,5.0712,5.0712,5.0712,5.0712,5.0712,5.0712,5.0712,5.0712,5.0712,5.0712,5.0712,5.0712,5.0712,5.0712,5.0712,5.0712,5.0712,5.0712,5.0712,5.0712,5.0712,5.0712,5.0712,5.0712,5.0712,5.0712,5.0712,5.0712,5.0712,5.0712,3.6858,3.7432,3.7882,3.7951,3.7942,0.0,3.8554,3.9038,3.9808,4.126,4.1682,4.2196,4.3497,4.3718,4.3718,4.3718,4.4287,4.4415,4.3608,4.4745,4.5663,4.5663,4.6948,4.7829,4.7829,4.7094,4.636,4.5718,4.4305,4.3515,4.3515,4.3515,4.3515,4.3515,4.3515,4.3515,4.3515,4.3515,4.3515,4.3515,4.3515,4.3515,4.3515,4.3515,4.3515,4.3515,4.3515,4.3515,4.3515,4.3515,4.3515,4.3515,4.3515,4.3515,4.3515,4.3515,4.3515,4.3515,4.3515,4.3531,4.3582,4.3513,4.3531,4.3697,4.4246,4.4397,4.4559,4.5222,4.5495,4.5594,4.5594,4.5594,4.5594,4.5594,4.5594,4.5883,4.6913,4.7644,4.8355,4.9221,5.0087,5.0712,5.0712,5.0712,5.0712,5.0712,5.0712,5.0712,5.0712,5.0712,5.0712,5.0712,5.0712,5.0712,5.0712,5.0712,5.0712,5.0712,5.0712,5.0712,5.0712,5.0712,5.0712,5.0712,5.0712,5.0712,5.0712,5.0712,5.0712,5.0712,5.0712,5.0712,3.7551,3.8101,3.864,3.8321,3.8424,0.0,0.0,3.9001,3.9643,4.0838,4.1095,4.1462,4.2671,4.2892,4.302,4.3441,4.4176,4.4415,4.3608,4.5223,4.6507,4.6507,4.7572,4.8306,4.8306,4.7571,4.6599,4.5388,4.4544,4.392,4.3533,4.3515,4.3515,4.3515,4.3515,4.3515,4.3515,4.3515,4.3515,4.3515,4.3515,4.3515,4.3515,4.3515,4.3515,4.3515,4.3515,4.3515,4.3515,4.3515,4.3515,4.3515,4.3515,4.3515,4.3515,4.3515,4.3515,4.3515,4.3515,4.3515,4.3515,4.3515,4.3515,4.3599,4.4075,4.4416,4.4726,4.5096,4.5362,4.5559,4.5586,4.5594,4.5594,4.5594,4.5594,4.596,4.7221,4.7817,4.849,4.9779,5.0404,5.0712,5.0712,5.0712,5.0712,5.0712,5.0712,5.0712,5.0712,5.0712,5.0712,5.0712,5.0712,5.0712,5.0712,5.0712,5.0712,5.0712,5.0712,5.0712,5.0712,5.0712,5.0712,5.0712,5.0712,5.0712,5.0712,5.0712,5.0712,5.0712,5.0712,5.0712,3.8468,3.8756,3.9215,3.9113,3.9193,3.9318,0.0,0.0,0.0,4.049,4.0636,4.0875,4.1699,4.1846,4.2103,4.291,4.3846,4.425,4.3589,4.5443,4.6856,4.6856,4.7718,4.8306,4.8306,4.7424,4.6379,4.5241,4.4728,4.425,4.3754,4.3571,4.3515,4.3515,4.3515,4.3515,4.3515,4.3515,4.3515,4.3515,4.3515,4.3515,4.3515,4.3515,4.3515,4.3515,4.3515,4.3515,4.3515,4.3515,4.3515,4.3515,4.3515,4.3515,4.3515,4.3515,4.3515,4.3515,4.3515,4.3515,4.3515,4.3515,4.3531,4.3649,4.3926,4.443,4.4938,4.4977,4.5243,4.5522,4.5586,4.5594,4.5594,4.5594,4.5729,4.622,4.7586,4.8125,4.8779,5.0192,5.0596,5.0712,5.0712,5.0712,5.0712,5.0712,5.0712,5.0712,5.0712,5.0712,5.0712,5.0712,5.0712,5.0712,5.0712,5.0712,5.0712,5.0712,5.0712,5.0712,5.0712,5.0712,5.0712,5.0712,5.0712,5.0712,5.0712,5.0712,5.0712,5.0712,5.0712,5.0712,4.0256,4.0356,4.0044,3.9559,3.9505,3.9305,3.8345,0.0,3.8872,3.8946,0.0,3.9221,4.001,0.0,0.0,4.1242,4.2653,4.3606,4.3497,4.4947,4.6049,4.6049,4.7388,4.8306,4.8306,4.6929,4.6269,4.6782,4.4856,4.3901,4.4544,4.3883,4.3515,4.3515,4.3515,4.3515,4.3515,4.3515,4.3515,4.3515,4.3515,4.3515,4.3515,4.3515,4.3515,4.3515,4.3515,4.3515,4.3515,4.3515,4.3515,4.3515,4.3515,4.3515,4.3515,4.3515,4.3515,4.3515,4.3515,4.3515,4.3515,4.3515,4.3699,4.3958,4.3989,4.4471,4.4996,4.5007,4.5273,4.5586,4.5594,4.5594,4.5594,4.5594,4.6182,4.6797,4.7,4.8202,4.9317,4.951,5.0164,5.0712,5.0712,5.0712,5.0712,5.0712,5.0712,5.0712,5.0712,5.0712,5.0712,5.0712,5.0712,5.0712,5.0712,5.0712,5.0712,5.0712,5.0712,5.0712,5.0712,5.0712,5.0712,5.0712,5.0712,5.0712,5.0712,5.0712,5.0712,5.0712,5.0712,5.0712,3.9771,4.0237,4.0486,3.961,3.9667,3.9639,3.8462,3.838,3.8575,3.8575,0.0,0.0,0.0,0.0,0.0,0.0,4.1368,4.2121,4.2121,4.3479,4.4837,4.5792,4.6507,4.7095,4.7553,4.6984,4.6727,4.7076,4.5736,4.4837,4.4727,4.4378,4.3975,4.3497,4.3515,4.3515,4.3515,4.3515,4.3515,4.3515,4.3515,4.3515,4.3515,4.3515,4.3515,4.3515,4.3515,4.3515,4.3515,4.3515,4.3515,4.3515,4.3515,4.3515,4.3515,4.3515,4.3515,4.3515,4.3515,4.3632,4.3798,4.3798,4.3983,4.4162,4.3812,4.4285,4.4908,4.48,4.514,4.5675,4.6212,4.6206,4.6234,4.6886,4.7204,4.7547,4.8212,4.8894,4.9548,5.0048,5.0462,5.0712,5.0712,5.0712,5.0712,5.0712,5.0712,5.0712,5.0712,5.0712,5.0712,5.0712,5.0712,5.0712,5.0712,5.0712,5.0712,5.0712,5.0712,5.0712,5.0712,5.0712,5.0712,5.0712,5.0712,5.0712,5.0712,5.0712,5.0712,5.0712,5.0712,5.0712,3.9632,4.0294,4.0837,3.9585,3.9704,3.9805,3.8515,3.8514,3.8807,3.8807,3.9072,0.0,0.0,0.0,3.9478,3.9827,0.0,4.1095,4.1095,4.2121,4.3442,4.5039,4.5626,4.614,4.6709,4.6562,4.6636,4.7076,4.6159,4.5516,4.537,4.4929,4.4433,4.3846,4.3608,4.3515,4.3515,4.3515,4.3515,4.3515,4.3515,4.3515,4.3515,4.3515,4.3515,4.3515,4.3515,4.3515,4.3515,4.3515,4.3515,4.3515,4.3515,4.3515,4.3515,4.3515,4.3515,4.3496,4.3599,4.386,4.4121,4.4079,4.4162,4.4213,4.3807,4.4227,4.4812,4.4745,4.5118,4.5742,4.6654,4.6714,4.6807,4.7857,4.8125,4.8398,4.9231,4.9586,4.9933,5.0577,5.0712,5.0712,5.0712,5.0712,5.0712,5.0712,5.0712,5.0712,5.0712,5.0712,5.0712,5.0712,5.0712,5.0712,5.0712,5.0712,5.0712,5.0712,5.0712,5.0712,5.0712,5.0712,5.0712,5.0712,5.0712,5.0712,5.0712,5.0712,5.0712,5.0712,5.0712,5.0712,4.0761,4.1116,4.1113,3.9607,3.9625,3.9619,3.808,3.8683,3.9549,3.9549,4.0253,4.0833,4.0833,4.0936,4.0765,0.0,4.0579,0.0,0.0,4.1132,4.1756,4.3404,4.4947,4.5902,4.5938,4.5241,4.5406,4.6984,4.5627,4.5406,4.6947,4.5553,4.4691,4.4672,4.3901,4.3515,4.3515,4.3515,4.3515,4.3515,4.3515,4.3515,4.3515,4.3515,4.3515,4.3515,4.3515,4.3515,4.3515,4.3515,4.3515,4.3515,4.3515,4.3515,4.3515,4.3515,4.3515,4.3566,4.3878,4.4206,4.4452,4.4265,4.4114,4.4031,4.4129,4.4369,4.4688,4.4988,4.5332,4.5797,4.6682,4.6885,4.7096,4.7904,4.8731,4.9365,4.9394,5.0048,5.0673,5.0693,5.0712,5.0712,5.0712,5.0712,5.0712,5.0712,5.0712,5.0712,5.0712,5.0712,5.0712,5.0712,5.0712,5.0712,5.0712,5.0712,5.0712,5.0712,5.0712,5.0712,5.0712,5.0712,5.0712,5.0712,5.0712,5.0712,5.0712,5.0712,5.0712,5.0712,5.0712,5.0712,4.0689,4.1303,4.1703,4.0656,4.0157,3.9668,3.8596,3.8762,3.9103,3.9085,4.0018,4.0823,4.0823,4.0908,4.0866,0.0,0.0,4.0912,0.0,4.0304,4.0506,4.1038,4.3002,4.4507,4.5057,4.4874,4.537,4.6984,4.6085,4.5975,4.7039,4.6581,4.5792,4.4728,4.4452,4.403,4.3515,4.3515,4.3515,4.3515,4.3515,4.3515,4.3515,4.3515,4.3515,4.3515,4.3515,4.3515,4.3515,4.3515,4.3515,4.3515,4.3515,4.3515,4.3515,4.3515,4.3515,4.3582,4.4129,4.4519,4.4763,4.4739,4.4733,4.4714,4.4506,4.467,4.4954,4.5074,4.5342,4.5922,4.7336,4.7559,4.7834,4.9442,4.9881,4.998,5.0211,5.05,5.0712,5.0712,5.0712,5.0712,5.0712,5.0712,5.0712,5.0712,5.0712,5.0712,5.0712,5.0712,5.0712,5.0712,5.0712,5.0712,5.0712,5.0712,5.0712,5.0712,5.0712,5.0712,5.0712,5.0712,5.0712,5.0712,5.0712,5.0712,5.0712,5.0712,5.0712,5.0712,5.0712,5.0712,4.0932,4.1525,4.1981,4.1393,4.0878,4.0323,3.9515,3.9494,3.9673,3.9822,4.0636,4.1415,4.1595,4.1664,4.1623,0.0,0.0,4.0659,0.0,3.9717,3.99,3.99,4.1772,4.3277,4.3809,4.3864,4.4507,4.6122,4.5773,4.5957,4.7039,4.7094,4.6489,4.5168,4.4856,4.4305,4.3515,4.3515,4.3515,4.3515,4.3515,4.3515,4.3515,4.3515,4.3515,4.3515,4.3515,4.3515,4.3515,4.3515,4.3515,4.3515,4.3515,4.3515,4.3496,4.3632,4.3793,4.402,4.4501,4.4849,4.5074,4.5074,4.5071,4.5057,4.4861,4.4943,4.5118,4.5243,4.5659,4.6374,4.7759,4.8192,4.8707,5.0307,5.0544,5.0432,5.0663,5.0712,5.0712,5.0712,5.0712,5.0712,5.0712,5.0712,5.0712,5.0712,5.0712,5.0712,5.0712,5.0712,5.0712,5.0712,5.0712,5.0712,5.0712,5.0712,5.0712,5.0712,5.0712,5.0712,5.0712,5.0712,5.0712,5.0712,5.0712,5.0712,5.0712,5.0712,5.0712,5.0712,5.0712,5.0712]}]]